[[{"header":{"parameterUnit":"m.s-1","parameterCategory":1,"la1":31.0,"la2":29.5877,"lo1":-88.7671,"lo2":-86.6584,"dy":0.0162,"dx":0.0185,"nx":115,"ny":88,"refTime":"2023-06-02T18:00:00:Z","depth":0,"parameterNumber":2,"parameterNumberName":"U-component_of_WINDS"},"data":[0.0,0.0,0.0,0.0,0.0,0.0,0.0,0.0,0.0,0.0,0.0,0.0,0.0,0.0,0.0,0.0,0.0,0.0,0.0,0.0,0.0,0.0,0.0,0.0,0.0,0.0,0.0,0.0,0.0,0.0,0.0,0.0,0.0,0.0,0.0,0.0,0.0,0.0,0.0,0.0,0.0,0.0,0.0,0.0,0.0,0.0,0.0,0.0,0.0,0.0,0.0,0.0,0.0,0.0,0.0,0.0,0.0,0.0,0.0,0.0,0.0,0.0,0.0,0.0,0.0,0.0,0.0,0.0,0.0,0.0,0.0,0.0,0.0,0.0,0.0,0.0,0.0,0.0,0.0,0.0,0.0,0.0,0.0,0.0,0.0,0.0,0.0,0.0,0.0,0.0,0.0,0.0,0.0,0.0,0.0,0.0,0.0,0.0,0.0,0.0,0.0,0.0,0.0,0.0,0.0,0.0,0.0,0.0,0.0,0.0,0.0,0.0,0.0,0.0,0.0,0.0,0.0,0.0,0.0,0.0,0.0,0.0,0.0,0.0,0.0,0.0,0.0,0.0,0.0,0.0,0.0,0.0,0.0,0.0,0.0,0.0,0.0,0.0,0.0,0.0,0.0,0.0,0.0,0.0,0.0,0.0,0.0,0.0,0.0,0.0,0.0,0.0,0.0,0.0,0.0,0.0,0.0,0.0,0.0,0.0,0.0,0.0,0.0,0.0,0.0,0.0,0.0,0.0,0.0,0.0,0.0,0.0,0.0,0.0,0.0,0.0,0.0,0.0,0.0,0.0,0.0,0.0,0.0,0.0,0.0,0.0,0.0,0.0,0.0,0.0,0.0,0.0,0.0,0.0,0.0,0.0,0.0,0.0,0.0,0.0,0.0,0.0,0.0,0.0,0.0,0.0,0.0,0.0,0.0,0.0,0.0,0.0,0.0,0.0,0.0,0.0,0.0,0.0,0.0,0.0,0.0,0.0,0.0,0.0,0.0,0.0,0.0,0.0,0.0,0.0,0.0,0.0,0.0,0.0,0.0,0.0,0.0,0.0,0.0,0.0,0.0,0.0,0.0,0.0,0.0,0.0,0.0,0.0,0.0,0.0,0.0,0.0,0.0,0.0,0.0,0.0,0.0,0.0,0.0,0.0,0.0,0.0,0.0,0.0,0.0,0.0,0.0,0.0,0.0,0.0,0.0,0.0,0.0,0.0,0.0,0.0,0.0,0.0,0.0,0.0,0.0,0.0,0.0,0.0,0.0,0.0,0.0,0.0,0.0,0.0,0.0,0.0,0.0,0.0,0.0,0.0,0.0,0.0,0.0,0.0,0.0,0.0,0.0,0.0,0.0,0.0,0.0,0.0,0.0,0.0,0.0,0.0,0.0,0.0,0.0,0.0,0.0,0.0,0.0,0.0,0.0,0.0,0.0,0.0,0.0,0.0,0.0,0.0,0.0,0.0,0.0,0.0,0.0,0.0,0.0,0.0,0.0,0.0,0.0,0.0,0.0,0.0,0.0,0.0,0.0,0.0,0.0,0.0,0.0,0.0,0.0,0.0,0.0,0.0,0.0,0.0,0.0,0.0,0.0,0.0,0.0,0.0,0.0,0.0,0.0,0.0,0.0,0.0,0.0,0.0,0.0,0.0,0.0,0.0,0.0,0.0,0.0,0.0,0.0,0.0,0.0,0.0,0.0,0.0,0.0,0.0,0.0,0.0,0.0,0.0,0.0,0.0,0.0,0.0,0.0,0.0,0.0,0.0,0.0,0.0,0.0,0.0,0.0,0.0,0.0,0.0,0.0,0.0,0.0,0.0,0.0,0.0,0.0,0.0,0.0,0.0,0.0,0.0,0.0,0.0,0.0,0.0,0.0,0.0,0.0,0.0,0.0,0.0,0.0,0.0,0.0,0.0,0.0,0.0,0.0,0.0,0.0,0.0,0.0,0.0,0.0,0.0,0.0,0.0,0.0,0.0,0.0,0.0,0.0,0.0,0.0,0.0,0.0,0.0,0.0,0.0,0.0,0.0,0.0,0.0,0.0,0.0,0.0,0.0,0.0,0.0,0.0,0.0,0.0,0.0,0.0,0.0,0.0,0.0,0.0,0.0,0.0,0.0,0.0,0.0,0.0,0.0,0.0,0.0,0.0,0.0,0.0,0.0,0.0,0.0,0.0,0.0,0.0,0.0,0.0,0.0,0.0,0.0,0.0,0.0,0.0,0.0,0.0,0.0,0.0,0.0,0.0,0.0,0.0,0.0,0.0,0.0,0.0,0.0,0.0,0.0,0.0,0.0,0.0,0.0,0.0,0.0,0.0,0.0,0.0,0.0,0.0,0.0,0.0,0.0,0.0,0.0,0.0,0.0,0.0,0.0,0.0,0.0,0.0,0.0,0.0,0.0,0.0,0.0,0.0,0.0,0.0,0.0,0.0,0.0,0.0,0.0,0.0,0.0,0.0,0.0,0.0,0.0,0.0,0.0,0.0,0.0,0.0,0.0,0.0,0.0,0.0,0.0,0.0,0.0,0.0,0.0,0.0,0.0,0.0,0.0,0.0,0.0,0.0,0.0,0.0,0.0,0.0,0.0,0.0,0.0,0.0,0.0,0.0,0.0,0.0,0.0,0.0,0.0,0.0,0.0,0.0,0.0,0.0,0.0,0.0,0.0,0.0,0.0,0.0,0.0,0.0,0.0,0.0,0.0,0.0,0.0,0.0,0.0,0.0,0.0,0.0,0.0,0.0,0.0,0.0,0.0,0.0,0.0,0.0,0.0,0.0,0.0,0.0,0.0,0.0,0.0,0.0,0.0,0.0,0.0,0.0,0.0,0.0,0.0,0.0,0.0,0.0,0.0,0.0,0.0,0.0,0.0,0.0,0.0,0.0,0.0,0.0,0.0,0.0,0.0,0.0,0.0,0.0,0.0,0.0,0.0,0.0,0.0,0.0,0.0,0.0,0.0,0.0,0.0,0.0,0.0,0.0,0.0,0.0,0.0,0.0,0.0,0.0,0.0,0.0,0.0,0.0,0.0,0.0,0.0,0.0,0.0,0.0,0.0,0.0,0.0,0.0,0.0,0.0,0.0,0.0,0.0,0.0,0.0,0.0,0.0,0.0,0.0,0.0,0.0,0.0,0.0,0.0,0.0,0.0,0.0,0.0,0.0,0.0,0.0,0.0,0.0,0.0,0.0,0.0,0.0,0.0,0.0,0.0,0.0,0.0,0.0,0.0,0.0,0.0,0.0,0.0,0.0,0.0,0.0,0.0,0.0,0.0,0.0,0.0,0.0,0.0,0.0,0.0,0.0,0.0,0.0,0.0,0.0,0.0,0.0,0.0,0.0,0.0,0.0,0.0,0.0,0.0,0.0,0.0,0.0,0.0,0.0,0.0,0.0,0.0,0.0,0.0,0.0,0.0,0.0,0.0,0.0,0.0,0.0,0.0,0.0,0.0,0.0,0.0,0.0,0.0,0.0,0.0,0.0,0.0,0.0,0.0,0.0,0.0,0.0,0.0,0.0,0.0,0.0,0.0,0.0,0.0,0.0,0.0,0.0,0.0,0.0,0.0,0.0,0.0,0.0,0.0,0.0,0.0,0.0,0.0,0.0,0.0,0.0,0.0,0.0,0.0,0.0,0.0,0.0,0.0,0.0,0.0,0.0,0.0,0.0,0.0,0.0,0.0,0.0,0.0,0.0,0.0,0.0,0.0,0.0,0.0,0.0,0.0,0.0,0.0,0.0,0.0,0.0,0.0,0.0,0.0,0.0,0.0,0.0,0.0,0.0,0.0,0.0,0.0,0.0,0.0,0.0,0.0,0.0,0.0,0.0,0.0,0.0,0.0,0.0,0.0,0.0,0.0,0.0,0.0,0.0,0.0,0.0,0.0,0.0,0.0,0.0,0.0,0.0,0.0,0.0,0.0,0.0,0.0,0.0,0.0,0.0,0.0,0.0,0.0,0.0,0.0,0.0,0.0,0.0,0.0,0.0,0.0,0.0,0.0,0.0,0.0,0.0,0.0,0.0,0.0,0.0,0.0,0.0,0.0,0.0,0.0,0.0,0.0,0.0,0.0,0.0,0.0,0.0,0.0,0.0,0.0,0.0,0.0,0.0,0.0,0.0,0.0,0.0,0.0,0.0,0.0,0.0,0.0,0.0,0.0,0.0,0.0,0.0,0.0,0.0,0.0,0.0,0.0,0.0,0.0,0.0,0.0,0.0,0.0,0.0,0.0,0.0,0.0,0.0,0.0,0.0,0.0,0.0,0.0,0.0,0.0,0.0,0.0,0.0,0.0,0.0,0.0,0.0,0.0,0.0,0.0,0.0,0.0,0.0,0.0,0.0,0.0,0.0,0.0,0.0,0.0,0.0,0.0,0.0,0.0,0.0,0.0,0.0,0.0,0.0,0.0,0.0,0.0,0.0,0.0,0.0,0.0,0.0,0.0,0.0,0.0,0.0,0.0,0.0,0.0,0.0,0.0,0.0,0.0,0.0,0.0,0.0,0.0,0.0,0.0,0.0,0.0,0.0,0.0,0.0,0.0,0.0,0.0,0.0,0.0,0.0,0.0,0.0,0.0,0.0,0.0,0.0,0.0,0.0,0.0,0.0,0.0,0.0,0.0,0.0,0.0,0.0,0.0,0.0,0.0,0.0,0.0,0.0,0.0,0.0,0.0,0.0,0.0,0.0,0.0,0.0,0.0,0.0,0.0,0.0,0.0,0.0,0.0,0.0,0.0,0.0,0.0,0.0,0.0,0.0,0.0,0.0,0.0,0.0,0.0,0.0,0.0,0.0,0.0,0.0,0.0,0.0,0.0,0.0,0.0,0.0,0.0,0.0,0.0,0.0,0.0,0.0,0.0,0.0,0.0,0.0,0.0,0.0,0.0,0.0,0.0,0.0,0.0,0.0,0.0,0.0,0.0,0.0,0.0,0.0,0.0,0.0,0.0,0.0,0.0,0.0,0.0,0.0,0.0,0.0,0.0,0.0,0.0,0.0,0.0,0.0,0.0,0.0,0.0,0.0,0.0,0.0,0.0,0.0,0.0,0.0,0.0,0.0,0.0,0.0,0.0,0.0,0.0,0.0,0.0,0.0,0.0,0.0,0.0,0.0,0.0,0.0,0.0,0.0,0.0,0.0,0.0,0.0,0.0,0.0,0.0,0.0,0.0,0.0,0.0,0.0,0.0,0.0,0.0,0.0,0.0,0.0,0.0,0.0,0.0,0.0,0.0,0.0,0.0,0.0,0.0,0.0,0.0,0.0,0.0,0.0,0.0,0.0,0.0,0.0,0.0,0.0,0.0,0.0,0.0,0.0,0.0,0.0,0.0,0.0,0.0,0.0,0.0,0.0,0.0,0.0,0.0,0.0,0.0,0.0,0.0,0.0,0.0,0.0,0.0,0.0,0.0,0.0,0.0,0.0,0.0,0.0,0.0,0.0,0.0,0.0,0.0,0.0,0.0,0.0,0.0,0.0,0.0,0.0,0.0,0.0,0.0,0.0,0.0,0.0,0.0,0.0,0.0,0.0,0.0,0.0,0.0,0.0,0.0,0.0,0.0,0.0,0.0,0.0,0.0,0.0,0.0,0.0,0.0,0.0,0.0,0.0,0.0,0.0,0.0,0.0,0.0,0.0,0.0,0.0,0.0,0.0,0.0,0.0,0.0,0.0,0.0,0.0,0.0,0.0,0.0,0.0,0.0,0.0,0.0,0.0,0.0,0.0,0.0,0.0,0.0,0.0,0.0,0.0,0.0,0.0,0.0,0.0,0.0,0.0,0.0,0.0,0.0,0.0,0.0,0.0,0.0,0.0,0.0,0.0,0.0,0.0,0.0,0.0,0.0,0.0,0.0,0.0,0.0,0.0,0.0,0.0,0.0,0.0,0.0,0.0,0.0,0.0,0.0,0.0,0.0,0.0,0.0,0.0,0.0,0.0,0.0,0.0,0.0,0.0,0.0,0.0,0.0,0.0,0.0,0.0,0.0,0.0,0.0,0.0,0.0,0.0,0.0,0.0,0.0,0.0,0.0,0.0,0.0,0.0,0.0,0.0,0.0,0.0,0.0,0.0,0.0,0.0,0.0,0.0,0.0,0.0,0.0,0.0,0.0,0.0,0.0,0.0,0.0,0.0,0.0,0.0,0.0,0.0,0.0,0.0,0.0,0.0,0.0,0.0,0.0,0.0,0.0,0.0,0.0,0.0,0.0,0.0,0.0,0.0,0.0,0.0,0.0,0.0,0.0,0.0,0.0,0.0,0.0,0.0,0.0,0.0,0.0,0.0,0.0,0.0,0.0,0.0,0.0,0.0,0.0,0.0,0.0,0.0,0.0,0.0,0.0,0.0,0.0,0.0,0.0,0.0,0.0,0.0,0.0,0.0,0.0,0.0,0.0,0.0,0.0,0.0,0.0,0.0,0.0,0.0,0.0,0.0,0.0,0.0,0.0,0.0,0.0,0.0,0.0,0.0,0.0,0.0,0.0,0.0,0.0,0.0,0.0,0.0,0.0,0.0,0.0,0.0,0.0,0.0,0.0,0.0,0.0,0.0,0.0,0.0,0.0,0.0,0.0,0.0,0.0,0.0,0.0,0.0,0.0,0.0,0.0,0.0,0.0,0.0,0.0,0.0,0.0,0.0,0.0,0.0,0.0,0.0,0.0,0.0,0.0,0.0,0.0,0.0,0.0,0.0,0.0,0.0,0.0,0.0,0.0,0.0,0.0,0.0,0.0,0.0,0.0,0.0,0.0,0.0,0.0,0.0,0.0,0.0,0.0,0.0,0.0,0.0,0.0,0.0,0.0,0.0,0.0,0.0,0.0,0.0,0.0,0.0,0.0,0.0,0.0,0.0,0.0,0.0,0.0,0.0,0.0,0.0,0.0,0.0,0.0,0.0,0.0,0.0,0.0,0.0,0.0,0.0,0.0,0.0,0.0,0.0,0.0,0.0,0.0,0.0,0.0,0.0,0.0,0.0,0.0,0.0,0.0,0.0,0.0,0.0,0.0,0.0,0.0,0.0,0.0,0.0,0.0,0.0,0.0,0.0,0.0,0.0,0.0,0.0,0.0,0.0,0.0,0.0,0.0,0.0,0.0,0.0,0.0,0.0,0.0,0.0,0.0,0.0,0.0,0.0,0.0,0.0,0.0,0.0,0.0,0.0,0.0,0.0,0.0,0.0,0.0,0.0,0.0,0.0,0.0,0.0,0.0,0.0,0.0,0.0,0.0,0.0,0.0,0.0,0.0,0.0,0.0,0.0,0.0,0.0,0.0,0.0,0.0,0.0,0.0,0.0,0.0,0.0,0.0,0.0,0.0,0.0,0.0,0.0,0.0,0.0,0.0,0.0,0.0,0.0,0.0,0.0,0.0,0.0,0.0,0.0,0.0,0.0,0.0,0.0,0.0,0.0,0.0,0.0,0.0,0.0,0.0,0.0,0.0,0.0,0.0,0.0,0.0,0.0,0.0,0.0,0.0,0.0,0.0,0.0,0.0,0.0,0.0,0.0,0.0,0.0,0.0,0.0,0.0,0.0,0.0,0.0,0.0,0.0,0.0,0.0,0.0,0.0,0.0,0.0,0.0,0.0,0.0,0.0,0.0,0.0,0.0,0.0,0.0,0.0,0.0,0.0,0.0,0.0,0.0,0.0,0.0,0.0,0.0,0.0,0.0,0.0,0.0,0.0,0.0,0.0,0.0,0.0,0.0,0.0,0.0,0.0,0.0,0.0,0.0,0.0,0.0,0.0,0.0,0.0,0.0,0.0,0.0,0.0,0.0,0.0,0.0,0.0,0.0,0.0,0.0,0.0,0.0,0.0,0.0,0.0,0.0,0.0181,0.0545,0.0208,0.0175,0.0,0.0,0.0,0.0,0.0,0.0,0.0,0.0,0.0,0.0,0.0,0.0,0.0,0.0,0.0,0.0,0.0,0.0,0.0,0.0,0.0,0.0,0.0,0.0,0.0,0.0,0.0,0.0,0.0,0.0,0.0,0.0,0.0,0.0,0.0,0.0,0.0,0.0,0.0,0.0,0.0,0.0,0.0,0.0,0.0,0.0,0.0,0.0,0.0,0.0,0.0,0.0,0.0,0.0,0.0,0.0,0.0,0.0,0.0,0.0,0.0,0.0,0.0,0.0,0.0,0.0,0.0,0.0,0.0,0.0,0.0,0.0,0.0,0.0,0.0,0.0,0.0,0.0,0.0,0.0,0.0,0.0,0.0,0.0,0.0,0.0,0.0,0.0,0.0,0.0,0.0,0.0,0.0,0.0,0.0,0.0,0.0,0.0,0.0,0.0,0.0,0.0,0.0,0.0,0.0,0.0,0.0,0.0,0.0,0.0218,0.0,0.0572,0.0797,0.0453,0.0352,0.0,0.0,0.0,0.0,0.0,0.0,0.0,0.0,0.0,0.0,0.0,0.0,0.0,0.0,0.0,0.0,0.0,0.0,0.0,0.0,0.0,0.0,0.0,0.0,0.0,0.0,0.0,0.0,0.0,0.0,0.0,0.0,0.0,0.0,0.0,0.0,0.0,0.0,0.0,0.0,0.0,0.0,0.0,0.0,0.0,0.0,0.0,0.0,0.0,0.0,0.0,0.0,0.0,0.0,0.0,0.0,0.0,0.0,0.0,0.0,0.0,0.0,0.0,0.0,0.0,0.0,0.0,0.0,0.0,0.0,0.0,0.0,0.0,0.0,0.0,0.0,0.0,0.0,0.0,0.0,0.0,0.0,0.0,0.0,0.0,0.0,0.0,0.0,0.0,0.0,0.0,0.0,0.0,0.0,0.0,0.0,0.0,0.0,0.0,0.0,0.0,0.0,0.0,0.0,0.0,0.0,0.0,0.0,0.024,0.0687,0.1142,0.1181,0.0751,0.0715,0.0497,0.0,0.0,0.0,0.0,0.0,0.0,0.0,0.0,0.0,0.0,0.0,0.0,0.0,0.0,0.0,0.0,0.0,0.0,0.0,0.0,0.0,0.0,0.0,0.0,0.0,0.0,0.0,0.0,0.0,0.0,0.0,0.0,0.0,0.0,0.0,0.0,0.0,0.0,0.0,0.0,0.0,0.0,0.0,0.0,0.0,0.0,0.0,0.0,0.0,0.0,0.0,0.0,0.0,0.0,0.0,0.0,0.0,0.0,0.0,0.0,0.0,0.0,0.0,0.0,0.0,0.0,0.0,0.0,0.0,0.0,0.0,0.0,0.0,0.0,0.0,0.0,0.0,0.0,0.0,0.0,0.0,0.0,0.0,0.0,0.0,0.0,0.0,0.0,0.0,0.0,0.0,0.0,0.0,0.0,0.0,0.0,0.0,0.0,0.0,0.0,0.0,0.0,0.0,0.0,0.0,0.0,0.0,0.0,0.0,0.0844,0.1291,0.1768,0.2221,0.1244,0.0942,0.0,0.0,0.0,0.0,0.0,0.0,0.0,0.0,0.0,0.0,0.0,0.0,0.0,0.0,0.0,0.0,0.0,0.0,0.0,0.0,0.0,0.0,0.0,0.0,0.0,0.0,0.0,0.0,0.0,0.0,0.0,0.0,0.0,0.0,0.0,0.0,0.0,0.0,0.0,0.0,0.0,0.0,0.0,0.0,0.0,0.0,0.0,0.0,0.0,0.0,0.0,0.0,0.0,0.0,0.0,0.0,0.0,0.0,0.0,0.0,0.0,0.0,0.0,0.0,0.0,0.0,0.0,0.0,0.0,0.0,0.0,0.0,0.0,0.0,0.0,0.0,0.0,0.0,0.0,0.0,0.0,0.0,0.0,0.0,0.0,0.0,0.0,0.0,0.0,0.0,0.0,0.0,0.0,0.0,0.0,0.0,0.0,0.0,0.0,0.0,0.0,0.0,0.0,0.0,0.0,0.0,0.0,0.0,0.0,0.1198,0.1838,0.2399,0.2797,0.1696,0.1257,0.155,0.0,0.0,0.0,0.0,0.0,0.0,0.0,0.0,0.0,0.0,0.0,0.0,0.0,0.0,0.0,0.0,0.0,0.0,0.0,0.0,0.0,0.0,0.0,0.0,0.0,0.0,0.0,0.0,0.0,0.0,0.0,0.0,0.0,0.0,0.0,0.0,0.0,0.0,0.0,0.0,0.0,0.0,0.0,0.0,0.0,0.0,0.0,0.0,0.0,0.0,0.0,0.0,0.0,0.0,0.0,0.0,0.0,0.0,0.0,0.0,0.0,0.0,0.0,0.0,0.0,0.0,0.0,0.0,0.0,0.0,0.0,0.0,0.0,0.0,0.0,0.0,0.0,0.0,0.0,0.0,0.0,0.0,0.0,0.0,0.0,0.0,0.0,0.0,0.0,0.0,0.0,0.0,0.0,0.0,0.0,0.0,0.0,0.0,0.0,0.0,0.0,0.0,0.0,0.0,0.0,0.0,0.0,0.0,0.1616,0.2599,0.29,0.2502,0.1992,0.1422,0.0,0.0,0.0,0.0,0.0,0.0,0.0,0.0,0.0,0.0,0.0,0.0,0.0,0.0,0.0,0.0,0.0,0.0,0.0,0.0,0.0,0.0,0.0,0.0,0.0,0.0,0.0,0.0,0.0,0.0,0.0,0.0,0.0,0.0,0.0,0.0,0.0,0.0,0.0,0.0,0.0,0.0,0.0,0.0,0.0,0.0,0.0,0.0,0.0,0.0,0.0,0.0,0.0,0.0,0.0,0.0,0.0,0.0,0.0,0.0,0.0,0.0,0.0,0.0,0.0,0.0,0.0,0.0,0.0,0.0,0.0,0.0,0.0,0.0,0.0,0.0,0.0,0.0,0.0,0.0,0.0,0.0,0.0,0.0,0.0,0.0,0.0,0.0,0.0,0.0,0.0,0.0,0.0,0.0,0.0,0.0,0.0,0.0,0.0,0.0,0.0,0.0,0.0,0.0,0.0,0.0,0.0,0.0,0.0,0.1755,0.202,0.2178,0.2178,0.1512,0.1185,0.0,0.0,0.0,0.0,0.0,0.0,0.0,0.0,0.0,0.0,0.0,0.0,0.0,0.0,0.0,0.0,0.0,0.0,0.0,0.0,0.0,0.0,0.0,0.0,0.0,0.0,0.0,0.0,0.0,0.0,0.0,0.0,0.0,0.0,0.0,0.0,0.0,0.0,0.0,0.0,0.0,0.0,0.0,0.0,0.0,0.0,0.0,0.0,0.0,0.0,0.0,0.0,0.0,0.0,0.0,0.0,0.0,0.0,0.0,0.0,0.0,0.0,0.0,0.0,0.0,0.0,0.0,0.0,0.0,0.0,0.0,0.0,0.0,0.0,0.0,0.0,0.0,0.0,0.0,0.0,0.0,0.0,0.0,0.0,0.0,0.0,0.0,0.0,0.0,0.0,0.0,0.0,0.0,0.0,0.0,0.0,0.0,0.0,0.0,0.0,0.0,0.0,0.0,0.0,0.0,0.0,0.0,0.0,0.1173,0.1317,0.125,0.1261,0.1371,0.1229,0.1233,0.0,0.0,0.0,0.0,0.0,0.0,0.0,0.0,0.0,0.0,0.0,0.0,0.0,0.0,0.0,0.0,0.0,0.0,0.0,0.0,0.0,0.0,0.0,0.0,0.0,0.0,0.0,0.0,0.0,0.0,0.0,0.0,0.0,0.0,0.0,0.0,0.0,0.0,0.0,0.0,0.0,0.0,0.0,0.0,0.0,0.0,0.0,0.0,0.0,0.0,0.0,0.0,0.0,0.0,0.0,0.0,0.0,0.0,0.0,0.0,0.0,0.0,0.0,0.0,0.0,0.0,0.0,0.0,0.0,0.0,0.0,0.0,0.0,0.0,0.0,0.0,0.0,0.0,0.0,0.0,0.0,0.0,0.0,0.0,0.0,0.0,0.0,0.0,0.0,0.0,0.0,0.0,0.0,0.0,0.0,0.0,0.0,0.0,0.0,0.0,0.0,0.0,0.0,0.0,0.0,0.0,0.0,0.0,0.0707,0.0685,0.0504,0.0428,0.0491,0.109,0.1369,0.0,0.0,0.0,0.0,0.0,0.0,0.0,0.0,0.0,0.0,0.0,0.0,0.0,0.0,0.0,0.0,0.0,0.0,0.0,0.0,0.0,0.0,0.0,0.0,0.0,0.0,0.0,0.0,0.0,0.0,0.0,0.0,0.0,0.0,0.0,0.0,0.0,0.0,0.0,0.0,0.0,0.0,0.0,0.0,0.0,0.0,0.0,0.0,0.0,0.0,0.0,0.0,0.0,0.0,0.0,0.0,0.0,0.0,0.0,0.0,0.0,0.0,0.0,0.0,0.0,0.0,0.0,0.0,0.0,0.0,0.0,0.0,0.0,0.0,0.0,0.0,0.0,0.0,0.0,0.0,0.0,0.0,0.0,0.0,0.0,0.0,0.0,0.0,0.0,0.0,0.0,0.0,0.0,0.0,0.0,0.0,0.0,0.0,0.0,0.0,0.0,0.0,0.0,0.0,0.0,0.0,0.0,0.0,0.0776,0.0469,0.0528,0.0663,0.0857,0.0938,0.0937,0.0,0.0,0.0,0.0,0.0,0.0,0.0,0.0,0.0,0.0,0.0,0.0,0.0,0.0,0.0,0.0,0.0,0.0,0.0,0.0,0.0,0.0,0.0,0.0,0.0,0.0,0.0,0.0,0.0,0.0,0.0,0.0,0.0,0.0,0.0,0.0,0.0,0.0,0.0,0.0,0.0,0.0,0.0,0.0,0.0,0.0,0.0,0.0,0.5514,0.0,0.0,0.0,0.0,0.0,0.0,0.0,0.0,0.0,0.0,0.0,0.0,0.0,0.0,0.0,0.0,0.0,0.0,0.0,0.0,0.0,0.0,0.0,0.0,0.0,0.0,0.0,0.0,0.0,0.0,0.0,0.0,0.0,0.0,0.0,0.0,0.0,0.0,0.0,0.0,0.0,0.0,0.0,0.0,0.0,0.0,0.0,0.0,0.0,0.0,0.0,0.0,0.0,0.0,0.0,0.0,0.0,0.0,0.0,0.0658,0.0222,0.0403,0.0598,0.0856,0.0822,0.0835,0.0,0.0,0.0,0.0,0.0,0.0,0.0,0.0,0.0,0.0,0.0,0.0,0.0,0.0,0.0,0.0,0.0,0.0,0.0,0.0,0.0,0.0,0.0,0.0,0.0,0.0,0.0,0.0,0.0,0.0,0.0,0.0,0.0,0.0,0.0,0.0,0.0,0.0,0.0,0.0,0.0,0.0,0.0,0.0,0.0,0.0,0.0,0.0,0.0,0.0,0.0,0.0,0.0,0.0,0.0,0.0,0.0,0.0,0.0,0.0,0.0,0.0,0.0,0.0,0.0,0.0,0.0,0.0,0.0,0.0,0.0,0.0,0.0,0.0,0.0,0.0,0.0,0.0,0.0,0.0,0.0,0.0,0.0,0.0,0.0,0.0,0.0,0.0,0.0,0.0,0.0,0.0,0.0,0.0,0.0,0.0,0.0,0.0,0.0,0.0,0.0,0.0,0.0,0.0,0.0,0.0,0.0,0.0698,0.0471,0.0095,0.031,0.0522,0.0728,0.0784,0.0898,0.1098,0.0,0.0,0.0,0.0,0.0,0.0,0.0,0.0,0.0,0.0,0.0,0.0,0.0,0.0,0.0,0.0,0.0,0.0,0.0,0.0,0.0,0.0,0.0,0.0,0.0,0.0,0.0,0.0,0.0,0.0,0.0,0.0,0.0,0.0,0.0,0.0,0.0,0.0,0.4423,0.4841,0.0,0.0,0.0,0.0,0.0,0.0,0.0,0.0,0.5645,0.0,0.0,0.0,0.0,0.0,0.0,0.0,0.0,0.0,0.0,0.0,0.0,0.0,0.0,0.0,0.0,0.0,0.0,0.0,0.0,0.0,0.0,0.0,0.0,0.0,0.0,0.0,0.0,0.0,0.0,0.0,0.0,0.0,0.0,0.0,0.0,0.0,0.0,0.0,0.0,0.0,0.0,0.0,0.0,0.0,0.0,0.0,0.0,0.0,0.0,0.0,0.0,0.0,0.0,0.0,0.0,0.0152,0.0398,0.0462,0.034,0.048,0.068,0.095,0.084,0.0891,0.1082,0.0,0.0,0.0,0.0,0.0,0.0,0.0,0.0,0.0,0.0,0.0,0.0,0.0,0.0,0.0,0.0,0.0,0.0,0.0,0.0,0.0,0.0,0.0,0.0,0.0,0.0,0.0,0.0,0.0,0.0,0.0,0.0,0.0,0.0,0.0,0.0,0.0,0.0,0.0,0.4787,0.5119,0.0,0.0,0.0,0.0,0.0,0.0,0.0,0.0,0.6037,0.0,0.0,0.0,0.0,0.0,0.0,0.0,0.0,0.0,0.0,0.0,0.0,0.0,0.0,0.0,0.0,0.0,0.0,0.0,0.0,0.0,0.0,0.0,0.0,0.0,0.0,0.0,0.0,0.0,0.0,0.0,0.0,0.0,0.0,0.0,0.0,0.0,0.0,0.0,0.0,0.0,0.0,0.0,0.0,0.0,0.0,0.0,0.0,0.0,0.0,0.0,0.0,0.0,0.0,0.0,0.0231,0.0226,0.0225,0.0208,0.0255,0.0442,0.0771,0.0666,0.0743,0.0,0.0,0.0,0.0,0.0,0.0,0.0,0.0,0.0,0.0,0.0,0.0,0.0,0.0,0.0,0.0,0.0,0.0,0.0,0.0,0.0,0.0,0.0,0.0,0.0,0.0,0.0,0.0,0.0,0.0,0.0,0.0,0.0,0.0,0.0,0.0,0.0,0.0,0.0,0.0,0.4807,0.5078,0.4918,0.0,0.0,0.0,0.0,0.0,0.0,0.6099,0.6189,0.0,0.0,0.0,0.0,0.0,0.0,0.0,0.0,0.0,0.0,0.0,0.0,0.0,0.0,0.0,0.0,0.0,0.0,0.0,0.0,0.0,0.0,0.0,0.0,0.0,0.0,0.0,0.0,0.0,0.0,0.0,0.0,0.0,0.0,0.0,0.0,0.0,0.0,0.0,0.0,0.0,0.0,0.0,0.0,0.0,0.0,0.0,0.0,0.0,0.0,0.0,0.0,0.0,0.0,0.0,0.0355,0.0146,0.0035,0.0,0.0038,0.0234,0.0568,0.0499,0.0651,0.0,0.0,0.0,0.0,0.0,0.0,0.0,0.0,0.0,0.0,0.0,0.0,0.0,0.0,0.0,0.0,0.0,0.0,0.0,0.0,0.0,0.0,0.0,0.0,0.0,0.0,0.0,0.0,0.0,0.0,0.0,0.0,0.0,0.0,0.0,0.0,0.0,0.0,0.0,0.0,0.0,0.5062,0.5023,0.5382,0.0,0.0,0.0,0.0,0.5975,0.6211,0.0,0.0,0.0,0.0,0.0,0.0,0.0,0.0,0.0,0.0,0.0,0.0,0.0,0.0,0.0,0.0,0.0,0.0,0.0,0.0,0.0,0.0,0.0,0.0,0.0,0.0,0.0,0.0,0.0,0.0,0.0,0.0,0.0,0.0,0.0,0.0,0.0,0.0,0.0,0.0,0.0,0.0,0.0,0.0,0.0,0.0,0.0,0.0,0.0,0.0,0.0,0.0,0.0,0.0,0.0,0.0,0.0231,0.0175,0.0117,0.0,0.0186,0.0332,0.0502,0.0612,0.0748,0.0,0.0,0.0,0.0,0.0,0.0,0.0,0.0,0.0,0.0,0.0,0.0,0.0,0.0,0.0,0.0,0.0,0.0,0.0,0.0,0.0,0.0,0.0,0.0,0.0,0.0,0.0,0.0,0.0,0.0,0.0,0.0,0.0,0.0,0.0,0.0,0.0,0.0,0.0,0.0,0.0,0.5171,0.532,0.5627,0.5872,0.0,0.0,0.6128,0.6172,0.6299,0.0,0.0,0.0,0.0,0.0,0.0,0.0,0.0,0.0,0.0,0.0,0.0,0.0,0.0,0.0,0.0,0.0,0.0,0.0,0.0,0.0,0.0,0.0,0.0,0.0,0.0,0.0,0.0,0.0,0.0,0.0,0.0,0.0,0.0,0.0,0.0,0.0,0.0,0.0,0.0,0.0,0.0,0.0,0.0,0.0,0.0,0.0,0.0,0.0,0.0,0.0,0.0,0.0,0.0,0.0,0.0348,0.02,0.0125,0.0065,0.0,0.0071,0.0245,0.0489,0.0523,0.0813,0.0,0.0,0.0,0.0,0.0,0.0,0.0,0.0,0.0,0.0,0.0,0.0,0.0,0.0,0.0,0.0,0.0,0.0,0.0,0.0,0.0,0.0,0.0,0.0,0.0,0.0,0.0,0.0,0.0,0.0,0.0,0.0,0.0,0.0,0.0,0.0,0.0,0.0,0.0,0.0,0.0,0.0,0.5228,0.5685,0.0,0.0,0.0,0.6569,0.6456,0.0,0.0,0.0,0.0,0.0,0.0,0.0,0.0,0.0,0.0,0.0,0.0,0.0,0.0,0.0,0.0,0.0,0.0,0.0,0.0,0.0,0.0,0.0,0.0,0.0,0.0,0.0,0.0,0.0,0.0,0.0,0.0,0.0,0.0,0.0,0.0,0.0,0.0,0.0,0.0,0.0,0.0,0.0,0.0,0.0,0.0,0.0,0.0,0.0,0.0,0.0,0.0,0.0,0.0,0.0,0.0,0.0,0.02,0.0077,0.0,0.0,0.0085,0.0234,0.0462,0.0522,0.0,0.0,0.0,0.0,0.0,0.0,0.0,0.0,0.0,0.0,0.0,0.0,0.0,0.0,0.0,0.0,0.0,0.0,0.0,0.0,0.0,0.0,0.0,0.0,0.0,0.0,0.0,0.4491,0.0,0.0,0.0,0.0,0.0,0.0,0.0,0.0,0.0,0.0,0.0,0.0,0.0,0.0,0.5409,0.5293,0.5745,0.6062,0.0,0.0,0.6875,0.661,0.6821,0.6961,0.0,0.0,0.0,0.0,0.0,0.0,0.0,0.0,0.0,0.0,0.0,0.0,0.0,0.0,0.0,0.0,0.0,0.0,0.0,0.0,0.0,0.0,0.0,0.0,0.0,0.0,0.0,0.0,0.0,0.0,0.0,0.0,0.0,0.0,0.0,0.0,0.0,0.0,0.0,0.0,0.0,0.0,0.0,0.0,0.0,0.0,0.0,0.0,0.0,0.0,0.0,0.0,0.0,0.0,0.0,0.02,0.0077,0.0,0.0,0.0304,0.0444,0.042,0.0758,0.1229,0.0,0.0,0.0,0.0,0.0,0.0,0.0,0.0,0.0,0.0,0.0,0.0,0.0,0.0,0.0,0.0,0.0,0.0,0.0,0.0,0.0,0.0,0.0,0.0,0.0,0.0,0.0,0.0,0.0,0.0,0.0,0.0,0.0,0.0,0.0,0.0,0.0,0.0,0.0,0.0,0.0,0.5621,0.5724,0.5955,0.6154,0.0,0.0,0.6787,0.645,0.6852,0.7015,0.6491,0.0,0.0,0.0,0.0,0.0,0.0,0.0,0.0,0.0,0.0,0.0,0.0,0.0,0.0,0.0,0.0,0.0,0.0,0.0,0.0,0.0,0.0,0.0,0.0,0.0,0.0,0.0,0.0,0.0,0.0,0.0,0.0,0.0,0.0,0.0,0.0,0.0,0.0,0.0,0.0,0.0,0.0,0.0,0.0,0.0,0.0,0.0,0.0,0.0,0.0,0.0,0.0,0.0,0.0159,0.0077,0.0031,0.0064,0.0185,0.032,0.0459,0.0587,0.1095,0.1721,0.0,0.0,0.0,0.0,0.0,0.0,0.0,0.0,0.0,0.0,0.0,0.0,0.0,0.0,0.0,0.0,0.0,0.0,0.0,0.0,0.0,0.0,0.0,0.0,0.0,0.0,0.0,0.0,0.4491,0.4552,0.4677,0.0,0.0,0.0,0.0,0.0,0.0,0.0,0.0,0.0,0.0,0.5987,0.5816,0.6108,0.0,0.0,0.6568,0.682,0.6563,0.6901,0.7094,0.6768,0.6947,0.0,0.0,0.0,0.0,0.0,0.0,0.0,0.0,0.0,0.0,0.0,0.0,0.0,0.0,0.0,0.0,0.0,0.0,0.0,0.0,0.0,0.0,0.0,0.0,0.0,0.0,0.0,0.0,0.0,0.0,0.0,0.0,0.0,0.0,0.0,0.0,0.0,0.0,0.0,0.0,0.0,0.0,0.0,0.0,0.0,0.0,0.0,0.0,0.0,0.0,0.0,0.0,0.0087,0.0,0.0,0.0095,0.0303,0.0337,0.0459,0.0697,0.1172,0.1874,0.0,0.0,0.0,0.0,0.0,0.0,0.0,0.0,0.0,0.0,0.0,0.0,0.0,0.0,0.0,0.0,0.0,0.0,0.0,0.0,0.0,0.0,0.0,0.0,0.0,0.0,0.0,0.0,0.4518,0.4719,0.4809,0.0,0.0,0.0,0.0,0.0,0.0,0.0,0.0,0.0,0.0,0.5844,0.5865,0.6185,0.639,0.6206,0.6566,0.6832,0.6694,0.6915,0.7061,0.6928,0.0,0.0,0.0,0.0,0.0,0.0,0.0,0.0,0.0,0.0,0.0,0.0,0.0,0.0,0.0,0.0,0.0,0.0,0.0,0.0,0.0,0.0,0.0,0.0,0.0,0.0,0.0,0.3998,0.0,0.0,0.42,0.0,0.0,0.0,0.0,0.0,0.0,0.0,0.0,0.0,0.0,0.0,0.0,0.0,0.0,0.0,0.0,0.0,0.0,0.0,0.0,0.0,0.0,0.0,0.0,0.0,0.0095,0.0286,0.0438,0.0574,0.0697,0.0911,0.1543,0.2695,0.0,0.0,0.0,0.0,0.0,0.0,0.0,0.0,0.0,0.0,0.0,0.0,0.0,0.0,0.0,0.0,0.0,0.0,0.0,0.0,0.0,0.0,0.0,0.0,0.0,0.0,0.3795,0.4572,0.5076,0.0,0.0,0.0,0.0,0.0,0.0,0.0,0.0,0.0,0.0,0.4751,0.5127,0.5896,0.6178,0.6377,0.6553,0.6708,0.6806,0.6855,0.6897,0.6904,0.0,0.0,0.0,0.0,0.0,0.0,0.0,0.0,0.0,0.0,0.0,0.0,0.0,0.0,0.0,0.0,0.0,0.0,0.0,0.0,0.0,0.0,0.0,0.0,0.0,0.0,0.0,0.4327,0.4327,0.0,0.0,0.0,0.0,0.0,0.0,0.0,0.0,0.0,0.0,0.0,0.2279,0.1815,0.0,0.0,0.0,0.0,0.0,0.0,0.0,0.0,0.0,0.0,0.0,0.0,0.0,0.0,0.0,0.0143,0.0437,0.0489,0.0612,0.0908,0.1356,0.2174,0.3395,0.0,0.0,0.0,0.0,0.0,0.0,0.0,0.0,0.0,0.0,0.0,0.0,0.0,0.0,0.0,0.0,0.0,0.0,0.0,0.0,0.0,0.0,0.0,0.0,0.0,0.3223,0.0,0.0,0.0,0.0,0.0,0.0,0.0,0.0,0.0,0.0,0.0,0.4004,0.4667,0.4917,0.5327,0.6101,0.6328,0.6425,0.0,0.0,0.0,0.0,0.0,0.0,0.0,0.0,0.0,0.0,0.0,0.0,0.0,0.0,0.7974,0.8002,0.843,0.8806,0.882,0.0,0.0,0.0,0.0,0.0,0.0,0.0,0.0,0.0,0.0,0.0,0.0,0.0,0.0,0.4438,0.0,0.4432,0.0,0.0,0.0,0.0,0.0,0.0,0.0,0.0,0.1574,0.1247,0.1488,0.105,0.0843,0.0,0.085,0.0859,0.0,0.0,0.0,0.0,0.0,0.0,0.0,0.0,0.0,0.0,0.0,0.0159,0.0471,0.0489,0.0665,0.1002,0.1583,0.2327,0.3181,0.3876,0.4284,0.0,0.0,0.0,0.0,0.0,0.0,0.0,0.0,0.0,0.0,0.0,0.0,0.0,0.0,0.0,0.0,0.0,0.0,0.0,0.0,0.0,0.0,0.0,0.2675,0.0,0.0,0.0,0.0,0.0,0.0,0.0,0.0,0.0,0.3616,0.3309,0.3313,0.3912,0.4142,0.4639,0.5702,0.0,0.0,0.0,0.0,0.0,0.0,0.0,0.6644,0.6743,0.6869,0.6998,0.7059,0.7075,0.7116,0.7281,0.0,0.0,0.7377,0.7923,0.8392,0.8392,0.8717,0.9028,0.9203,0.9101,0.9065,0.0,0.0,0.0,0.0,0.0,0.0,0.0,0.0,0.4188,0.4271,0.0,0.4201,0.0,0.0,0.0,0.0,0.3336,0.2726,0.0,0.0,0.058,0.0189,0.0211,0.0083,0.0,0.0,0.0,0.0,0.0,0.0141,0.0,0.0,0.0,0.0,0.0,0.0,0.0,0.0,0.0,0.0175,0.0471,0.0489,0.0665,0.0986,0.1584,0.1969,0.2116,0.2715,0.3011,0.3029,0.3398,0.0,0.0,0.0,0.0,0.0,0.0,0.0,0.0,0.0,0.0,0.0,0.0,0.0,0.0,0.0,0.0,0.0,0.0,0.0,0.0,0.2154,0.0,0.0,0.0,0.0,0.0,0.0,0.0,0.0,0.0,0.0,0.2312,0.2294,0.2332,0.2501,0.0,0.0,0.0,0.0,0.5373,0.6294,0.6458,0.6569,0.687,0.6771,0.6716,0.6936,0.0,0.0,0.6978,0.6992,0.7133,0.7574,0.7443,0.7263,0.7208,0.7501,0.7804,0.7812,0.7959,0.8016,0.8008,0.811,0.8274,0.3112,0.0,0.0,0.0,0.0,0.4383,0.4394,0.4299,0.3892,0.3681,0.3598,0.3032,0.0,0.0,0.0,0.0,0.0,0.0,0.1461,0.1131,0.0486,0.015,0.0051,0.0018,0.0,0.0,0.0,0.0,0.0,0.0033,0.0032,0.0,0.0,0.0,0.0,0.0,0.0,0.0,0.0,0.0114,0.0371,0.0354,0.0515,0.084,0.1439,0.1868,0.2092,0.2672,0.3037,0.3142,0.3253,0.0,0.0,0.0,0.0,0.0,0.0,0.0,0.0,0.0,0.0,0.0,0.0,0.0,0.0,0.0,0.0,0.0,0.0,0.0,0.1476,0.1899,0.2002,0.0,0.0,0.0,0.0,0.0,0.0,0.0,0.0,0.0,0.1654,0.1594,0.1806,0.0,0.0,0.3188,0.4923,0.5182,0.5306,0.5588,0.5635,0.0,0.5764,0.5752,0.5942,0.6674,0.6811,0.6895,0.7058,0.6993,0.6967,0.7119,0.7104,0.7076,0.7086,0.7256,0.7518,0.7682,0.7762,0.7793,0.7793,0.7892,0.802,0.1885,0.2288,0.3,0.3337,0.3413,0.349,0.3505,0.3413,0.3061,0.2903,0.2833,0.2348,0.2191,0.232,0.223,0.0,0.0,0.0,0.102,0.0635,0.0292,0.0071,0.0,0.0,0.0,0.0,0.0,0.0,0.0,0.0,0.0,0.0,0.0,0.0,0.0,0.0,0.0,0.0,0.0,0.01,0.0295,0.0344,0.049,0.0691,0.1116,0.1427,0.1575,0.2015,0.2291,0.2363,0.2365,0.2501,0.0,0.0,0.0,0.0,0.0,0.0,0.0,0.0,0.0,0.0,0.0,0.1035,0.1035,0.0,0.0,0.0,0.1128,0.1151,0.1182,0.1571,0.0,0.0,0.0,0.0,0.0,0.0,0.0,0.1975,0.2004,0.1895,0.1382,0.131,0.1512,0.1963,0.2045,0.259,0.3971,0.0,0.4369,0.4746,0.4817,0.4956,0.5384,0.5456,0.5798,0.6722,0.6924,0.7012,0.7075,0.7024,0.7017,0.7112,0.7086,0.7084,0.7172,0.7215,0.7342,0.7664,0.7802,0.7869,0.7869,0.8002,0.8094,0.0837,0.089,0.1698,0.208,0.2186,0.219,0.2122,0.2006,0.1959,0.2023,0.2101,0.1912,0.2017,0.2278,0.2106,0.0,0.1006,0.1019,0.0637,0.0,0.0,0.0,0.0,0.0,0.0,0.0,0.0,0.0,0.0,0.0,0.0,0.0,0.0,0.0,0.0,0.0,0.0,0.0,0.0,0.0104,0.0273,0.0392,0.0451,0.0491,0.0659,0.0793,0.0809,0.0993,0.1092,0.1092,0.1092,0.138,0.1965,0.0,0.0,0.0,0.0,0.0,0.0,0.0,0.0,0.0,0.0,0.0,0.0,0.0,0.0,0.0,0.1208,0.0,0.12,0.1204,0.0,0.0,0.0,0.1306,0.1306,0.131,0.1306,0.1306,0.0,0.0,0.1309,0.1354,0.1363,0.1316,0.1313,0.1628,0.2504,0.2678,0.2972,0.388,0.3998,0.4354,0.5122,0.5498,0.5985,0.6892,0.7117,0.7088,0.7117,0.7114,0.7209,0.7382,0.7253,0.7177,0.7411,0.7258,0.7231,0.768,0.7915,0.8064,0.805,0.8188,0.8298,0.0225,0.0228,0.0445,0.1106,0.2046,0.2103,0.2109,0.2043,0.1631,0.1418,0.1327,0.074,0.0515,0.0589,0.0552,0.0422,0.0259,0.0265,0.0165,0.0,0.0,0.0,0.0,0.0,0.0,0.0,0.0,0.0,0.0,0.0,0.0,0.0,0.0,0.0,0.0,0.0,0.0,0.0,0.0,0.0036,0.0055,0.0109,0.0178,0.033,0.0382,0.0533,0.0793,0.0843,0.0942,0.1092,0.1092,0.1182,0.1391,0.1301,0.0,0.0,0.0,0.0,0.0,0.0,0.0,0.0,0.0,0.1192,0.1173,0.0,0.1184,0.0,0.1246,0.1277,0.129,0.1274,0.0,0.0,0.1312,0.1316,0.1316,0.1323,0.1306,0.1306,0.1345,0.138,0.138,0.1384,0.14,0.1393,0.137,0.1712,0.2612,0.2818,0.2917,0.3129,0.3176,0.3272,0.3642,0.4805,0.6008,0.6944,0.7095,0.7117,0.7117,0.7117,0.7117,0.7187,0.7165,0.7139,0.7187,0.7139,0.7209,0.7446,0.7664,0.7831,0.7923,0.8116,0.8292,0.0,0.0,0.0,0.0424,0.1126,0.1158,0.1154,0.1133,0.085,0.0678,0.0584,0.019,0.0,0.0,0.0,0.0,0.0,0.0,0.0,0.0,0.0,0.0,0.0,0.0,0.0,0.0,0.0,0.0,0.0,0.0,0.0,0.0,0.0,0.0,0.0,0.0,0.0,0.0,0.0,0.0,0.0,0.0,0.0055,0.0178,0.0339,0.0478,0.0576,0.0838,0.0978,0.1011,0.1073,0.1137,0.1181,0.1229,0.1247,0.0,0.0,0.0,0.0,0.0,0.0,0.0,0.0,0.0,0.0,0.0,0.1252,0.1246,0.1278,0.1311,0.1303,0.1306,0.1306,0.1306,0.1337,0.1345,0.1345,0.1335,0.1343,0.1344,0.1379,0.141,0.1411,0.1402,0.1413,0.1413,0.1413,0.1607,0.2056,0.2203,0.2219,0.224,0.2218,0.2419,0.2822,0.4472,0.5855,0.6387,0.683,0.7117,0.7117,0.7117,0.7117,0.7117,0.7117,0.7117,0.7117,0.7117,0.7151,0.7267,0.7413,0.7606,0.7739,0.7894,0.7984,0.0,0.0,0.0,0.0,0.0,0.0,0.0,0.0,0.0,0.0,0.0,0.0,0.0,0.0,0.0,0.0,0.0,0.0,0.0,0.0,0.0,0.0,0.0,0.0,0.0,0.0,0.0,0.0,0.0,0.0,0.0,0.0,0.0,0.0,0.0,0.0,0.0,0.0,0.0,0.0,0.0,0.0,0.0,0.0,0.033,0.0457,0.0328,0.0838,0.1056,0.091,0.1046,0.113,0.1188,0.1264,0.1274,0.0,0.1227,0.0,0.0,0.0,0.0,0.0,0.0,0.0,0.0,0.1313,0.1321,0.1309,0.1311,0.1313,0.1316,0.1317,0.1316,0.1317,0.1359,0.1396,0.1397,0.1398,0.1413,0.1413,0.1413,0.1413,0.1412,0.1413,0.1413,0.1413,0.1413,0.1435,0.1412,0.1457,0.148,0.1413,0.1413,0.1837,0.2823,0.436,0.5519,0.5764,0.652,0.7095,0.7117,0.7117,0.7117,0.7117,0.7117,0.7117,0.7117,0.7117,0.7117,0.7131,0.7248,0.7409,0.7544,0.7627,0.7684,0.0,0.0,0.0,0.0,0.0,0.0,0.0,0.0,0.0,0.0,0.0,0.0,0.0,0.0,0.0,0.0,0.0,0.0,0.0,0.0,0.0,0.0,0.0,0.0,0.0,0.0,0.0,0.0,0.0,0.0,0.0,0.0,0.0,0.0,0.0,0.0,0.0,0.0,0.0,0.0,0.0,0.0,0.0,0.0,0.0056,0.0,0.031,0.0565,0.0765,0.0911,0.1083,0.0,0.0,0.0,0.0,0.0,0.0,0.0,0.0,0.0,0.0,0.0,0.1284,0.1283,0.131,0.1315,0.133,0.1379,0.1382,0.1371,0.1372,0.1374,0.1374,0.1375,0.1401,0.1404,0.1404,0.141,0.1413,0.1413,0.1413,0.1413,0.1413,0.1413,0.1413,0.1413,0.1413,0.1413,0.1413,0.1413,0.1413,0.1413,0.1413,0.1771,0.2732,0.3868,0.4914,0.5561,0.6476,0.7051,0.7117,0.7117,0.7117,0.7117,0.7117,0.7117,0.7117,0.7117,0.7117,0.7117,0.7122,0.7241,0.7458,0.7572,0.7633,0.0,0.0,0.0,0.0,0.0,0.0,0.0,0.0,0.0,0.0,0.0,0.0,0.0,0.0,0.0,0.0,0.0,0.0,0.0,0.0,0.0,0.0,0.0,0.0,0.0,0.0,0.0,0.0,0.0,0.0,0.0,0.0,0.0,0.0,0.0,0.0,0.0,0.0,0.0,0.0,0.0,0.0,0.0,0.0,0.0096,0.0,0.0,0.0,0.0,0.0,0.0,0.0,0.0,0.1286,0.0,0.1302,0.1304,0.131,0.1304,0.1306,0.1311,0.1346,0.134,0.1363,0.1349,0.1361,0.1353,0.141,0.1412,0.1396,0.1411,0.1413,0.1413,0.1413,0.1413,0.1413,0.1413,0.1413,0.1413,0.1413,0.1413,0.1413,0.1413,0.1413,0.1413,0.1413,0.1413,0.1413,0.1413,0.1413,0.1413,0.1413,0.1413,0.1771,0.2732,0.369,0.4625,0.5542,0.6473,0.7029,0.7117,0.7117,0.7117,0.7117,0.7117,0.7117,0.7117,0.7117,0.7117,0.7117,0.7117,0.7139,0.7282,0.7336,0.7403,0.0,0.0,0.0,0.0,0.0,0.0,0.0,0.0,0.0,0.0,0.0,0.0,0.0,0.0,0.0,0.0,0.0,0.0,0.0,0.0,0.0,0.0,0.0,0.0,0.0,0.0,0.0,0.0,0.0,0.0,0.0,0.0,0.0,0.0,0.0,0.0,0.0,0.0,0.0,0.0,0.0,0.0,0.0,0.0,0.0158,0.0178,0.002,0.0357,0.0557,0.0557,0.1032,0.1281,0.1247,0.1296,0.1311,0.1334,0.1313,0.1315,0.1321,0.1321,0.1331,0.1396,0.1399,0.1402,0.14,0.1399,0.1413,0.1413,0.1413,0.1413,0.1413,0.1413,0.1413,0.1413,0.1413,0.1413,0.1413,0.1413,0.1413,0.1413,0.1413,0.1413,0.1413,0.1413,0.1413,0.1413,0.1413,0.1413,0.1413,0.1413,0.1413,0.1413,0.1413,0.1749,0.2755,0.3823,0.4736,0.5564,0.6473,0.7073,0.7117,0.7117,0.7117,0.7117,0.7117,0.7117,0.7117,0.7117,0.7117,0.7117,0.7117,0.7117,0.7117,0.7121,0.7168,0.0,0.0,0.0,0.0,0.0,0.0,0.0,0.0,0.0,0.0,0.0,0.0,0.0,0.0,0.0,0.0,0.0,0.0,0.0,0.0,0.0,0.0,0.0,0.0,0.0,0.0,0.0,0.0,0.0,0.0,0.0,0.0,0.0,0.0,0.0,0.0,0.0,0.0,0.0,0.0,0.0,0.0,0.0,0.0,0.0,0.002,0.0,0.0206,0.0354,0.0354,0.0947,0.1215,0.1068,0.1255,0.1397,0.1405,0.1384,0.1374,0.1376,0.1378,0.1402,0.1406,0.141,0.1411,0.1407,0.141,0.1413,0.1413,0.1413,0.1413,0.1413,0.1413,0.1413,0.1413,0.1413,0.1413,0.1413,0.1413,0.1413,0.1413,0.1413,0.1413,0.1413,0.1413,0.1413,0.1413,0.1413,0.1413,0.1413,0.1413,0.1413,0.1413,0.1413,0.1838,0.2888,0.4133,0.5156,0.563,0.6517,0.7117,0.7117,0.7117,0.7117,0.7117,0.7117,0.7117,0.7117,0.7117,0.7117,0.7117,0.7117,0.7117,0.7117,0.7117,0.7105,0.0,0.0,0.0,0.0,0.0,0.0,0.0,0.0,0.0,0.0,0.0,0.0,0.0,0.0,0.0,0.0,0.0,0.0,0.0,0.0,0.0,0.0,0.0,0.0,0.0,0.0,0.0,0.0,0.0,0.0,0.0,0.0,0.0,0.0,0.0,0.0,0.0,0.0,0.0,0.0,0.0,0.0,0.0,0.0,0.0,0.0,0.0,0.0084,0.019,0.0295,0.0485,0.0678,0.0835,0.0894,0.0947,0.1016,0.1017,0.1088,0.1233,0.1346,0.1413,0.1413,0.1413,0.1413,0.1413,0.1413,0.1413,0.1413,0.1413,0.1413,0.1413,0.1413,0.1413,0.1413,0.1413,0.1413,0.1413,0.1413,0.1413,0.1413,0.1413,0.1413,0.1413,0.1413,0.1413,0.1413,0.1413,0.1413,0.1413,0.1413,0.1413,0.1436,0.1861,0.2598,0.3511,0.4648,0.565,0.634,0.6808,0.7073,0.7117,0.7117,0.7117,0.7117,0.7117,0.7117,0.7117,0.7117,0.7117,0.7117,0.7117,0.7117,0.7117,0.7117,0.7117,0.0,0.0,0.0,0.0,0.0,0.0,0.0,0.0,0.0,0.0,0.0,0.0,0.0,0.0,0.0,0.0,0.0,0.0,0.0,0.0,0.0,0.0,0.0,0.0,0.0,0.0,0.0,0.0,0.0,0.0,0.0,0.0,0.0,0.0,0.0,0.0,0.0,0.0,0.0,0.0,0.0,0.0,0.0,0.0,0.0,0.0,0.0,0.0,0.0085,0.0214,0.0151,0.0239,0.0614,0.0578,0.0583,0.0695,0.0695,0.083,0.1076,0.1234,0.1346,0.1413,0.1413,0.1413,0.1413,0.1413,0.1413,0.1413,0.1413,0.1413,0.1413,0.1413,0.1413,0.1413,0.1413,0.1413,0.1413,0.1413,0.1413,0.1413,0.1413,0.1413,0.1413,0.1413,0.1413,0.1413,0.1413,0.1413,0.1413,0.1413,0.1436,0.1838,0.2442,0.3243,0.42,0.5314,0.6207,0.7029,0.7095,0.7117,0.7117,0.7117,0.7117,0.7117,0.7117,0.7117,0.7117,0.7117,0.7117,0.7117,0.7117,0.7117,0.7117,0.7117,0.7117,0.0,0.0,0.0,0.0,0.0,0.0,0.0,0.0,0.0,0.0,0.0,0.0,0.0,0.0,0.0,0.0,0.0,0.0,0.0,0.0,0.0,0.0,0.0,0.0,0.0,0.0,0.0,0.0,0.0,0.0,0.0,0.0,0.0,0.0,0.0,0.0,0.0,0.0,0.0,0.0,0.0,0.0,0.0,0.0,0.0,0.0,0.0,0.0,0.0,0.0045,0.0245,0.038,0.0447,0.0582,0.0695,0.0695,0.0695,0.0807,0.1054,0.1122,0.1211,0.1391,0.1413,0.1413,0.1413,0.1413,0.1413,0.1413,0.1413,0.1413,0.1413,0.1413,0.1413,0.1413,0.1413,0.1413,0.1413,0.1413,0.1413,0.1413,0.1413,0.1413,0.1413,0.1413,0.1413,0.1413,0.1413,0.1413,0.1413,0.1413,0.1749,0.2464,0.3066,0.351,0.4356,0.5844,0.676,0.7095,0.7117,0.7117,0.7117,0.7117,0.7117,0.7117,0.7117,0.7117,0.7117,0.7117,0.7117,0.7117,0.7117,0.7117,0.7117,0.7117,0.7121,0.0,0.0,0.0,0.0,0.0,0.0,0.0,0.0,0.0,0.0,0.0,0.0,0.0,0.0,0.0,0.0,0.0,0.0,0.0,0.0,0.0,0.0,0.0,0.0,0.0,0.0,0.0,0.0,0.0,0.0,0.0,0.0,0.0,0.0,0.0,0.0,0.0,0.0,0.0,0.0,0.0,0.0,0.0,0.0,0.0,0.0,0.0,0.0,0.0,0.0,0.0112,0.0157,0.018,0.0247,0.0269,0.0314,0.0561,0.0807,0.1076,0.1189,0.1323,0.1391,0.1413,0.1413,0.1413,0.1413,0.1413,0.1413,0.1413,0.1413,0.1413,0.1413,0.1413,0.1413,0.1413,0.1413,0.1413,0.1413,0.1413,0.1413,0.1413,0.1413,0.1413,0.1413,0.1413,0.1413,0.1413,0.1413,0.1413,0.1413,0.1838,0.2643,0.2999,0.369,0.4825,0.6182,0.6962,0.7095,0.7117,0.7117,0.7117,0.7117,0.7117,0.7117,0.7117,0.7117,0.7117,0.7117,0.7117,0.7117,0.7117,0.7117,0.7117,0.7117,0.7144,0.0,0.0,0.0,0.0,0.0,0.0,0.0,0.0,0.0,0.0,0.0,0.0,0.0,0.0,0.0,0.0,0.0,0.0,0.0,0.0,0.0,0.0,0.0,-0.027,-0.0382,-0.0427,0.0,0.0,-0.0427,-0.0382,-0.027,0.0,0.0,0.0,0.0,0.0,0.0,0.0,0.0,0.0,0.0,0.0,0.0,0.0,0.0,0.0,0.0,0.0,0.0,0.0,0.0,0.0,0.0,0.0,0.0,0.0,0.0381,0.074,0.0964,0.1189,0.1346,0.1391,0.1413,0.1413,0.1413,0.1413,0.1413,0.1413,0.1413,0.1413,0.1413,0.1413,0.1413,0.1413,0.1413,0.1413,0.1413,0.1413,0.1413,0.1413,0.1413,0.1413,0.1413,0.1413,0.1413,0.1413,0.1413,0.1413,0.1413,0.1436,0.1771,0.2711,0.2889,0.3535,0.5028,0.6008,0.6605,0.6805,0.6805,0.7117,0.7117,0.7117,0.7117,0.7117,0.7117,0.7117,0.7117,0.7117,0.7117,0.7117,0.7117,0.7117,0.7117,0.7141,0.7244,0.0,0.0,0.0,0.0,0.0,0.0,0.0,0.0,0.0,0.0,0.0,0.0,0.0,0.0,0.0,0.0,0.0,0.0,0.0,0.0,0.0,0.0,0.0,-0.0897,-0.1323,-0.1413,-0.1994,-0.1995,-0.1256,-0.1256,-0.0875,0.0,0.0,0.0,0.0,0.0,0.0,0.0,0.0,0.0,0.0,0.0,0.0,0.0,0.0,0.0,0.0,0.0,0.0,0.0,0.0,0.0,0.0,0.0,0.0,0.0,0.0269,0.0516,0.074,0.1009,0.1211,0.1368,0.1413,0.1413,0.1413,0.1413,0.1413,0.1413,0.1413,0.1413,0.1413,0.1413,0.1413,0.1413,0.1413,0.1413,0.1413,0.1413,0.1413,0.1413,0.1413,0.1413,0.1413,0.1413,0.1413,0.1413,0.1413,0.1413,0.1413,0.1413,0.1838,0.2555,0.2956,0.3245,0.4245,0.5359,0.583,0.6229,0.6852,0.7117,0.7117,0.7117,0.7117,0.7117,0.7117,0.7117,0.7117,0.7117,0.7117,0.7117,0.7117,0.7117,0.7117,0.7272,0.7382,0.0,0.0,0.0,0.0,0.0,0.0,0.0,0.0,0.0,0.0,0.0,0.0,0.0,0.0,0.0,0.0,0.0,0.0,0.0,0.0,0.0,-0.0315,-0.092,-0.1279,-0.1771,-0.2264,-0.2061,-0.1457,-0.0606,-0.0516,-0.0359,0.0,0.0,0.0,0.0,0.0,0.0,0.0,0.0,0.0,0.0,0.0,0.0,0.0,0.0,0.0,0.0,0.0,0.0,0.0,0.0,0.0,0.0,0.0,0.0157,0.0404,0.0538,0.0762,0.1099,0.1234,0.1323,0.1391,0.1413,0.1413,0.1413,0.1413,0.1413,0.1413,0.1413,0.1413,0.1413,0.1413,0.1413,0.1413,0.1413,0.1413,0.1413,0.1413,0.1413,0.1413,0.1413,0.1413,0.1413,0.1413,0.1413,0.1413,0.1413,0.1413,0.1413,0.1413,0.1749,0.2598,0.2934,0.3223,0.4156,0.5095,0.583,0.6428,0.694,0.7073,0.7117,0.7117,0.7117,0.7117,0.7117,0.7117,0.7117,0.7117,0.7117,0.7117,0.7117,0.7121,0.7117,0.7302,0.744,0.0,0.0,0.0,0.0,0.0,0.0,0.0,0.0,0.0,0.0,0.0,0.0,0.0,0.0,0.0,0.0,0.0,0.0,0.0,0.0,0.0,-0.0359,-0.0899,-0.1241,-0.1758,-0.2311,-0.2107,-0.1391,-0.0561,-0.0449,-0.0292,0.0,0.0,0.0,0.0,0.0,0.0,0.0,0.0,0.0,0.0,0.0,0.0,0.0,0.0,0.0,0.0,0.0,0.0,0.0,0.0,0.0,0.0,0.0067,0.0269,0.0561,0.0762,0.0964,0.1256,0.1368,0.1413,0.1413,0.1413,0.1413,0.1413,0.1413,0.1413,0.1413,0.1413,0.1413,0.1413,0.1413,0.1413,0.1413,0.1413,0.1413,0.1413,0.1413,0.1413,0.1413,0.1413,0.1413,0.1413,0.1413,0.1413,0.1413,0.1413,0.1413,0.1413,0.1436,0.1748,0.2665,0.2889,0.3535,0.4447,0.5408,0.5719,0.6251,0.694,0.7073,0.7117,0.7117,0.7117,0.7117,0.7117,0.7117,0.7117,0.7117,0.7117,0.7117,0.7127,0.7131,0.7208,0.7334,0.7489,0.0,0.0,0.0,0.0,0.0,0.0,0.0,0.0,0.0,0.0,0.0,0.0,0.0,0.0,0.0,0.0,0.0,0.0,0.0,0.0,0.0,0.0,-0.0293,-0.1051,-0.1418,-0.158,-0.236,-0.2225,-0.1196,-0.1061,-0.0722,0.0,0.0,0.0,0.0,0.0,0.0,0.0,0.0,0.0,0.0,0.0,0.0,0.0,0.0,0.0,0.0,0.0,0.0,0.0,0.0,0.0,0.0,0.0224,0.0381,0.0494,0.0831,0.1078,0.1147,0.1305,0.1418,0.1422,0.1417,0.1397,0.1424,0.142,0.1418,0.1418,0.1414,0.1413,0.1413,0.1416,0.1416,0.1413,0.1413,0.1413,0.1413,0.1413,0.1413,0.1413,0.1413,0.1413,0.1413,0.1413,0.1413,0.1413,0.1413,0.1413,0.1436,0.1525,0.1927,0.2621,0.3312,0.4137,0.4961,0.5722,0.5764,0.5941,0.6675,0.7117,0.7117,0.7117,0.7117,0.7117,0.7117,0.7117,0.7117,0.7117,0.7117,0.7121,0.7131,0.7175,0.7309,0.7434,0.7604,0.0,0.0,0.0,0.0,0.0,0.0,0.0,0.0,0.0,0.0,0.0,0.0,0.0,0.0,0.0,0.0,0.0,0.0,0.0,0.0,0.0,-0.034,-0.0892,-0.1243,-0.1414,-0.1447,-0.1682,-0.1378,-0.0631,0.0,-0.0256,0.0,0.0,0.0,0.0,0.0,0.0,0.0,0.0,0.0,0.0,0.0,0.0,0.0,0.0,0.0,0.0,0.0,0.0,0.0,0.0,0.0,0.0,0.0247,0.0474,0.0686,0.0939,0.12,0.1352,0.141,0.1453,0.1464,0.1478,0.1479,0.1467,0.1455,0.1468,0.1463,0.1426,0.1413,0.1393,0.1433,0.1458,0.1393,0.1413,0.1394,0.1418,0.1416,0.1413,0.1413,0.1413,0.1413,0.1414,0.1415,0.1396,0.1395,0.1395,0.1395,0.1505,0.2002,0.2442,0.2889,0.3803,0.4831,0.5642,0.629,0.6489,0.6457,0.6872,0.7134,0.7127,0.7151,0.7144,0.7117,0.7117,0.7117,0.7117,0.7117,0.7117,0.7151,0.7185,0.7282,0.7373,0.7509,0.7668,0.0,0.0,0.0,0.0,0.0,0.0,0.0,0.0,0.0,0.0,0.0,0.0,0.0,0.0,0.0,0.0,0.0,0.0,0.0,0.0,0.0,0.0,-0.0834,-0.0885,-0.0897,-0.0886,-0.0884,-0.0571,0.0,0.0,0.0,0.0,0.0,0.0,0.0,0.0,0.0,0.0,0.0,0.0,0.0,0.0,0.0,0.0,0.0,0.0,0.0,0.0,0.0,0.0,0.0,0.0,0.0135,0.0407,0.0662,0.09,0.1119,0.1342,0.1475,0.1484,0.1504,0.1495,0.1485,0.1505,0.1495,0.1506,0.1498,0.1493,0.1459,0.1446,0.145,0.1485,0.1487,0.1426,0.1449,0.1446,0.1446,0.1446,0.1447,0.1449,0.1426,0.1446,0.1446,0.1446,0.1423,0.1423,0.1423,0.172,0.1946,0.253,0.3072,0.3793,0.4842,0.5708,0.6344,0.683,0.7212,0.7199,0.7208,0.7195,0.7141,0.7231,0.7255,0.7148,0.7117,0.7117,0.7117,0.7117,0.7121,0.7178,0.7232,0.7322,0.7404,0.7546,0.7706,0.0,0.0,0.0,0.0,0.0,0.0,0.0,0.0,0.0,0.0,0.0,0.0,0.0,0.0,0.0,0.0,0.0,0.0,0.0,0.0,0.0,0.0,0.0,0.0,0.0,0.0,0.0,0.0,0.0,0.0,0.0,0.0,0.0,0.0,0.0,0.0,0.0,0.0,0.0,0.0,0.0,0.0,0.0,0.0,0.0,0.0,0.0,0.0,0.0,0.0,0.0,0.0112,0.0383,0.0641,0.0878,0.1072,0.1349,0.1457,0.1508,0.1508,0.1508,0.1514,0.151,0.1507,0.1513,0.1511,0.1505,0.1504,0.1498,0.1496,0.1496,0.1502,0.1504,0.1507,0.1498,0.1494,0.15,0.1497,0.1491,0.1494,0.1501,0.15,0.1493,0.1494,0.1494,0.1542,0.1611,0.2173,0.2755,0.334,0.4204,0.503,0.5862,0.6429,0.701,0.7109,0.7455,0.7451,0.7434,0.737,0.7225,0.7288,0.7386,0.7272,0.7181,0.7164,0.7161,0.7195,0.7188,0.7231,0.7285,0.7339,0.7478,0.7655,0.7773,0.0,0.0,0.0,0.0,0.0,0.0,0.0,0.0,0.0,0.0,0.0,0.0,0.0,0.0,0.0,0.0,0.0,0.0,0.0,0.0,0.0,0.0,0.0,0.0,0.0,0.0,0.0,0.0,0.0,0.0,0.0,0.0,0.0,0.0,0.0,0.0,0.0,0.0,0.0,0.0,0.0,0.0,0.0,0.0,0.0,0.0,0.0,0.0,0.0,0.0,0.0,0.0,0.0412,0.067,0.0939,0.1177,0.1407,0.157,0.1557,0.157,0.157,0.1563,0.157,0.1594,0.1565,0.1572,0.1562,0.1555,0.1518,0.1504,0.1507,0.1547,0.1566,0.1583,0.1533,0.1508,0.1506,0.1502,0.1502,0.1502,0.1505,0.1507,0.1508,0.1508,0.1508,0.1627,0.2104,0.2747,0.3346,0.4466,0.54,0.5912,0.6605,0.7088,0.748,0.751,0.7587,0.759,0.7587,0.758,0.7448,0.7386,0.7461,0.7458,0.7417,0.7371,0.739,0.7427,0.7386,0.7316,0.7448,0.757,0.7672,0.782,0.7881,0.0,0.0,0.0,0.0,0.0,0.0,0.0,0.0,0.0,0.0,0.0,0.0,0.0,0.0,0.0,0.0,0.0,0.0,0.0,0.0,0.0,0.0,0.0,0.0,0.0,0.0,0.0,0.0,0.0,0.0,0.0,0.0,0.0,0.0,0.0,0.0,0.0,0.0,0.0,0.0,0.0,0.0,0.0,0.0,0.0,0.0,0.0,0.0,0.0,0.0,0.0,0.0321,0.0702,0.0875,0.1103,0.135,0.1533,0.1575,0.1584,0.1599,0.1575,0.1585,0.1598,0.1576,0.1584,0.1599,0.159,0.1588,0.1573,0.1541,0.1542,0.1581,0.1597,0.1582,0.156,0.154,0.154,0.1542,0.154,0.154,0.154,0.1539,0.1539,0.1539,0.1539,0.1737,0.2449,0.3154,0.3928,0.5319,0.6452,0.6876,0.7109,0.748,0.7695,0.7763,0.7753,0.7749,0.7723,0.7726,0.7645,0.7529,0.7546,0.7584,0.7594,0.7594,0.7587,0.7559,0.7532,0.7533,0.7675,0.775,0.7807,0.7885,0.7956,0.0,0.0,0.0,0.0,0.0,0.0,0.0,0.0,0.0,0.0,0.0,0.0,0.0,0.0,0.0,0.0,0.0,0.0,0.0,0.0,0.0,0.0,0.0,0.0,0.0,0.0,0.0,0.0,0.0,0.0,0.0,0.0,0.0,0.0,0.0,0.0,0.0,0.0,0.0,0.0,0.0,0.0,0.0,0.0,0.0,0.0,0.0,0.0,0.0137,0.044,0.0417,0.0631,0.1072,0.1192,0.1326,0.1506,0.1575,0.1589,0.1592,0.159,0.159,0.159,0.159,0.1592,0.159,0.1588,0.1586,0.1586,0.1591,0.1584,0.1584,0.1589,0.1589,0.159,0.1588,0.159,0.1592,0.1592,0.1592,0.1592,0.159,0.1591,0.1592,0.1617,0.1665,0.2262,0.3035,0.3971,0.4851,0.6056,0.7003,0.762,0.7748,0.7788,0.7894,0.7958,0.7938,0.7942,0.7858,0.7824,0.7793,0.7723,0.7668,0.7675,0.7729,0.7736,0.7655,0.7638,0.7651,0.7668,0.776,0.7763,0.7797,0.7875,0.7924,0.0,0.0,0.0,0.0,0.0,0.0,0.0,0.0,0.0,0.0,0.0,0.0,0.0,0.0,0.0,0.0,0.0,0.0,0.0,0.0,0.0,0.0,0.0,0.0,0.0,0.0,0.0,0.0,0.0,0.0,0.0,0.0,0.0,0.0,0.0,0.0,0.0,0.0,0.0,0.0,0.0,0.0,0.0,0.0,0.0,0.0,0.0,0.0,0.0,0.054,0.0562,0.066,0.1091,0.1226,0.1336,0.1525,0.1584,0.1592,0.1592,0.1592,0.1592,0.1592,0.1592,0.1592,0.1592,0.1592,0.1592,0.1592,0.1592,0.1592,0.1592,0.1592,0.1592,0.1592,0.1592,0.1592,0.1592,0.1592,0.1592,0.1592,0.1592,0.1592,0.1592,0.1692,0.2044,0.2773,0.3776,0.4851,0.5815,0.6771,0.7409,0.7988,0.7965,0.7914,0.7938,0.7988,0.7988,0.7988,0.7959,0.7922,0.7891,0.7868,0.7797,0.7834,0.7904,0.7868,0.776,0.7817,0.7854,0.7837,0.7841,0.7864,0.7905,0.7914,0.7973,0.0,0.0,0.0,0.0,0.0,0.0,0.0,0.0,0.0,0.0,0.0,0.0,0.0,0.0,0.0,0.0,0.0,0.0,0.0,0.0,0.0,0.0,0.0,0.0,0.0,0.0,0.0,0.0,0.0,0.0,0.0,0.0,0.0,0.0,0.0,0.0,0.0,0.0,0.0,0.0,0.0,0.0,0.0,0.0,0.0,0.0,0.0,0.0,0.0,0.0599,0.0597,0.0745,0.126,0.1393,0.1452,0.1537,0.1592,0.1592,0.1592,0.1592,0.1592,0.1592,0.1592,0.1592,0.1592,0.1592,0.1592,0.1592,0.1592,0.1592,0.1592,0.1592,0.1592,0.1592,0.1592,0.1592,0.1592,0.1592,0.1592,0.1592,0.1592,0.1592,0.1641,0.1868,0.2421,0.3149,0.4755,0.5782,0.6107,0.6993,0.7571,0.7988,0.7988,0.7978,0.7978,0.7988,0.7988,0.7988,0.7975,0.7979,0.7969,0.7949,0.7922,0.7966,0.7971,0.7961,0.7918,0.7993,0.8006,0.7959,0.7939,0.7968,0.7985,0.7996,0.805,0.0,0.0,0.0,0.0,0.0,0.0,0.0,0.0,0.0,0.0,0.0,0.0,0.0,0.0,0.0,0.0,0.0,0.0,0.0,0.0,0.0,0.0,0.0,0.0,0.0,0.0,0.0,0.0,0.0,0.0,0.0,0.0,0.0,0.0,0.0,0.0,0.0,0.0,0.0,0.0,0.0,0.0,0.0,0.0,0.0,0.0,0.0,0.0,0.0265,0.0735,0.0637,0.0966,0.138,0.1592,0.1592,0.1592,0.1592,0.1592,0.1592,0.1592,0.1592,0.1592,0.1592,0.1592,0.1592,0.1592,0.1592,0.1592,0.1592,0.1592,0.1592,0.1592,0.1592,0.1592,0.1592,0.1592,0.1592,0.1592,0.1592,0.1592,0.1592,0.1592,0.1943,0.2296,0.2898,0.3701,0.5334,0.6567,0.687,0.7216,0.7785,0.806,0.8067,0.8008,0.8002,0.7998,0.7998,0.803,0.8027,0.7995,0.7992,0.7968,0.7973,0.7965,0.7982,0.7971,0.7971,0.7978,0.7985,0.7988,0.7998,0.8033,0.804,0.8047,0.8163,0.0,0.0,0.0,0.0,0.0,0.0,0.0,0.0,0.0,0.0,0.0,0.0,0.0,0.0,0.0,0.0,0.0,0.0,0.0,0.0,0.0,0.0,0.0,0.0,0.0,0.0,0.0,0.0,0.0,0.0,0.0,0.0,0.0,0.0,0.0,0.0,0.0,0.0,0.0,0.0,0.0,0.0,0.0,0.0,0.0,0.0,0.0,0.0,0.0245,0.0737,0.0772,0.108,0.1438,0.1592,0.1592,0.1592,0.1592,0.1592,0.1592,0.1592,0.1592,0.1592,0.1592,0.1592,0.1592,0.1594,0.1597,0.1595,0.1594,0.1592,0.1592,0.1592,0.1592,0.1592,0.1592,0.1592,0.1592,0.1592,0.1592,0.1592,0.1592,0.1641,0.2019,0.2647,0.3525,0.4411,0.5811,0.6977,0.7538,0.7759,0.8064,0.818,0.8163,0.8088,0.8015,0.8012,0.8012,0.8054,0.805,0.8008,0.8002,0.7992,0.7988,0.7992,0.7992,0.7985,0.7985,0.7988,0.7988,0.7988,0.8033,0.8064,0.814,0.8194,0.8303,0.0,0.0,0.0,0.0,0.0,0.0,0.0,0.0,0.0,0.0,0.0,0.0,0.0,0.0,0.0,0.0,0.0,0.0,0.0,0.0,0.0,0.0,0.0,0.0,0.0,0.0,0.0,0.0,0.0,0.0,0.0,0.0,0.0,0.0,0.0,0.0,0.0,0.0,0.0,0.0,0.0,0.0,0.0,0.0,0.0,0.0,0.0,0.0,0.0,0.0674,0.0804,0.111,0.1415,0.1592,0.1592,0.1592,0.1592,0.1592,0.1592,0.1592,0.1592,0.1592,0.1592,0.1592,0.1596,0.163,0.1665,0.1637,0.1596,0.1592,0.1592,0.1592,0.1592,0.1592,0.1592,0.1593,0.1593,0.1593,0.1596,0.1597,0.1596,0.1697,0.1918,0.2772,0.4001,0.5196,0.6393,0.7273,0.8078,0.8245,0.8336,0.8316,0.8296,0.8221,0.8152,0.8142,0.8131,0.8131,0.815,0.8104,0.8091,0.8104,0.806,0.8023,0.802,0.8067,0.802,0.8023,0.7995,0.8037,0.8108,0.8201,0.8284,0.8359,0.8468,0.0,0.0,0.0,0.0,0.0,0.0,0.0,0.0,0.0,0.0,0.0,0.0,0.0,0.0,0.0,0.0,0.0,0.0,0.0,0.0,0.0,0.0,0.0,0.0,0.0,0.0,0.0,0.0,0.0,0.0,0.0,0.0,0.0,0.0,0.0,0.0,0.0,0.0,0.0,0.0,0.0,0.0,0.0,0.0,0.0,0.0,0.0,0.0,0.0,0.0655,0.0833,0.1061,0.1491,0.1592,0.1592,0.1592,0.1592,0.1592,0.1592,0.1592,0.1595,0.1629,0.1627,0.1604,0.1615,0.1659,0.1694,0.1686,0.1644,0.1598,0.1594,0.1592,0.1596,0.1628,0.1629,0.163,0.1639,0.1644,0.1621,0.1618,0.1635,0.1964,0.2375,0.339,0.4712,0.5844,0.7041,0.7618,0.8323,0.8438,0.8506,0.8476,0.8435,0.8353,0.8316,0.8316,0.8309,0.8306,0.8303,0.8289,0.8265,0.8226,0.8179,0.818,0.8191,0.8221,0.8118,0.8077,0.8131,0.8211,0.8262,0.8362,0.8461,0.8503,0.8587,0.0,0.0,0.0,0.0,0.0,0.0,0.0,0.0,0.0,0.0,0.0,0.0,0.0,0.0,0.0,0.0,0.0,0.0,0.0,0.0,0.0,0.0,0.0,0.0,0.0,0.0,0.0,0.0,0.0,0.0,0.0,0.0,0.0,0.0,0.0,0.0,0.0,0.0,0.0,0.0,0.0,0.0,0.0,0.0,0.0,0.0,0.0,0.0202,0.0505,0.0783,0.0808,0.1061,0.1491,0.1592,0.1592,0.1592,0.1592,0.1592,0.1592,0.1592,0.1629,0.167,0.1679,0.1669,0.1684,0.1688,0.1713,0.1716,0.1684,0.1674,0.1632,0.1622,0.1632,0.1672,0.1682,0.1669,0.168,0.167,0.1673,0.1864,0.1911,0.2579,0.3173,0.4299,0.5437,0.6569,0.7546,0.8108,0.8492,0.8604,0.8635,0.8594,0.856,0.8486,0.8462,0.8462,0.8462,0.8459,0.8481,0.8464,0.8423,0.8377,0.8414,0.8397,0.8394,0.837,0.8323,0.8306,0.8349,0.8364,0.8421,0.853,0.8648,0.8703,0.8733,0.0,0.0,0.0,0.0,0.0,0.0,0.0,0.0,0.0,0.0,0.0,0.0,0.0,0.0,0.0,0.0,0.0,0.0,0.0,0.0,0.0,0.0,0.0,0.0,0.0,0.0,0.0,0.0,0.0,0.0,0.0,0.0,0.0,0.0,0.0,0.0,0.0,0.0,0.0,0.0,0.0,0.0,0.0,0.0,0.0,0.0,0.0202,0.0303,0.0631,0.0884,0.0909,0.1061,0.144,0.1592,0.1592,0.1618,0.1635,0.1634,0.162,0.1594,0.1637,0.1681,0.1719,0.1708,0.1739,0.1716,0.1713,0.174,0.1722,0.1679,0.1668,0.1667,0.1673,0.1682,0.1712,0.172,0.1705,0.1702,0.1752,0.1975,0.2333,0.315,0.3932,0.4814,0.5849,0.691,0.7791,0.8368,0.8662,0.8727,0.8716,0.8689,0.8655,0.8615,0.8615,0.8615,0.8615,0.8615,0.8611,0.8611,0.8539,0.8529,0.8557,0.857,0.8547,0.8523,0.8526,0.8495,0.8475,0.8509,0.8561,0.8669,0.8747,0.8791,0.8821,0.0,0.0,0.0,0.0,0.0,0.0,0.0,0.0,0.0,0.0,0.0,0.0,0.0,0.0,0.0,0.0,0.0,0.0,0.0,0.0,0.0,0.0,0.0,0.0,0.0,0.0,0.0,0.0,0.0,0.0,0.0,0.0,0.0,0.0,0.0,0.0,0.0,0.0,0.0,0.0,0.0,0.0,0.0,0.0,0.0,0.0127,0.0354,0.0505,0.0758,0.1035,0.1136,0.1263,0.1541,0.1592,0.1598,0.1631,0.1676,0.1682,0.1648,0.1649,0.1682,0.1701,0.1722,0.1751,0.1776,0.1739,0.1725,0.177,0.1756,0.174,0.1705,0.1701,0.1705,0.1709,0.1742,0.172,0.1725,0.173,0.1818,0.1992,0.2628,0.3861,0.4631,0.5306,0.6239,0.7282,0.8025,0.8612,0.8781,0.8841,0.8818,0.876,0.8754,0.873,0.8733,0.8737,0.8764,0.8757,0.8754,0.8743,0.8682,0.8682,0.8699,0.8696,0.8669,0.8689,0.8716,0.8638,0.8574,0.8676,0.873,0.8733,0.8787,0.8862,0.8958,0.0,0.0,0.0,0.0,0.0,0.0,0.0,0.0,0.0,0.0,0.0,0.0,0.0,0.0,0.0,0.0,0.0,0.0,0.0,0.0,0.0,0.0,0.0,0.0,0.0,0.0,0.0,0.0,0.0,0.0,0.0,0.0,0.0,0.0,0.0,0.0,0.0,0.0,0.0,0.0,0.0,0.0,0.0,0.0,0.0,0.0129,0.0405,0.0657,0.0909,0.1237,0.1364,0.144,0.1566,0.1602,0.1639,0.165,0.1695,0.1706,0.1713,0.1689,0.1737,0.1765,0.1787,0.177,0.1808,0.1788,0.1805,0.1812,0.1777,0.1764,0.1747,0.1707,0.1756,0.1766,0.1776,0.1754,0.1761,0.1771,0.1861,0.2036,0.2926,0.4301,0.5458,0.6158,0.6997,0.8034,0.8261,0.8825,0.8838,0.8885,0.8892,0.8872,0.8879,0.8872,0.8875,0.8869,0.8831,0.8825,0.8828,0.8845,0.8845,0.8858,0.8825,0.8831,0.8808,0.8858,0.8875,0.8764,0.875,0.8835,0.8885,0.8845,0.8835,0.8882,0.9071,0.0,0.0,0.0,0.0,0.0,0.0,0.0,0.0,0.0,0.0,0.0,0.0,0.0,0.0,0.0,0.0,0.0,0.0,0.0,0.0,0.0,0.0,0.0,0.0,0.0,0.0,0.0,0.0,0.0,0.0,0.0,0.0,0.0,0.0,0.0,0.0,0.0,0.0,0.0,0.0,0.0,0.0,0.0,0.0,0.0,0.0386,0.0633,0.091,0.1162,0.1391,0.1543,0.1596,0.1604,0.1651,0.1665,0.1699,0.1745,0.177,0.175,0.1719,0.1746,0.1775,0.1803,0.1795,0.1795,0.1795,0.1791,0.1809,0.1803,0.1791,0.1764,0.1761,0.1769,0.1803,0.1807,0.1812,0.1787,0.1793,0.2045,0.2266,0.3521,0.4934,0.6021,0.705,0.7916,0.8754,0.885,0.8909,0.8909,0.8909,0.8909,0.8909,0.8909,0.8909,0.8909,0.8909,0.8909,0.8909,0.8909,0.8909,0.8909,0.8906,0.8882,0.8906,0.8909,0.8902,0.8885,0.8858,0.8865,0.8899,0.8909,0.8899,0.8902,0.8912,0.9127,0.0,0.0,0.0,0.0,0.0,0.0,0.0,0.0,0.0,0.0,0.0,0.0,0.0,0.0,0.0,0.0,0.0,0.0,0.0,0.0,0.0,0.0,0.0,0.0,0.0,0.0,0.0,0.0,0.0,0.0,0.0,0.0,0.0,0.0,0.0,0.0,0.0,0.0,0.0,0.0,0.0,0.0,0.0,0.0,0.0,0.0577,0.0856,0.1136,0.134,0.1518,0.1643,0.164,0.1658,0.1653,0.1699,0.1736,0.1776,0.1807,0.1781,0.1777,0.1769,0.1795,0.1809,0.1793,0.1795,0.1795,0.1793,0.1793,0.1793,0.1795,0.1795,0.1788,0.1785,0.1787,0.1788,0.1791,0.1791,0.1823,0.2185,0.2547,0.4026,0.5447,0.6561,0.754,0.8211,0.8857,0.8881,0.8909,0.8909,0.8909,0.8909,0.8909,0.8909,0.8909,0.8909,0.8909,0.8909,0.8909,0.8909,0.8909,0.8909,0.8909,0.8909,0.8909,0.8909,0.8909,0.8899,0.8879,0.8889,0.8906,0.8909,0.8909,0.8936,0.8977,0.9189,0.0,0.0,0.0,0.0,0.0,0.0,0.0,0.0,0.0,0.0,0.0,0.0,0.0,0.0,0.0,0.0,0.0,0.0,0.0,0.0,0.0,0.0,0.0,0.0,0.0,0.0,0.0,0.0,0.0,0.0,0.0,0.0,0.0,0.0,0.0,0.0,0.0,0.0,0.0,0.0,0.0,0.0,0.0,0.0381,0.0515,0.0805,0.1111,0.129,0.1473,0.163,0.1679,0.168,0.1692,0.1693,0.1736,0.1795,0.1801,0.1793,0.1787,0.179,0.1787,0.1813,0.1793,0.1794,0.1795,0.1795,0.1795,0.1795,0.1795,0.1795,0.1795,0.1795,0.1795,0.1795,0.1795,0.1795,0.1795,0.2213,0.266,0.3191,0.45,0.5864,0.701,0.7989,0.8546,0.8909,0.8909,0.8909,0.8909,0.8909,0.8909,0.8909,0.8909,0.8909,0.8909,0.8909,0.8909,0.8909,0.8909,0.8909,0.8909,0.8909,0.8909,0.8909,0.8909,0.8909,0.8909,0.8906,0.8929,0.8977,0.8916,0.8916,0.895,0.9053,0.9307,0.0,0.0,0.0,0.0,0.0,0.0,0.0,0.0,0.0,0.0,0.0,0.0,0.0,0.0,0.0,0.0,0.0,0.0,0.0,0.0,0.0,0.0,0.0,0.0,0.0,0.0,0.0,0.0,0.0,0.0,0.0,0.0,0.0,0.0,0.0,0.0,0.0,0.0,0.0,0.0,0.0224,0.028,0.0417,0.0712,0.0876,0.1087,0.1339,0.1472,0.1605,0.1687,0.171,0.1715,0.1721,0.1716,0.1765,0.179,0.179,0.181,0.1793,0.1793,0.1794,0.1795,0.1795,0.1795,0.1795,0.1795,0.1795,0.1795,0.1795,0.1795,0.1795,0.1795,0.1795,0.1795,0.1795,0.1795,0.1962,0.2716,0.3357,0.3998,0.5057,0.6674,0.7989,0.8269,0.8743,0.8909,0.8909,0.8909,0.8909,0.8909,0.8909,0.8909,0.8909,0.8909,0.8909,0.8909,0.8909,0.8909,0.8909,0.8909,0.8909,0.8909,0.8909,0.8909,0.8909,0.8909,0.8936,0.896,0.9018,0.9025,0.9028,0.9045,0.9096,0.925,0.9426,0.0,0.0,0.0,0.0,0.0,0.0,0.0,0.0,0.0,0.0,0.0,0.0,0.0,0.0,0.0,0.0,0.0,0.0,0.0,0.0,0.0,0.0,0.0,0.0,0.0,0.0,0.0,0.0,0.0,0.0,0.0,0.0,0.0,0.0,0.0,0.0,0.0,0.0,0.0084,0.0224,0.0392,0.0532,0.0725,0.0969,0.1158,0.1345,0.1497,0.1626,0.1735,0.1739,0.1716,0.1722,0.1752,0.1763,0.1812,0.1806,0.1808,0.1794,0.1795,0.1795,0.1795,0.1795,0.1795,0.1795,0.1795,0.1795,0.1795,0.1795,0.1795,0.1795,0.1795,0.1795,0.1823,0.1851,0.1907,0.1907,0.266,0.3441,0.4278,0.492,0.5783,0.7401,0.8605,0.8716,0.8881,0.8909,0.8909,0.8909,0.8909,0.8909,0.8909,0.8909,0.8909,0.8909,0.8909,0.8909,0.8909,0.8909,0.8909,0.8909,0.8909,0.8909,0.8909,0.8912,0.8923,0.8943,0.9011,0.9045,0.9134,0.9182,0.9178,0.923,0.9282,0.947,0.9662,0.0,0.0,0.0,0.0,0.0,0.0,0.0,0.0,0.0,0.0,0.0,0.0,0.0,0.0,0.0,0.0,0.0,0.0,0.0,0.0,0.0,0.0,0.0,0.0,0.0,0.0,0.0,0.0,0.0,0.0,0.0,0.0,0.0,0.0,0.0,0.0,0.0,0.0,0.0224,0.042,0.0617,0.0785,0.1036,0.1256,0.1394,0.1534,0.1668,0.178,0.1783,0.1786,0.1789,0.1791,0.1793,0.1794,0.1795,0.1795,0.1794,0.1794,0.1795,0.1795,0.1795,0.1795,0.1795,0.1795,0.1795,0.1795,0.1795,0.1795,0.1795,0.1795,0.1795,0.1851,0.1907,0.1991,0.2102,0.2632,0.3497,0.4332,0.5226,0.598,0.6788,0.7903,0.8633,0.8909,0.8909,0.8909,0.8909,0.8909,0.8909,0.8909,0.8909,0.8909,0.8909,0.8909,0.8909,0.8909,0.8909,0.8909,0.8909,0.8909,0.8909,0.8923,0.894,0.895,0.895,0.899,0.9123,0.9188,0.926,0.9305,0.9398,0.9505,0.9591,0.9781,0.9991,0.0,0.0,0.0,0.0,0.0,0.0,0.0,0.0,0.0,0.0,0.0,0.0,0.0,0.0,0.0,0.0,0.0,0.0,0.0,0.0,0.0,0.0,0.0,0.0,0.0,0.0,0.0,0.0,0.0,0.0,0.0,0.0,0.0,0.0,0.0,0.0196,0.0252,0.0336,0.0448,0.0673,0.0897,0.1121,0.1374,0.1542,0.1627,0.1711,0.1767,0.1795,0.1795,0.1795,0.1795,0.1795,0.1795,0.1795,0.1795,0.1795,0.1795,0.1795,0.1795,0.1795,0.1851,0.1907,0.1851,0.1795,0.1795,0.1851,0.1851,0.1795,0.1795,0.1795,0.1795,0.1851,0.2214,0.2604,0.2828,0.3469,0.4388,0.5419,0.6285,0.6899,0.7681,0.8156,0.8854,0.8909,0.8909,0.8909,0.8909,0.8909,0.8909,0.8909,0.8909,0.8909,0.8909,0.8909,0.8909,0.8909,0.8909,0.8909,0.8909,0.8919,0.8936,0.8953,0.9005,0.9052,0.9117,0.9201,0.9296,0.9402,0.9483,0.9612,0.9707,0.9832,0.9941,1.0176,1.0409,0.0,0.0,0.0,0.0,0.0,0.0,0.0,0.0,0.0,0.0,0.0,0.0,0.0,0.0,0.0,0.0,0.0,0.0,0.0,0.0,0.0,0.0,0.0,0.0,0.0,0.0,0.0,0.0,0.0,0.0,0.0,0.0,0.0,0.0,0.0168,0.0336,0.0533,0.0673,0.0841,0.1009,0.1206,0.1402,0.1627,0.1739,0.1795,0.1795,0.1795,0.1795,0.1795,0.1795,0.1795,0.1795,0.1795,0.1795,0.1795,0.1795,0.1795,0.1795,0.1795,0.1795,0.2047,0.2242,0.2102,0.2158,0.2158,0.2213,0.199,0.1795,0.1795,0.1795,0.1795,0.1906,0.2688,0.3413,0.386,0.436,0.5391,0.6536,0.7235,0.7792,0.8266,0.8657,0.8909,0.8909,0.8909,0.8909,0.8909,0.8909,0.8909,0.8909,0.8909,0.8909,0.8909,0.8909,0.8909,0.8909,0.8909,0.8909,0.8909,0.8923,0.8953,0.9052,0.9117,0.9237,0.9328,0.941,0.9452,0.9652,0.9775,0.9902,1.0091,1.0334,1.0517,1.0696,1.0929,0.0,0.0,0.0,0.0,0.0,0.0,0.0,0.0,0.0,0.0,0.0,0.0,0.0,0.0,0.0,0.0,0.0,0.0,0.0,0.0,0.0,0.0,0.0,0.0,0.0,0.0,0.0,0.0,0.0,0.0,0.0,0.0,0.0,0.014,0.0308,0.0533,0.0785,0.1065,0.1206,0.1346,0.143,0.1627,0.1795,0.1795,0.1795,0.1795,0.1795,0.1795,0.1795,0.1795,0.1795,0.1795,0.1795,0.1795,0.1795,0.1795,0.1795,0.2046,0.2158,0.2269,0.266,0.28,0.2632,0.2521,0.2437,0.2186,0.1879,0.1795,0.1795,0.2158,0.2269,0.2521,0.3135,0.4195,0.5003,0.5783,0.6844,0.7598,0.7878,0.8353,0.8574,0.8909,0.8909,0.8909,0.8909,0.8909,0.8909,0.8909,0.8909,0.8909,0.8909,0.8909,0.8909,0.8909,0.8909,0.8909,0.8909,0.8909,0.8909,0.9001,0.909,0.9179,0.9274,0.9386,0.9469,0.953,0.9618,0.976,0.9947,1.0167,1.0439,1.0827,1.105,1.1155,1.1314,0.0,0.0,0.0,0.0,0.0,0.0,0.0,0.0,0.0,0.0,0.0,0.0,0.0,0.0,0.0,0.0,0.0,0.0,0.0,0.0,0.0,0.0,0.0,0.0,0.0,0.0,0.0,0.0,0.0,0.0,0.0,0.0,0.014,0.0336,0.0448,0.0729,0.1121,0.1374,0.1514,0.1627,0.1655,0.1711,0.1795,0.1795,0.1795,0.1795,0.1795,0.1795,0.1795,0.1795,0.1795,0.1795,0.1795,0.1823,0.1823,0.1795,0.1962,0.2465,0.2772,0.2995,0.3302,0.3413,0.3245,0.2772,0.2382,0.199,0.1851,0.1879,0.2018,0.2465,0.294,0.3274,0.3777,0.5003,0.6091,0.7152,0.8186,0.838,0.8549,0.8688,0.8881,0.8909,0.8909,0.8909,0.8909,0.8909,0.8909,0.8909,0.8909,0.8909,0.8909,0.8909,0.8909,0.8909,0.8909,0.8909,0.8909,0.8909,0.8909,0.9025,0.9197,0.9349,0.9476,0.9551,0.9609,0.9733,0.977,0.9781,1.0007,1.0395,1.0728,1.1126,1.1307,1.1416,1.1579,0.0,0.0,0.0,0.0,0.0,0.0,0.0,0.0,0.0,0.0,0.0,0.0,0.0,0.0,0.0,0.0,0.0,0.0,0.0,0.0,0.0,0.0,0.0,0.0,0.0,0.0,0.0,0.0,0.0,0.0,0.0,0.0,0.0252,0.0504,0.0645,0.1065,0.1402,0.1514,0.1711,0.1795,0.1795,0.1795,0.1795,0.1795,0.1795,0.1795,0.1795,0.1795,0.1795,0.1795,0.1795,0.1795,0.199,0.2409,0.2269,0.2353,0.2716,0.3441,0.3608,0.3748,0.3942,0.4109,0.3747,0.3219,0.3999,0.372,0.3245,0.3217,0.2855,0.3163,0.4026,0.45,0.5142,0.6146,0.6677,0.7404,0.8214,0.8688,0.8771,0.8799,0.8909,0.8909,0.8909,0.8909,0.8909,0.8909,0.8909,0.8923,0.8919,0.897,0.8953,0.8946,0.8967,0.8933,0.8909,0.8909,0.8909,0.8909,0.8933,0.9089,0.9274,0.9513,0.968,0.9717,0.9794,1.0013,1.0051,1.0095,1.0395,1.0849,1.1126,1.1371,1.1522,1.1621,1.1724,0.0,0.0,0.0,0.0,0.0,0.0,0.0,0.0,0.0,0.0,0.0,0.0,0.0,0.0,0.0,0.0,0.0,0.0,0.0,0.0,0.0,0.0,0.0,0.0,0.0,0.0,0.0,0.0,0.0,0.0,0.0,0.0,0.0364,0.0673,0.0953,0.1234,0.1514,0.1683,0.1795,0.1795,0.1795,0.1795,0.1795,0.1795,0.1795,0.1795,0.1795,0.1795,0.1795,0.1963,0.2074,0.227,0.2632,0.3219,0.3219,0.333,0.4054,0.436,0.4305,0.4362,0.4723,0.486,0.4249,0.4416,0.5224,0.5111,0.4609,0.4528,0.4165,0.428,0.5117,0.5757,0.6429,0.7087,0.7452,0.7714,0.8384,0.8943,0.8943,0.894,0.8919,0.8919,0.8923,0.8923,0.8919,0.8919,0.8933,0.8936,0.8967,0.9058,0.9102,0.9117,0.912,0.9041,0.8943,0.8997,0.9055,0.9032,0.9079,0.9198,0.9354,0.9602,0.9761,0.9825,0.994,1.0152,1.0395,1.0516,1.091,1.1212,1.1273,1.1398,1.1651,1.175,1.1805,0.0,0.0,0.0,0.0,0.0,0.0,0.0,0.0,0.0,0.0,0.0,0.0,0.0,0.0,0.0,0.0,0.0,0.0,0.0,0.0,0.0,0.0,0.0,0.0,0.0,0.0,0.0,0.0,0.0109,0.0249,0.0336,0.0364,0.0897,0.1149,0.1234,0.1486,0.1683,0.1795,0.1795,0.1795,0.1795,0.1795,0.1795,0.1795,0.1795,0.1795,0.1795,0.1795,0.1795,0.2074,0.2661,0.3052,0.3664,0.4305,0.4528,0.4555,0.5308,0.5419,0.5335,0.5588,0.6061,0.5586,0.528,0.5671,0.6005,0.5725,0.5697,0.6258,0.604,0.5882,0.6472,0.6753,0.729,0.8062,0.8591,0.8651,0.9008,0.9117,0.9114,0.9039,0.896,0.8963,0.897,0.897,0.8973,0.8994,0.9117,0.91,0.9123,0.9195,0.9273,0.9262,0.9252,0.9088,0.8977,0.9191,0.9242,0.9233,0.924,0.934,0.9493,0.9673,0.9795,0.9906,1.0092,1.0304,1.0547,1.088,1.1065,1.1307,1.1273,1.1394,1.1647,1.1823,1.1851]},{"header":{"parameterUnit":"m.s-1","parameterCategory":1,"la1":31.0,"la2":29.5877,"lo1":-88.7671,"lo2":-86.6584,"dy":0.0162,"dx":0.0185,"nx":115,"ny":88,"refTime":"2023-06-02T18:00:00:Z","depth":0,"parameterNumber":3,"parameterNumberName":"V-component_of_WINDS"},"data":[0.0,0.0,0.0,0.0,0.0,0.0,0.0,0.0,0.0,0.0,0.0,0.0,0.0,0.0,0.0,0.0,0.0,0.0,0.0,0.0,0.0,0.0,0.0,0.0,0.0,0.0,0.0,0.0,0.0,0.0,0.0,0.0,0.0,0.0,0.0,0.0,0.0,0.0,0.0,0.0,0.0,0.0,0.0,0.0,0.0,0.0,0.0,0.0,0.0,0.0,0.0,0.0,0.0,0.0,0.0,0.0,0.0,0.0,0.0,0.0,0.0,0.0,0.0,0.0,0.0,0.0,0.0,0.0,0.0,0.0,0.0,0.0,0.0,0.0,0.0,0.0,0.0,0.0,0.0,0.0,0.0,0.0,0.0,0.0,0.0,0.0,0.0,0.0,0.0,0.0,0.0,0.0,0.0,0.0,0.0,0.0,0.0,0.0,0.0,0.0,0.0,0.0,0.0,0.0,0.0,0.0,0.0,0.0,0.0,0.0,0.0,0.0,0.0,0.0,0.0,0.0,0.0,0.0,0.0,0.0,0.0,0.0,0.0,0.0,0.0,0.0,0.0,0.0,0.0,0.0,0.0,0.0,0.0,0.0,0.0,0.0,0.0,0.0,0.0,0.0,0.0,0.0,0.0,0.0,0.0,0.0,0.0,0.0,0.0,0.0,0.0,0.0,0.0,0.0,0.0,0.0,0.0,0.0,0.0,0.0,0.0,0.0,0.0,0.0,0.0,0.0,0.0,0.0,0.0,0.0,0.0,0.0,0.0,0.0,0.0,0.0,0.0,0.0,0.0,0.0,0.0,0.0,0.0,0.0,0.0,0.0,0.0,0.0,0.0,0.0,0.0,0.0,0.0,0.0,0.0,0.0,0.0,0.0,0.0,0.0,0.0,0.0,0.0,0.0,0.0,0.0,0.0,0.0,0.0,0.0,0.0,0.0,0.0,0.0,0.0,0.0,0.0,0.0,0.0,0.0,0.0,0.0,0.0,0.0,0.0,0.0,0.0,0.0,0.0,0.0,0.0,0.0,0.0,0.0,0.0,0.0,0.0,0.0,0.0,0.0,0.0,0.0,0.0,0.0,0.0,0.0,0.0,0.0,0.0,0.0,0.0,0.0,0.0,0.0,0.0,0.0,0.0,0.0,0.0,0.0,0.0,0.0,0.0,0.0,0.0,0.0,0.0,0.0,0.0,0.0,0.0,0.0,0.0,0.0,0.0,0.0,0.0,0.0,0.0,0.0,0.0,0.0,0.0,0.0,0.0,0.0,0.0,0.0,0.0,0.0,0.0,0.0,0.0,0.0,0.0,0.0,0.0,0.0,0.0,0.0,0.0,0.0,0.0,0.0,0.0,0.0,0.0,0.0,0.0,0.0,0.0,0.0,0.0,0.0,0.0,0.0,0.0,0.0,0.0,0.0,0.0,0.0,0.0,0.0,0.0,0.0,0.0,0.0,0.0,0.0,0.0,0.0,0.0,0.0,0.0,0.0,0.0,0.0,0.0,0.0,0.0,0.0,0.0,0.0,0.0,0.0,0.0,0.0,0.0,0.0,0.0,0.0,0.0,0.0,0.0,0.0,0.0,0.0,0.0,0.0,0.0,0.0,0.0,0.0,0.0,0.0,0.0,0.0,0.0,0.0,0.0,0.0,0.0,0.0,0.0,0.0,0.0,0.0,0.0,0.0,0.0,0.0,0.0,0.0,0.0,0.0,0.0,0.0,0.0,0.0,0.0,0.0,0.0,0.0,0.0,0.0,0.0,0.0,0.0,0.0,0.0,0.0,0.0,0.0,0.0,0.0,0.0,0.0,0.0,0.0,0.0,0.0,0.0,0.0,0.0,0.0,0.0,0.0,0.0,0.0,0.0,0.0,0.0,0.0,0.0,0.0,0.0,0.0,0.0,0.0,0.0,0.0,0.0,0.0,0.0,0.0,0.0,0.0,0.0,0.0,0.0,0.0,0.0,0.0,0.0,0.0,0.0,0.0,0.0,0.0,0.0,0.0,0.0,0.0,0.0,0.0,0.0,0.0,0.0,0.0,0.0,0.0,0.0,0.0,0.0,0.0,0.0,0.0,0.0,0.0,0.0,0.0,0.0,0.0,0.0,0.0,0.0,0.0,0.0,0.0,0.0,0.0,0.0,0.0,0.0,0.0,0.0,0.0,0.0,0.0,0.0,0.0,0.0,0.0,0.0,0.0,0.0,0.0,0.0,0.0,0.0,0.0,0.0,0.0,0.0,0.0,0.0,0.0,0.0,0.0,0.0,0.0,0.0,0.0,0.0,0.0,0.0,0.0,0.0,0.0,0.0,0.0,0.0,0.0,0.0,0.0,0.0,0.0,0.0,0.0,0.0,0.0,0.0,0.0,0.0,0.0,0.0,0.0,0.0,0.0,0.0,0.0,0.0,0.0,0.0,0.0,0.0,0.0,0.0,0.0,0.0,0.0,0.0,0.0,0.0,0.0,0.0,0.0,0.0,0.0,0.0,0.0,0.0,0.0,0.0,0.0,0.0,0.0,0.0,0.0,0.0,0.0,0.0,0.0,0.0,0.0,0.0,0.0,0.0,0.0,0.0,0.0,0.0,0.0,0.0,0.0,0.0,0.0,0.0,0.0,0.0,0.0,0.0,0.0,0.0,0.0,0.0,0.0,0.0,0.0,0.0,0.0,0.0,0.0,0.0,0.0,0.0,0.0,0.0,0.0,0.0,0.0,0.0,0.0,0.0,0.0,0.0,0.0,0.0,0.0,0.0,0.0,0.0,0.0,0.0,0.0,0.0,0.0,0.0,0.0,0.0,0.0,0.0,0.0,0.0,0.0,0.0,0.0,0.0,0.0,0.0,0.0,0.0,0.0,0.0,0.0,0.0,0.0,0.0,0.0,0.0,0.0,0.0,0.0,0.0,0.0,0.0,0.0,0.0,0.0,0.0,0.0,0.0,0.0,0.0,0.0,0.0,0.0,0.0,0.0,0.0,0.0,0.0,0.0,0.0,0.0,0.0,0.0,0.0,0.0,0.0,0.0,0.0,0.0,0.0,0.0,0.0,0.0,0.0,0.0,0.0,0.0,0.0,0.0,0.0,0.0,0.0,0.0,0.0,0.0,0.0,0.0,0.0,0.0,0.0,0.0,0.0,0.0,0.0,0.0,0.0,0.0,0.0,0.0,0.0,0.0,0.0,0.0,0.0,0.0,0.0,0.0,0.0,0.0,0.0,0.0,0.0,0.0,0.0,0.0,0.0,0.0,0.0,0.0,0.0,0.0,0.0,0.0,0.0,0.0,0.0,0.0,0.0,0.0,0.0,0.0,0.0,0.0,0.0,0.0,0.0,0.0,0.0,0.0,0.0,0.0,0.0,0.0,0.0,0.0,0.0,0.0,0.0,0.0,0.0,0.0,0.0,0.0,0.0,0.0,0.0,0.0,0.0,0.0,0.0,0.0,0.0,0.0,0.0,0.0,0.0,0.0,0.0,0.0,0.0,0.0,0.0,0.0,0.0,0.0,0.0,0.0,0.0,0.0,0.0,0.0,0.0,0.0,0.0,0.0,0.0,0.0,0.0,0.0,0.0,0.0,0.0,0.0,0.0,0.0,0.0,0.0,0.0,0.0,0.0,0.0,0.0,0.0,0.0,0.0,0.0,0.0,0.0,0.0,0.0,0.0,0.0,0.0,0.0,0.0,0.0,0.0,0.0,0.0,0.0,0.0,0.0,0.0,0.0,0.0,0.0,0.0,0.0,0.0,0.0,0.0,0.0,0.0,0.0,0.0,0.0,0.0,0.0,0.0,0.0,0.0,0.0,0.0,0.0,0.0,0.0,0.0,0.0,0.0,0.0,0.0,0.0,0.0,0.0,0.0,0.0,0.0,0.0,0.0,0.0,0.0,0.0,0.0,0.0,0.0,0.0,0.0,0.0,0.0,0.0,0.0,0.0,0.0,0.0,0.0,0.0,0.0,0.0,0.0,0.0,0.0,0.0,0.0,0.0,0.0,0.0,0.0,0.0,0.0,0.0,0.0,0.0,0.0,0.0,0.0,0.0,0.0,0.0,0.0,0.0,0.0,0.0,0.0,0.0,0.0,0.0,0.0,0.0,0.0,0.0,0.0,0.0,0.0,0.0,0.0,0.0,0.0,0.0,0.0,0.0,0.0,0.0,0.0,0.0,0.0,0.0,0.0,0.0,0.0,0.0,0.0,0.0,0.0,0.0,0.0,0.0,0.0,0.0,0.0,0.0,0.0,0.0,0.0,0.0,0.0,0.0,0.0,0.0,0.0,0.0,0.0,2.0625,0.0,0.0,0.0,0.0,0.0,0.0,0.0,0.0,0.0,0.0,0.0,0.0,0.0,0.0,0.0,0.0,0.0,0.0,0.0,0.0,0.0,0.0,0.0,0.0,0.0,0.0,0.0,0.0,0.0,0.0,0.0,0.0,0.0,0.0,0.0,0.0,0.0,0.0,0.0,0.0,0.0,0.0,0.0,0.0,0.0,0.0,0.0,0.0,0.0,0.0,0.0,0.0,0.0,0.0,0.0,0.0,0.0,0.0,0.0,0.0,0.0,0.0,0.0,0.0,0.0,0.0,0.0,0.0,0.0,0.0,0.0,0.0,0.0,0.0,0.0,0.0,0.0,0.0,0.0,0.0,0.0,0.0,0.0,0.0,0.0,0.0,0.0,0.0,0.0,0.0,0.0,0.0,0.0,0.0,0.0,0.0,0.0,0.0,0.0,0.0,0.0,0.0,0.0,0.0,0.0,0.0,0.0,0.0,0.0,0.0,2.0605,2.0605,2.0605,2.0605,2.0644,0.0,0.0,0.0,0.0,0.0,0.0,0.0,0.0,0.0,0.0,0.0,0.0,0.0,0.0,0.0,0.0,0.0,0.0,0.0,0.0,0.0,0.0,0.0,0.0,0.0,0.0,0.0,0.0,0.0,0.0,0.0,0.0,0.0,0.0,0.0,0.0,0.0,0.0,0.0,0.0,0.0,0.0,0.0,0.0,0.0,0.0,0.0,0.0,0.0,0.0,0.0,0.0,0.0,0.0,0.0,0.0,0.0,0.0,0.0,0.0,0.0,0.0,0.0,0.0,0.0,0.0,0.0,0.0,0.0,0.0,0.0,0.0,0.0,0.0,0.0,0.0,0.0,0.0,0.0,0.0,0.0,0.0,0.0,0.0,0.0,0.0,0.0,0.0,0.0,0.0,0.0,0.0,0.0,0.0,0.0,0.0,0.0,0.0,0.0,0.0,0.0,0.0,0.0,0.0,0.0,0.0,0.0,0.0,0.0,0.0,0.0,0.0,2.1172,2.1348,2.1758,0.0,0.0,0.0,0.0,0.0,0.0,0.0,0.0,0.0,0.0,0.0,0.0,0.0,0.0,0.0,0.0,0.0,0.0,0.0,0.0,0.0,0.0,0.0,0.0,0.0,0.0,0.0,0.0,0.0,0.0,0.0,0.0,0.0,0.0,0.0,0.0,0.0,0.0,0.0,0.0,0.0,0.0,0.0,0.0,0.0,0.0,0.0,0.0,0.0,0.0,0.0,0.0,0.0,0.0,0.0,0.0,0.0,0.0,0.0,0.0,0.0,0.0,0.0,0.0,0.0,0.0,0.0,0.0,0.0,0.0,0.0,0.0,0.0,0.0,0.0,0.0,0.0,0.0,0.0,0.0,0.0,0.0,0.0,0.0,0.0,0.0,0.0,0.0,0.0,0.0,0.0,0.0,0.0,0.0,0.0,0.0,0.0,0.0,0.0,0.0,0.0,0.0,0.0,0.0,0.0,0.0,0.0,0.0,0.0,0.0,2.1348,2.291,2.2891,0.0,2.5059,0.0,0.0,0.0,0.0,0.0,0.0,0.0,0.0,0.0,0.0,0.0,0.0,0.0,0.0,0.0,0.0,0.0,0.0,0.0,0.0,0.0,0.0,0.0,0.0,0.0,0.0,0.0,0.0,0.0,0.0,0.0,0.0,0.0,0.0,0.0,0.0,0.0,0.0,0.0,0.0,0.0,0.0,0.0,0.0,0.0,0.0,0.0,0.0,0.0,0.0,0.0,0.0,0.0,0.0,0.0,0.0,0.0,0.0,0.0,0.0,0.0,0.0,0.0,0.0,0.0,0.0,0.0,0.0,0.0,0.0,0.0,0.0,0.0,0.0,0.0,0.0,0.0,0.0,0.0,0.0,0.0,0.0,0.0,0.0,0.0,0.0,0.0,0.0,0.0,0.0,0.0,0.0,0.0,0.0,0.0,0.0,0.0,0.0,0.0,0.0,0.0,0.0,0.0,0.0,0.0,0.0,0.0,0.0,0.0,0.0,2.1191,2.2402,2.2402,2.2949,0.0,0.0,0.0,0.0,0.0,0.0,0.0,0.0,0.0,0.0,0.0,0.0,0.0,0.0,0.0,0.0,0.0,0.0,0.0,0.0,0.0,0.0,0.0,0.0,0.0,0.0,0.0,0.0,0.0,0.0,0.0,0.0,0.0,0.0,0.0,0.0,0.0,0.0,0.0,0.0,0.0,0.0,0.0,0.0,0.0,0.0,0.0,0.0,0.0,0.0,0.0,0.0,0.0,0.0,0.0,0.0,0.0,0.0,0.0,0.0,0.0,0.0,0.0,0.0,0.0,0.0,0.0,0.0,0.0,0.0,0.0,0.0,0.0,0.0,0.0,0.0,0.0,0.0,0.0,0.0,0.0,0.0,0.0,0.0,0.0,0.0,0.0,0.0,0.0,0.0,0.0,0.0,0.0,0.0,0.0,0.0,0.0,0.0,0.0,0.0,0.0,0.0,0.0,0.0,0.0,0.0,0.0,0.0,0.0,0.0,2.1191,2.1465,2.2519,2.2383,2.2754,2.3769,0.0,0.0,0.0,0.0,0.0,0.0,0.0,0.0,0.0,0.0,0.0,0.0,0.0,0.0,0.0,0.0,0.0,0.0,0.0,0.0,0.0,0.0,0.0,0.0,0.0,0.0,0.0,0.0,0.0,0.0,0.0,0.0,0.0,0.0,0.0,0.0,0.0,0.0,0.0,0.0,0.0,0.0,0.0,0.0,0.0,0.0,0.0,0.0,0.0,0.0,0.0,0.0,0.0,0.0,0.0,0.0,0.0,0.0,0.0,0.0,0.0,0.0,0.0,0.0,0.0,0.0,0.0,0.0,0.0,0.0,0.0,0.0,0.0,0.0,0.0,0.0,0.0,0.0,0.0,0.0,0.0,0.0,0.0,0.0,0.0,0.0,0.0,0.0,0.0,0.0,0.0,0.0,0.0,0.0,0.0,0.0,0.0,0.0,0.0,0.0,0.0,0.0,0.0,0.0,0.0,0.0,0.0,0.0,2.4004,2.2637,2.2617,2.4141,2.3535,2.3887,0.0,0.0,0.0,0.0,0.0,0.0,0.0,0.0,0.0,0.0,0.0,0.0,0.0,0.0,0.0,0.0,0.0,0.0,0.0,0.0,0.0,0.0,0.0,0.0,0.0,0.0,0.0,0.0,0.0,0.0,0.0,0.0,0.0,0.0,0.0,0.0,0.0,0.0,0.0,0.0,0.0,0.0,0.0,0.0,0.0,0.0,0.0,0.0,0.0,0.0,0.0,0.0,0.0,0.0,0.0,0.0,0.0,0.0,0.0,0.0,0.0,0.0,0.0,0.0,0.0,0.0,0.0,0.0,0.0,0.0,0.0,0.0,0.0,0.0,0.0,0.0,0.0,0.0,0.0,0.0,0.0,0.0,0.0,0.0,0.0,0.0,0.0,0.0,0.0,0.0,0.0,0.0,0.0,0.0,0.0,0.0,0.0,0.0,0.0,0.0,0.0,0.0,0.0,0.0,0.0,0.0,0.0,0.0,0.0,2.1914,2.1894,2.2167,2.2689,2.2479,2.289,0.0,0.0,0.0,0.0,0.0,0.0,0.0,0.0,0.0,0.0,0.0,0.0,0.0,0.0,0.0,0.0,0.0,0.0,0.0,0.0,0.0,0.0,0.0,0.0,0.0,0.0,0.0,0.0,0.0,0.0,0.0,0.0,0.0,0.0,0.0,0.0,0.0,0.0,0.0,0.0,0.0,0.0,0.0,0.0,0.0,0.0,0.0,0.0,0.0,0.0,0.0,0.0,0.0,0.0,0.0,0.0,0.0,0.0,0.0,0.0,0.0,0.0,0.0,0.0,0.0,0.0,0.0,0.0,0.0,0.0,0.0,0.0,0.0,0.0,0.0,0.0,0.0,0.0,0.0,0.0,0.0,0.0,0.0,0.0,0.0,0.0,0.0,0.0,0.0,0.0,0.0,0.0,0.0,0.0,0.0,0.0,0.0,0.0,0.0,0.0,0.0,0.0,0.0,0.0,0.0,0.0,0.0,0.0,0.0,2.0995,0.0,2.1848,2.1802,2.1851,2.2263,0.0,0.0,0.0,0.0,0.0,0.0,0.0,0.0,0.0,0.0,0.0,0.0,0.0,0.0,0.0,0.0,0.0,0.0,0.0,0.0,0.0,0.0,0.0,0.0,0.0,0.0,0.0,0.0,0.0,0.0,0.0,0.0,0.0,0.0,0.0,0.0,0.0,0.0,0.0,0.0,0.0,0.0,0.0,0.0,0.0,0.0,0.0,0.0,0.0,0.0,0.0,0.0,0.0,0.0,0.0,0.0,0.0,0.0,0.0,0.0,0.0,0.0,0.0,0.0,0.0,0.0,0.0,0.0,0.0,0.0,0.0,0.0,0.0,0.0,0.0,0.0,0.0,0.0,0.0,0.0,0.0,0.0,0.0,0.0,0.0,0.0,0.0,0.0,0.0,0.0,0.0,0.0,0.0,0.0,0.0,0.0,0.0,0.0,0.0,0.0,0.0,0.0,0.0,0.0,0.0,0.0,0.0,0.0,2.0975,2.1708,2.1786,2.1843,2.1843,2.1844,2.2221,0.0,0.0,0.0,0.0,0.0,0.0,0.0,0.0,0.0,0.0,0.0,0.0,0.0,0.0,0.0,0.0,0.0,0.0,0.0,0.0,0.0,0.0,0.0,0.0,0.0,0.0,0.0,0.0,0.0,0.0,0.0,0.0,0.0,0.0,0.0,0.0,0.0,0.0,0.0,0.0,0.0,0.0,0.0,0.0,0.0,0.0,0.0,0.0,0.0,0.0,0.0,0.0,0.0,0.0,0.0,0.0,0.0,0.0,0.0,0.0,0.0,0.0,0.0,0.0,0.0,0.0,0.0,0.0,0.0,0.0,0.0,0.0,0.0,0.0,0.0,0.0,0.0,0.0,0.0,0.0,0.0,0.0,0.0,0.0,0.0,0.0,0.0,0.0,0.0,0.0,0.0,0.0,0.0,0.0,0.0,0.0,0.0,0.0,0.0,0.0,0.0,0.0,0.0,0.0,0.0,0.0,0.0,0.0,0.0,2.0901,2.1485,2.2626,2.4175,2.2113,2.2422,0.0,0.0,0.0,0.0,0.0,0.0,0.0,0.0,0.0,0.0,0.0,0.0,0.0,0.0,0.0,0.0,0.0,0.0,0.0,0.0,0.0,0.0,0.0,0.0,0.0,0.0,0.0,0.0,0.0,0.0,0.0,0.0,0.0,0.0,0.0,0.0,0.0,0.0,0.0,0.0,0.0,0.0,0.0,0.0,0.0,0.0,0.0,0.0,0.0,0.0,0.0,0.0,0.0,0.0,0.0,0.0,0.0,0.0,0.0,0.0,0.0,0.0,0.0,0.0,0.0,0.0,0.0,0.0,0.0,0.0,0.0,0.0,0.0,0.0,0.0,0.0,0.0,0.0,0.0,0.0,0.0,0.0,0.0,0.0,0.0,0.0,0.0,0.0,0.0,0.0,0.0,0.0,0.0,0.0,0.0,0.0,0.0,0.0,0.0,0.0,0.0,0.0,0.0,0.0,0.0,0.0,0.0,0.0,0.0,2.239,2.2268,2.2941,2.4548,2.2828,2.3032,2.5343,0.0,0.0,0.0,0.0,0.0,0.0,0.0,0.0,0.0,0.0,0.0,0.0,0.0,0.0,0.0,0.0,0.0,0.0,0.0,0.0,0.0,0.0,0.0,0.0,0.0,0.0,0.0,0.0,0.0,0.0,0.0,0.0,0.0,0.0,0.0,0.0,0.0,0.0,0.0,0.0,0.0,0.0,0.0,0.0,0.0,0.0,0.0,0.0,0.0,0.0,0.0,0.0,0.0,0.0,0.0,0.0,0.0,0.0,0.0,0.0,0.0,0.0,0.0,0.0,0.0,0.0,0.0,0.0,0.0,0.0,0.0,0.0,0.0,0.0,0.0,0.0,0.0,0.0,0.0,0.0,0.0,0.0,0.0,0.0,0.0,0.0,0.0,0.0,0.0,0.0,0.0,0.0,0.0,0.0,0.0,0.0,0.0,0.0,0.0,0.0,0.0,0.0,0.0,0.0,0.0,0.0,0.0,0.0,2.573,2.4216,2.3513,2.3559,2.4137,2.4118,0.0,0.0,0.0,0.0,0.0,0.0,0.0,0.0,0.0,0.0,0.0,0.0,0.0,0.0,0.0,0.0,0.0,0.0,0.0,0.0,0.0,0.0,0.0,0.0,0.0,0.0,0.0,0.0,0.0,0.0,0.0,0.0,0.0,0.0,0.0,0.0,0.0,0.0,0.0,0.0,0.0,0.0,0.0,0.0,0.0,0.0,0.0,0.0,0.0,0.0,0.0,0.0,0.0,0.0,0.0,0.0,0.0,0.0,0.0,0.0,0.0,0.0,0.0,0.0,0.0,0.0,0.0,0.0,0.0,0.0,0.0,0.0,0.0,0.0,0.0,0.0,0.0,0.0,0.0,0.0,0.0,0.0,0.0,0.0,0.0,0.0,0.0,0.0,0.0,0.0,0.0,0.0,0.0,0.0,0.0,0.0,0.0,0.0,0.0,0.0,0.0,0.0,0.0,0.0,0.0,0.0,0.0,0.0,0.0,2.7463,2.8894,2.9314,2.8667,2.7145,2.6477,0.0,0.0,0.0,0.0,0.0,0.0,0.0,0.0,0.0,0.0,0.0,0.0,0.0,0.0,0.0,0.0,0.0,0.0,0.0,0.0,0.0,0.0,0.0,0.0,0.0,0.0,0.0,0.0,0.0,0.0,0.0,0.0,0.0,0.0,0.0,0.0,0.0,0.0,0.0,0.0,0.0,0.0,0.0,0.0,0.0,0.0,0.0,0.0,0.0,0.0,0.0,0.0,0.0,0.0,0.0,0.0,0.0,0.0,0.0,0.0,0.0,0.0,0.0,0.0,0.0,0.0,0.0,0.0,0.0,0.0,0.0,0.0,0.0,0.0,0.0,0.0,0.0,0.0,0.0,0.0,0.0,0.0,0.0,0.0,0.0,0.0,0.0,0.0,0.0,0.0,0.0,0.0,0.0,0.0,0.0,0.0,0.0,0.0,0.0,0.0,0.0,0.0,0.0,0.0,0.0,0.0,0.0,0.0,2.6869,2.9795,3.273,3.398,3.3488,3.1714,2.974,0.0,0.0,0.0,0.0,0.0,0.0,0.0,0.0,0.0,0.0,0.0,0.0,0.0,0.0,0.0,0.0,0.0,0.0,0.0,0.0,0.0,0.0,0.0,0.0,0.0,0.0,0.0,0.0,0.0,0.0,0.0,0.0,0.0,0.0,0.0,0.0,0.0,0.0,0.0,0.0,0.0,0.0,0.0,0.0,0.0,0.0,0.0,0.0,0.0,0.0,0.0,0.0,0.0,0.0,0.0,0.0,0.0,0.0,0.0,0.0,0.0,0.0,0.0,0.0,0.0,0.0,0.0,0.0,0.0,0.0,0.0,0.0,0.0,0.0,0.0,0.0,0.0,0.0,0.0,0.0,0.0,0.0,0.0,0.0,0.0,0.0,0.0,0.0,0.0,0.0,0.0,0.0,0.0,0.0,0.0,0.0,0.0,0.0,0.0,0.0,0.0,0.0,0.0,0.0,0.0,0.0,0.0,0.0,2.878,3.218,3.5543,3.738,3.7516,3.6331,3.2999,0.0,0.0,0.0,0.0,0.0,0.0,0.0,0.0,0.0,0.0,0.0,0.0,0.0,0.0,0.0,0.0,0.0,0.0,0.0,0.0,0.0,0.0,0.0,0.0,0.0,0.0,0.0,0.0,0.0,0.0,0.0,0.0,0.0,0.0,0.0,0.0,0.0,0.0,0.0,0.0,0.0,0.0,0.0,0.0,0.0,0.0,0.0,0.0,0.0,0.0,0.0,0.0,0.0,0.0,0.0,0.0,0.0,0.0,0.0,0.0,0.0,0.0,0.0,0.0,0.0,0.0,0.0,0.0,0.0,0.0,0.0,0.0,0.0,0.0,0.0,0.0,0.0,0.0,0.0,0.0,0.0,0.0,0.0,0.0,0.0,0.0,0.0,0.0,0.0,0.0,0.0,0.0,0.0,0.0,0.0,0.0,0.0,0.0,0.0,0.0,0.0,0.0,0.0,0.0,0.0,0.0,0.0,0.0,2.9619,3.3063,3.5875,3.7963,3.9287,3.5808,3.2389,0.0,0.0,0.0,0.0,0.0,0.0,0.0,0.0,0.0,0.0,0.0,0.0,0.0,0.0,0.0,0.0,0.0,0.0,0.0,0.0,0.0,0.0,0.0,0.0,0.0,0.0,0.0,0.0,0.0,0.0,0.0,0.0,0.0,0.0,0.0,0.0,0.0,0.0,0.0,0.0,0.0,0.0,0.0,0.0,0.0,0.0,0.0,0.0,2.8535,0.0,0.0,0.0,0.0,0.0,0.0,0.0,0.0,0.0,0.0,0.0,0.0,0.0,0.0,0.0,0.0,0.0,0.0,0.0,0.0,0.0,0.0,0.0,0.0,0.0,0.0,0.0,0.0,0.0,0.0,0.0,0.0,0.0,0.0,0.0,0.0,0.0,0.0,0.0,0.0,0.0,0.0,0.0,0.0,0.0,0.0,0.0,0.0,0.0,0.0,0.0,0.0,0.0,0.0,0.0,0.0,0.0,0.0,0.0,3.0911,3.3945,3.6951,3.9155,4.0225,3.5869,3.2567,0.0,0.0,0.0,0.0,0.0,0.0,0.0,0.0,0.0,0.0,0.0,0.0,0.0,0.0,0.0,0.0,0.0,0.0,0.0,0.0,0.0,0.0,0.0,0.0,0.0,0.0,0.0,0.0,0.0,0.0,0.0,0.0,0.0,0.0,0.0,0.0,0.0,0.0,0.0,0.0,0.0,0.0,0.0,0.0,0.0,0.0,0.0,0.0,0.0,0.0,0.0,0.0,0.0,0.0,0.0,0.0,0.0,0.0,0.0,0.0,0.0,0.0,0.0,0.0,0.0,0.0,0.0,0.0,0.0,0.0,0.0,0.0,0.0,0.0,0.0,0.0,0.0,0.0,0.0,0.0,0.0,0.0,0.0,0.0,0.0,0.0,0.0,0.0,0.0,0.0,0.0,0.0,0.0,0.0,0.0,0.0,0.0,0.0,0.0,0.0,0.0,0.0,0.0,0.0,0.0,0.0,0.0,2.9074,3.195,3.4668,3.785,3.984,4.0423,3.5909,3.2937,3.1934,0.0,0.0,0.0,0.0,0.0,0.0,0.0,0.0,0.0,0.0,0.0,0.0,0.0,0.0,0.0,0.0,0.0,0.0,0.0,0.0,0.0,0.0,0.0,0.0,0.0,0.0,0.0,0.0,0.0,0.0,0.0,0.0,0.0,0.0,0.0,0.0,0.0,0.0,2.401,2.6197,0.0,0.0,0.0,0.0,0.0,0.0,0.0,0.0,2.9126,0.0,0.0,0.0,0.0,0.0,0.0,0.0,0.0,0.0,0.0,0.0,0.0,0.0,0.0,0.0,0.0,0.0,0.0,0.0,0.0,0.0,0.0,0.0,0.0,0.0,0.0,0.0,0.0,0.0,0.0,0.0,0.0,0.0,0.0,0.0,0.0,0.0,0.0,0.0,0.0,0.0,0.0,0.0,0.0,0.0,0.0,0.0,0.0,0.0,0.0,0.0,0.0,0.0,0.0,0.0,0.0,2.7832,2.9157,3.1403,3.4627,3.6676,3.7787,3.784,3.499,3.2664,3.0997,0.0,0.0,0.0,0.0,0.0,0.0,0.0,0.0,0.0,0.0,0.0,0.0,0.0,0.0,0.0,0.0,0.0,0.0,0.0,0.0,0.0,0.0,0.0,0.0,0.0,0.0,0.0,0.0,0.0,0.0,0.0,0.0,0.0,0.0,0.0,0.0,0.0,0.0,0.0,2.6227,2.7874,0.0,0.0,0.0,0.0,0.0,0.0,0.0,0.0,2.9266,0.0,0.0,0.0,0.0,0.0,0.0,0.0,0.0,0.0,0.0,0.0,0.0,0.0,0.0,0.0,0.0,0.0,0.0,0.0,0.0,0.0,0.0,0.0,0.0,0.0,0.0,0.0,0.0,0.0,0.0,0.0,0.0,0.0,0.0,0.0,0.0,0.0,0.0,0.0,0.0,0.0,0.0,0.0,0.0,0.0,0.0,0.0,0.0,0.0,0.0,0.0,0.0,0.0,0.0,0.0,2.8222,2.9608,3.1698,3.4609,3.5956,3.6833,3.7218,3.3939,3.169,0.0,0.0,0.0,0.0,0.0,0.0,0.0,0.0,0.0,0.0,0.0,0.0,0.0,0.0,0.0,0.0,0.0,0.0,0.0,0.0,0.0,0.0,0.0,0.0,0.0,0.0,0.0,0.0,0.0,0.0,0.0,0.0,0.0,0.0,0.0,0.0,0.0,0.0,0.0,0.0,2.6501,2.7822,2.789,0.0,0.0,0.0,0.0,0.0,0.0,2.9892,2.9754,0.0,0.0,0.0,0.0,0.0,0.0,0.0,0.0,0.0,0.0,0.0,0.0,0.0,0.0,0.0,0.0,0.0,0.0,0.0,0.0,0.0,0.0,0.0,0.0,0.0,0.0,0.0,0.0,0.0,0.0,0.0,0.0,0.0,0.0,0.0,0.0,0.0,0.0,0.0,0.0,0.0,0.0,0.0,0.0,0.0,0.0,0.0,0.0,0.0,0.0,0.0,0.0,0.0,0.0,0.0,2.8279,2.9843,3.1777,3.4121,3.5195,3.5819,3.5933,3.2672,3.0618,0.0,0.0,0.0,0.0,0.0,0.0,0.0,0.0,0.0,0.0,0.0,0.0,0.0,0.0,0.0,0.0,0.0,0.0,0.0,0.0,0.0,0.0,0.0,0.0,0.0,0.0,0.0,0.0,0.0,0.0,0.0,0.0,0.0,0.0,0.0,0.0,0.0,0.0,0.0,0.0,0.0,2.8082,2.8129,2.9394,0.0,0.0,0.0,0.0,3.0295,3.0527,0.0,0.0,0.0,0.0,0.0,0.0,0.0,0.0,0.0,0.0,0.0,0.0,0.0,0.0,0.0,0.0,0.0,0.0,0.0,0.0,0.0,0.0,0.0,0.0,0.0,0.0,0.0,0.0,0.0,0.0,0.0,0.0,0.0,0.0,0.0,0.0,0.0,0.0,0.0,0.0,0.0,0.0,0.0,0.0,0.0,0.0,0.0,0.0,0.0,0.0,0.0,0.0,0.0,0.0,0.0,0.0,2.8241,2.9238,3.0625,3.2441,3.4023,3.3826,3.1715,3.1146,2.9815,0.0,0.0,0.0,0.0,0.0,0.0,0.0,0.0,0.0,0.0,0.0,0.0,0.0,0.0,0.0,0.0,0.0,0.0,0.0,0.0,0.0,0.0,0.0,0.0,0.0,0.0,0.0,0.0,0.0,0.0,0.0,0.0,0.0,0.0,0.0,0.0,0.0,0.0,0.0,0.0,0.0,2.8956,2.8969,2.9726,3.0296,0.0,0.0,3.1161,3.0335,3.1485,0.0,0.0,0.0,0.0,0.0,0.0,0.0,0.0,0.0,0.0,0.0,0.0,0.0,0.0,0.0,0.0,0.0,0.0,0.0,0.0,0.0,0.0,0.0,0.0,0.0,0.0,0.0,0.0,0.0,0.0,0.0,0.0,0.0,0.0,0.0,0.0,0.0,0.0,0.0,0.0,0.0,0.0,0.0,0.0,0.0,0.0,0.0,0.0,0.0,0.0,0.0,0.0,0.0,0.0,0.0,2.656,2.8241,2.8672,2.9941,3.209,3.2422,3.203,3.0934,2.9956,2.8641,0.0,0.0,0.0,0.0,0.0,0.0,0.0,0.0,0.0,0.0,0.0,0.0,0.0,0.0,0.0,0.0,0.0,0.0,0.0,0.0,0.0,0.0,0.0,0.0,0.0,0.0,0.0,0.0,0.0,0.0,0.0,0.0,0.0,0.0,0.0,0.0,0.0,0.0,0.0,0.0,0.0,0.0,2.9184,3.0212,0.0,0.0,0.0,3.2108,3.1733,0.0,0.0,0.0,0.0,0.0,0.0,0.0,0.0,0.0,0.0,0.0,0.0,0.0,0.0,0.0,0.0,0.0,0.0,0.0,0.0,0.0,0.0,0.0,0.0,0.0,0.0,0.0,0.0,0.0,0.0,0.0,0.0,0.0,0.0,0.0,0.0,0.0,0.0,0.0,0.0,0.0,0.0,0.0,0.0,0.0,0.0,0.0,0.0,0.0,0.0,0.0,0.0,0.0,0.0,0.0,0.0,0.0,2.8241,2.8301,2.9453,3.1758,3.123,3.0683,3.025,2.898,0.0,0.0,0.0,0.0,0.0,0.0,0.0,0.0,0.0,0.0,0.0,0.0,0.0,0.0,0.0,0.0,0.0,0.0,0.0,0.0,0.0,0.0,0.0,0.0,0.0,0.0,0.0,2.5308,0.0,0.0,0.0,0.0,0.0,0.0,0.0,0.0,0.0,0.0,0.0,0.0,0.0,0.0,3.0481,2.9827,3.0996,3.193,0.0,0.0,3.3142,3.2578,3.2974,3.2924,0.0,0.0,0.0,0.0,0.0,0.0,0.0,0.0,0.0,0.0,0.0,0.0,0.0,0.0,0.0,0.0,0.0,0.0,0.0,0.0,0.0,0.0,0.0,0.0,0.0,0.0,0.0,0.0,0.0,0.0,0.0,0.0,0.0,0.0,0.0,0.0,0.0,0.0,0.0,0.0,0.0,0.0,0.0,0.0,0.0,0.0,0.0,0.0,0.0,0.0,0.0,0.0,0.0,0.0,0.0,2.8222,2.8301,2.918,3.0918,3.0936,3.0133,2.8532,2.8349,2.7472,0.0,0.0,0.0,0.0,0.0,0.0,0.0,0.0,0.0,0.0,0.0,0.0,0.0,0.0,0.0,0.0,0.0,0.0,0.0,0.0,0.0,0.0,0.0,0.0,0.0,0.0,0.0,0.0,0.0,0.0,0.0,0.0,0.0,0.0,0.0,0.0,0.0,0.0,0.0,0.0,0.0,3.1574,3.1456,3.2228,3.2807,0.0,0.0,3.4316,3.1973,3.3585,3.429,3.1905,0.0,0.0,0.0,0.0,0.0,0.0,0.0,0.0,0.0,0.0,0.0,0.0,0.0,0.0,0.0,0.0,0.0,0.0,0.0,0.0,0.0,0.0,0.0,0.0,0.0,0.0,0.0,0.0,0.0,0.0,0.0,0.0,0.0,0.0,0.0,0.0,0.0,0.0,0.0,0.0,0.0,0.0,0.0,0.0,0.0,0.0,0.0,0.0,0.0,0.0,0.0,0.0,0.0,2.6562,2.8262,2.8301,2.914,3.082,3.0916,3.0075,2.8334,2.826,2.7642,0.0,0.0,0.0,0.0,0.0,0.0,0.0,0.0,0.0,0.0,0.0,0.0,0.0,0.0,0.0,0.0,0.0,0.0,0.0,0.0,0.0,0.0,0.0,0.0,0.0,0.0,0.0,0.0,2.5308,2.5654,2.6524,0.0,0.0,0.0,0.0,0.0,0.0,0.0,0.0,0.0,0.0,3.3631,3.2571,3.357,0.0,0.0,3.4597,3.4986,3.4061,3.4691,3.4772,3.3264,3.3307,0.0,0.0,0.0,0.0,0.0,0.0,0.0,0.0,0.0,0.0,0.0,0.0,0.0,0.0,0.0,0.0,0.0,0.0,0.0,0.0,0.0,0.0,0.0,0.0,0.0,0.0,0.0,0.0,0.0,0.0,0.0,0.0,0.0,0.0,0.0,0.0,0.0,0.0,0.0,0.0,0.0,0.0,0.0,0.0,0.0,0.0,0.0,0.0,0.0,0.0,0.0,0.0,2.6562,2.8281,2.8281,2.914,3.0858,3.0916,3.0075,2.839,2.8257,2.7671,0.0,0.0,0.0,0.0,0.0,0.0,0.0,0.0,0.0,0.0,0.0,0.0,0.0,0.0,0.0,0.0,0.0,0.0,0.0,0.0,0.0,0.0,0.0,0.0,0.0,0.0,0.0,0.0,2.6294,2.6676,2.7274,0.0,0.0,0.0,0.0,0.0,0.0,0.0,0.0,0.0,0.0,3.4687,3.3474,3.4528,3.5226,3.4644,3.5213,3.5561,3.505,3.5166,3.4998,3.4148,0.0,0.0,0.0,0.0,0.0,0.0,0.0,0.0,0.0,0.0,0.0,0.0,0.0,0.0,0.0,0.0,0.0,0.0,0.0,0.0,0.0,0.0,0.0,0.0,0.0,0.0,0.0,2.2816,0.0,0.0,2.405,0.0,0.0,0.0,0.0,0.0,0.0,0.0,0.0,0.0,0.0,0.0,0.0,0.0,0.0,0.0,0.0,0.0,0.0,0.0,0.0,0.0,0.0,2.6562,2.8262,2.8281,2.914,3.0838,3.0915,3.0073,2.8409,2.8286,2.7437,2.564,0.0,0.0,0.0,0.0,0.0,0.0,0.0,0.0,0.0,0.0,0.0,0.0,0.0,0.0,0.0,0.0,0.0,0.0,0.0,0.0,0.0,0.0,0.0,0.0,0.0,0.0,2.7887,2.8562,2.8973,0.0,0.0,0.0,0.0,0.0,0.0,0.0,0.0,0.0,0.0,3.3808,3.4306,3.4202,3.4926,3.5486,3.5355,3.6081,3.6063,3.4362,3.4772,3.5009,0.0,0.0,0.0,0.0,0.0,0.0,0.0,0.0,0.0,0.0,0.0,0.0,0.0,0.0,0.0,0.0,0.0,0.0,0.0,0.0,0.0,0.0,0.0,0.0,0.0,0.0,0.0,2.4464,2.4464,0.0,0.0,0.0,0.0,0.0,0.0,0.0,0.0,0.0,0.0,0.0,2.6386,2.7009,0.0,0.0,0.0,0.0,0.0,0.0,0.0,0.0,0.0,0.0,0.0,0.0,2.6562,2.8203,2.8281,2.914,3.0837,3.0914,3.0345,2.9205,2.8561,2.7629,2.6345,0.0,0.0,0.0,0.0,0.0,0.0,0.0,0.0,0.0,0.0,0.0,0.0,0.0,0.0,0.0,0.0,0.0,0.0,0.0,0.0,0.0,0.0,0.0,0.0,0.0,2.8706,0.0,0.0,0.0,0.0,0.0,0.0,0.0,0.0,0.0,0.0,0.0,3.3669,3.3879,3.5126,3.5777,3.5158,3.5773,3.6093,0.0,0.0,0.0,0.0,0.0,0.0,0.0,0.0,0.0,0.0,0.0,0.0,0.0,0.0,3.4541,3.4233,3.405,3.3975,3.3951,0.0,0.0,0.0,0.0,0.0,0.0,0.0,0.0,0.0,0.0,0.0,0.0,0.0,0.0,2.5495,0.0,2.5457,0.0,0.0,0.0,0.0,0.0,0.0,0.0,0.0,2.6946,2.753,2.7812,2.8711,2.9148,0.0,2.8835,2.8112,0.0,0.0,0.0,0.0,0.0,0.0,0.0,0.0,2.6562,2.8203,2.8281,2.916,3.0817,3.0914,3.0481,2.9612,2.8706,2.8009,2.765,2.8133,2.8666,0.0,0.0,0.0,0.0,0.0,0.0,0.0,0.0,0.0,0.0,0.0,0.0,0.0,0.0,0.0,0.0,0.0,0.0,0.0,0.0,0.0,0.0,0.0,3.0194,0.0,0.0,0.0,0.0,0.0,0.0,0.0,0.0,0.0,3.2848,3.3784,3.4607,3.484,3.5836,3.6306,3.5621,0.0,0.0,0.0,0.0,0.0,0.0,0.0,3.6291,3.6273,3.6726,3.708,3.7068,3.7045,3.7037,3.7025,0.0,0.0,3.5372,3.5373,3.5466,3.5466,3.5126,3.4987,3.5506,3.519,3.4816,0.0,0.0,0.0,0.0,0.0,0.0,0.0,0.0,2.5538,2.5959,0.0,2.5793,0.0,0.0,0.0,0.0,2.5446,2.5538,0.0,0.0,2.7982,2.8847,2.9706,3.0566,3.0976,3.0937,3.0098,2.9687,2.9609,2.8808,0.0,0.0,0.0,0.0,0.0,0.0,2.6602,2.8301,2.8379,2.9179,3.0836,3.0914,3.0481,2.9612,2.8726,2.8604,2.9338,2.9367,2.9417,2.9434,2.9119,0.0,0.0,0.0,0.0,0.0,0.0,0.0,0.0,0.0,0.0,0.0,0.0,0.0,0.0,0.0,0.0,0.0,0.0,0.0,0.0,3.1548,0.0,0.0,0.0,0.0,0.0,0.0,0.0,0.0,0.0,0.0,3.4689,3.4709,3.5,3.5772,0.0,0.0,0.0,0.0,3.5948,3.6631,3.6741,3.7019,3.7759,3.7916,3.7965,3.7886,0.0,0.0,3.7997,3.7955,3.7909,3.7863,3.7849,3.7367,3.5725,3.6064,3.6519,3.6557,3.7045,3.7612,3.7674,3.7452,3.7416,2.7716,0.0,0.0,0.0,0.0,2.6911,2.7166,2.7241,2.7914,2.7607,2.6653,2.6487,0.0,0.0,0.0,0.0,0.0,0.0,2.7305,2.8786,2.9723,3.0625,3.1465,3.2305,3.2676,3.2637,3.1855,3.1465,3.1426,3.0566,2.9082,2.7012,0.0,0.0,0.0,0.0,2.748,2.9121,2.9219,2.9765,3.0877,3.0916,3.0484,2.9617,2.9301,2.9237,2.9457,2.943,2.9669,3.0208,3.0157,0.0,0.0,0.0,0.0,0.0,0.0,0.0,0.0,0.0,0.0,0.0,0.0,0.0,0.0,0.0,0.0,0.0,0.0,0.0,3.2584,3.2816,3.3025,0.0,0.0,0.0,0.0,0.0,0.0,0.0,0.0,0.0,3.6505,3.6508,3.6361,0.0,0.0,3.7384,3.6624,3.7022,3.7458,3.7674,3.7706,0.0,3.8003,3.8064,3.8054,3.7973,3.8504,3.9104,3.965,3.9285,3.8893,3.8885,3.8331,3.7721,3.7322,3.7329,3.7476,3.7443,3.7626,3.7779,3.7779,3.7738,3.7731,3.0019,2.8091,2.767,2.7808,2.8311,2.8813,2.9204,2.953,2.9745,2.9643,2.9258,2.8634,2.8039,2.7559,2.7194,0.0,0.0,0.0,2.922,3.0618,3.1483,3.2363,3.3203,3.4043,3.4434,3.4394,3.3594,3.3203,3.3164,3.1992,3.0449,2.8555,0.0,0.0,2.75,2.7519,2.8379,3.0039,3.0117,3.0683,3.1854,3.1561,3.0973,3.0148,3.0077,3.0044,3.0056,2.9991,3.0167,3.0671,3.069,3.0915,0.0,0.0,0.0,0.0,0.0,0.0,0.0,0.0,0.0,0.0,0.0,3.0588,3.0607,0.0,0.0,0.0,3.2304,3.2968,3.3846,3.387,0.0,0.0,0.0,0.0,0.0,0.0,0.0,3.6177,3.7075,3.7726,3.7807,3.8102,3.7958,3.7077,3.7835,3.8233,3.7584,0.0,3.8346,3.8655,3.8705,3.8786,3.9084,3.9133,3.9084,3.8995,3.9396,3.9896,4.0381,4.0092,3.9796,3.97,3.9308,3.8931,3.8935,3.8927,3.8903,3.8861,3.9112,3.9338,3.9338,3.955,3.9671,3.2645,3.2644,3.1732,3.122,3.1017,3.1075,3.1589,3.2223,3.1462,3.1928,3.3156,3.1544,3.0774,3.0658,2.9887,0.0,2.9749,3.0608,3.1556,3.2519,3.334,3.418,3.5039,3.584,3.6172,3.6074,3.5215,3.4766,3.4609,3.3066,3.1894,3.1094,3.0293,2.9434,2.8555,2.8574,2.9414,3.1055,3.1113,3.1855,3.3339,3.2634,3.1833,3.1031,3.0989,3.0947,3.0907,3.0843,3.0801,3.0801,3.0801,3.0828,3.1012,0.0,0.0,0.0,0.0,0.0,0.0,0.0,0.0,0.0,0.0,0.0,0.0,0.0,0.0,0.0,3.3533,0.0,3.4921,3.5018,0.0,0.0,0.0,3.7399,3.7399,3.8102,3.8611,3.8611,0.0,0.0,3.8689,3.9391,3.9644,3.8903,3.8806,3.8735,3.8532,3.8599,3.8851,3.9615,3.9701,3.9959,4.0439,4.0566,4.0498,4.0373,4.0492,4.0458,4.0492,4.0473,4.0496,4.0445,4.0488,4.0442,4.0479,4.0388,4.0492,4.0449,4.108,4.1608,4.1412,4.2002,4.2319,3.7441,3.7968,3.7087,3.5549,3.3747,3.4389,3.4799,3.496,3.4747,3.4189,3.3313,3.2296,3.1461,3.0854,3.0639,3.0915,3.16,3.2421,3.3613,3.5098,3.5976,3.6836,3.7656,3.7891,3.7617,3.6953,3.6113,3.5351,3.4668,3.3633,3.3008,3.2812,3.2578,3.1758,3.0371,3.0937,3.1777,3.2793,3.2812,3.2988,3.3379,3.3203,3.2675,3.1854,3.1814,3.1519,3.0927,3.0887,3.0845,3.0801,3.0801,3.1403,3.2685,3.3568,0.0,0.0,0.0,0.0,0.0,0.0,0.0,0.0,0.0,3.3103,3.3085,0.0,3.3397,0.0,3.4606,3.6012,3.7517,3.7674,0.0,0.0,3.8161,3.8298,3.8278,3.8473,3.8611,3.8611,3.9137,3.9507,3.9507,4.025,4.0738,4.0523,4.0504,4.0217,3.9523,3.9979,4.0442,4.0602,4.0638,4.0728,4.0854,4.0792,4.0652,4.0542,4.0496,4.0492,4.0492,4.0492,4.0492,4.05,4.0504,4.0489,4.05,4.0489,4.0754,4.1307,4.1605,4.1494,4.088,4.1877,4.2659,3.9453,3.9883,3.9785,3.8904,3.7522,3.7228,3.7111,3.7092,3.71,3.6576,3.5659,3.4843,3.4004,3.3184,3.3164,3.3418,3.3926,3.4766,3.5859,3.7168,3.7656,3.8125,3.8594,3.8613,3.834,3.7851,3.6992,3.6328,3.582,3.498,3.4551,3.457,3.4941,3.4473,3.3203,3.2891,3.3144,3.3965,3.4375,3.4355,3.4004,3.3984,3.3574,3.2714,3.2674,3.2457,3.2026,3.202,3.1997,3.1937,3.1212,3.1581,3.3299,3.4138,3.4626,0.0,0.0,0.0,0.0,0.0,0.0,0.0,0.0,0.0,0.0,0.0,3.529,3.5681,3.6599,3.7555,3.8513,3.8611,3.8611,3.8611,3.8903,3.9137,3.9137,3.947,3.9704,3.9723,4.0113,4.0366,4.0405,4.0796,4.1108,4.1108,4.1108,4.0906,4.0495,4.0761,4.1053,4.1033,4.1034,4.1022,4.0997,4.083,4.0694,4.0614,4.0542,4.0492,4.0492,4.0492,4.0492,4.0492,4.0492,4.0492,4.0492,4.0492,4.0685,4.1081,4.1511,4.1675,4.163,4.2337,4.2817,4.0137,4.0273,4.0937,4.125,4.1211,3.9609,3.8926,3.8926,3.8809,3.8711,3.8555,3.7793,3.7051,3.6328,3.6348,3.6348,3.6387,3.7226,3.8027,3.8769,3.8867,3.8945,3.8926,3.8945,3.8867,3.873,3.8008,3.7578,3.7441,3.6699,3.6328,3.6367,3.7109,3.709,3.6289,3.4707,3.4219,3.4863,3.5625,3.5625,3.4883,3.4863,3.4453,3.3633,3.3573,3.3512,3.3416,3.3388,3.3382,3.3347,3.1955,3.1874,3.3494,3.5094,3.5387,0.0,3.4607,0.0,0.0,0.0,0.0,0.0,0.0,0.0,0.0,3.7027,3.7828,3.8689,3.8747,3.8806,3.8903,3.8923,3.8903,3.8942,3.9547,3.9976,3.9995,4.0659,4.1108,4.1108,4.1108,4.1108,4.1069,4.1108,4.1108,4.1108,4.1108,4.1088,4.1089,4.1087,4.1106,4.1108,4.1108,4.1053,4.1016,4.0842,4.0721,4.0687,4.0593,4.0496,4.0492,4.0492,4.0492,4.0492,4.0492,4.0492,4.0492,4.0492,4.0492,4.0569,4.1104,4.175,4.2381,4.2842,4.303,4.1328,4.1875,4.1406,4.1582,4.207,4.1113,4.0703,4.0664,3.9961,3.9258,3.8594,3.8418,3.8262,3.8105,3.8105,3.8105,3.8164,3.9004,3.9492,3.9687,4.0371,4.0703,4.0723,4.0703,4.0351,3.9668,3.9492,3.9043,3.8359,3.8203,3.8105,3.8105,3.8281,3.8281,3.8066,0.0,0.0,0.0,3.5918,3.5918,3.5762,3.5762,3.5332,3.4492,3.4473,0.0,3.3436,3.3394,3.339,3.3386,3.3088,0.0,0.0,0.0,0.0,0.0,0.0,0.0,0.0,0.0,0.0,0.0,3.7966,3.7927,3.8102,3.8259,3.8688,3.9488,3.9566,3.9879,4.0543,4.0621,4.0621,4.0641,4.0757,4.0855,4.0855,4.1011,4.1108,4.1108,4.1108,4.1108,4.1108,4.1108,4.1108,4.1108,4.1108,4.1108,4.1108,4.1108,4.1108,4.1108,4.1108,4.1075,4.1003,4.0872,4.0759,4.0696,4.06,4.0504,4.0492,4.0492,4.0492,4.0492,4.0492,4.0492,4.0492,4.0492,4.0492,4.0492,4.065,4.0808,4.0987,4.2137,4.288,4.1797,4.1797,4.1797,4.1797,0.0,4.1387,4.1191,4.1152,4.0742,4.0293,3.9883,3.9883,3.9648,3.9238,3.9238,3.9238,3.9258,3.9687,4.0137,4.0566,4.0996,4.1191,4.1191,4.1191,4.0976,4.0547,4.0098,3.9668,3.9238,3.8809,3.8828,3.9238,3.9238,3.9258,3.9199,3.7969,3.6875,3.6016,3.6016,3.6016,3.6016,3.6016,3.5801,3.5371,3.5351,0.0,0.0,0.0,0.0,0.0,0.0,0.0,0.0,3.6813,0.0,3.7888,3.7946,3.8122,3.8552,3.8611,3.8767,3.9156,3.9606,3.9644,3.9235,3.9586,3.9997,4.0385,4.0444,4.062,4.105,4.1108,4.1108,4.1108,4.1108,4.1108,4.1108,4.1108,4.1108,4.1108,4.1108,4.1108,4.1108,4.1108,4.1108,4.1108,4.1108,4.1108,4.1108,4.1108,4.1108,4.1108,4.1108,4.1075,4.1003,4.0888,4.0793,4.0718,4.0581,4.0508,4.0492,4.0492,4.0492,4.0492,4.0492,4.0492,4.0492,4.0492,4.0492,4.0492,4.0492,4.0489,4.0523,4.1208,4.185,4.1797,4.125,4.1914,4.1816,4.1191,4.1191,4.1191,4.1191,4.1191,0.0,0.0,4.1191,4.0801,4.0137,4.0137,4.0137,4.0117,4.0117,4.0508,4.1191,4.1191,4.1191,4.1191,4.1191,4.1191,4.1152,4.0469,4.0137,4.0117,3.9394,3.9336,3.9863,4.0039,4.0039,3.9824,3.8496,3.7324,3.6484,3.6172,3.6094,3.6211,3.6094,3.6055,3.6211,3.623,3.623,3.623,3.6385,3.6461,3.6461,3.6372,3.6677,3.7479,3.8298,3.8747,3.8805,3.8825,3.8864,3.904,3.904,3.9333,3.9976,4.0699,4.0796,4.0093,4.0699,4.1108,4.1108,4.1108,4.1108,4.1108,4.1108,4.1108,4.1108,4.1108,4.1108,4.1108,4.1108,4.1108,4.1108,4.1108,4.1108,4.1108,4.1108,4.1108,4.1108,4.1108,4.1108,4.1108,4.1108,4.1108,4.1108,4.1108,4.1095,4.1001,4.0876,4.078,4.0715,4.0581,4.05,4.0492,4.0492,4.0492,4.0492,4.0492,4.0492,4.0492,4.0492,4.0492,4.0492,4.0492,4.0492,4.0492,4.0512,4.0781,4.1308,4.1211,4.1328,4.1308,4.1191,4.1191,4.1191,4.1191,4.1191,4.1191,4.1191,4.1191,4.1133,4.1035,4.1016,4.1016,4.1035,4.1016,4.1094,4.1191,4.1191,4.1191,4.1191,4.1191,4.1191,4.1191,4.1074,4.1016,4.0996,4.0879,4.0527,4.0059,4.0644,4.0625,3.9941,3.9668,3.9101,3.8223,3.6777,3.6367,3.707,3.6387,3.6348,3.707,3.7109,3.7129,3.7129,3.7812,3.8221,3.8221,3.7742,3.7754,3.8383,3.8984,3.9389,3.9604,3.9624,3.9957,4.068,4.0738,4.0796,4.0913,4.103,4.105,4.0933,4.103,4.1108,4.1108,4.1108,4.1108,4.1108,4.1108,4.1108,4.1108,4.1108,4.1108,4.1108,4.1108,4.1108,4.1108,4.1108,4.1108,4.1108,4.1108,4.1108,4.1108,4.1108,4.1108,4.1108,4.1108,4.1108,4.1108,4.1108,4.1072,4.0973,4.0826,4.071,4.0706,4.0574,4.0492,4.0492,4.0492,4.0492,4.0492,4.0492,4.0492,4.0492,4.0492,4.0492,4.0492,4.0492,4.0492,4.0492,4.0492,4.0554,4.1191,4.1191,4.1191,4.1191,4.1191,4.1191,4.1191,4.1191,4.1191,4.1191,4.1191,4.1191,4.1191,4.1191,4.1191,4.1191,4.1191,4.1191,4.1191,4.1191,4.1191,4.1191,4.1191,4.1191,4.1191,4.1191,4.1191,4.1191,4.1191,4.1191,4.0976,4.0644,4.0996,4.0781,3.9941,3.9883,3.9473,3.8613,3.7812,3.7598,3.7969,3.7617,3.7598,3.7988,3.8008,3.8008,3.8008,3.8379,3.8613,3.8612,3.863,3.8822,3.9268,3.9951,4.0379,4.0495,4.0514,4.0688,4.1075,4.1111,4.1108,4.1108,4.1108,4.1108,4.1108,4.1108,4.1108,4.1108,4.1108,4.1108,4.1108,4.1108,4.1108,4.1108,4.1108,4.1108,4.1108,4.1108,4.1108,4.1108,4.1108,4.1108,4.1108,4.1108,4.1108,4.1108,4.1108,4.1108,4.1108,4.1108,4.1108,4.1108,4.1071,4.1011,4.0904,4.0791,4.0684,4.0602,4.0546,4.05,4.0492,4.0492,4.0492,4.0492,4.0492,4.0492,4.0492,4.0492,4.0492,4.0492,4.0492,4.0492,4.0492,4.0492,4.0492,4.1191,4.1191,4.1191,4.1191,4.1191,4.1191,4.1191,4.1191,4.1191,4.1191,4.1191,4.1191,4.1191,4.1191,4.1191,4.1191,4.1191,4.1191,4.1191,4.1191,4.1191,4.1191,4.1191,4.1191,4.1191,4.1191,4.1191,4.1191,4.1191,4.1191,4.1191,4.1172,4.1016,4.0644,4.0195,4.0195,3.9863,3.9219,3.918,3.9101,3.8906,3.8711,3.8691,3.8887,3.8887,3.8887,3.8887,3.9082,3.918,3.9199,3.957,3.9902,4.0171,4.0758,4.1109,4.1107,4.1107,4.1105,4.1099,4.1114,4.1111,4.1108,4.1108,4.1108,4.1108,4.1108,4.1108,4.1108,4.1108,4.1108,4.1108,4.1108,4.1108,4.1108,4.1108,4.1108,4.1108,4.1108,4.1108,4.1108,4.1108,4.1108,4.1108,4.1108,4.1108,4.1108,4.1108,4.1108,4.1108,4.1108,4.1108,4.1072,4.1021,4.0926,4.082,4.0709,4.0622,4.0508,4.0496,4.0492,4.0492,4.0492,4.0492,4.0492,4.0492,4.0492,4.0492,4.0492,4.0492,4.0492,4.0492,4.0492,4.0492,4.0492,4.0492,4.1191,4.1191,4.1191,4.1191,4.1191,4.1191,4.1191,4.1191,4.1191,4.1191,4.1191,4.1191,4.1191,4.1191,4.1191,4.1191,4.1191,4.1191,4.1191,4.1191,4.1191,4.1191,4.1191,4.1191,4.1191,4.1191,4.1191,4.1191,4.1191,4.1191,4.1191,4.1094,4.041,4.041,4.0976,4.1055,4.1016,4.0957,4.0957,4.0566,3.9785,3.9023,3.8984,3.9746,3.9766,3.9785,3.9785,4.0547,4.0957,4.0957,4.0917,4.0936,4.0974,4.105,4.1107,4.1107,4.1107,4.1105,4.11,4.1117,4.1115,4.1109,4.1108,4.1108,4.1108,4.1108,4.1108,4.1108,4.1108,4.1108,4.1108,4.1108,4.1108,4.1108,4.1108,4.1108,4.1108,4.1108,4.1108,4.1108,4.1108,4.1108,4.1108,4.1108,4.1108,4.1108,4.1108,4.1108,4.1108,4.1108,4.1095,4.102,4.096,4.0885,4.0803,4.0617,4.0534,4.0496,4.0492,4.0492,4.0492,4.0492,4.0492,4.0492,4.0492,4.0492,4.0492,4.0492,4.0492,4.0492,4.0492,4.0492,4.0492,4.0492,4.0512,4.1191,4.1191,4.1191,4.1191,4.1191,4.1191,4.1191,4.1191,4.1191,4.1191,4.1191,4.1191,4.1191,4.1191,4.1191,4.1191,4.1191,4.1191,4.1191,4.1191,4.1191,4.1191,4.1191,4.1191,4.1191,4.1191,4.1191,4.1191,4.1191,4.1191,4.1191,4.1172,4.084,4.0859,4.1191,4.1191,4.1191,4.1191,4.1191,4.1035,4.0684,4.0332,4.0293,4.0625,4.0664,4.0664,4.0703,4.1035,4.1191,4.1191,4.1172,4.1171,4.1152,4.1152,4.1171,4.1151,4.1109,4.1105,4.1099,4.1116,4.1111,4.1109,4.1108,4.1108,4.1108,4.1108,4.1108,4.1108,4.1108,4.1108,4.1108,4.1108,4.1108,4.1108,4.1108,4.1108,4.1108,4.1108,4.1108,4.1108,4.1108,4.1108,4.1108,4.1108,4.1108,4.1108,4.1108,4.1108,4.1108,4.1108,4.1072,4.1009,4.0964,4.0888,4.077,4.0606,4.0519,4.0496,4.0492,4.0492,4.0492,4.0492,4.0492,4.0492,4.0492,4.0492,4.0492,4.0492,4.0492,4.0492,4.0492,4.0492,4.0492,4.0492,4.0646,4.1191,4.1191,4.1191,4.1191,4.1191,4.1191,4.1191,4.1191,4.1191,4.1191,4.1191,4.1191,4.1191,4.1191,4.1191,4.1191,4.1191,4.1191,4.1191,4.1191,4.1191,4.1191,4.1191,4.119,4.117,4.117,4.1152,4.1152,4.117,4.117,4.119,4.1191,4.1191,4.1191,4.1191,4.1191,4.1191,4.1191,4.1191,4.1191,4.1191,4.1191,4.1191,4.1191,4.1191,4.1191,4.1191,4.1191,4.1191,4.1191,4.1191,4.1191,4.1191,4.1191,4.1191,4.1191,4.1131,4.1107,4.1102,4.1116,4.1111,4.1109,4.1108,4.1108,4.1108,4.1108,4.1108,4.1108,4.1108,4.1108,4.1108,4.1108,4.1108,4.1108,4.1108,4.1108,4.1108,4.1108,4.1108,4.1108,4.1108,4.1108,4.1108,4.1108,4.1108,4.1108,4.1108,4.1108,4.1108,4.1108,4.1075,4.1024,4.0992,4.0922,4.0765,4.0652,4.0559,4.0526,4.0526,4.0492,4.0492,4.0492,4.0492,4.0492,4.0492,4.0492,4.0492,4.0492,4.0492,4.0492,4.0492,4.0492,4.0492,4.0627,4.1085,4.1191,4.1191,4.1191,4.1191,4.1191,4.1191,4.1191,4.1191,4.1191,4.1191,4.1191,4.1191,4.1191,4.1191,4.1191,4.1191,4.1191,4.1191,4.1191,4.1191,4.1191,4.1191,4.1191,4.1123,4.1111,4.1108,4.1045,4.1065,4.1114,4.1114,4.1123,4.1191,4.1191,4.1191,4.1191,4.1191,4.1191,4.1191,4.1191,4.1191,4.1191,4.1191,4.1191,4.1191,4.1191,4.1191,4.1191,4.1191,4.1191,4.1191,4.1191,4.1191,4.1191,4.1191,4.1191,4.1191,4.1151,4.111,4.1107,4.1101,4.1115,4.111,4.1108,4.1108,4.1108,4.1108,4.1108,4.1108,4.1108,4.1108,4.1108,4.1108,4.1108,4.1108,4.1108,4.1108,4.1108,4.1108,4.1108,4.1108,4.1108,4.1108,4.1108,4.1108,4.1108,4.1108,4.1108,4.1108,4.1108,4.1108,4.1072,4.1034,4.0987,4.0946,4.0815,4.0703,4.0678,4.0619,4.0538,4.0492,4.0492,4.0492,4.0492,4.0492,4.0492,4.0492,4.0492,4.0492,4.0492,4.0492,4.0492,4.0492,4.0492,4.1239,4.1735,4.1191,4.1191,4.1191,4.1191,4.1191,4.1191,4.1191,4.1191,4.1191,4.1191,4.1191,4.1191,4.1191,4.1191,4.1191,4.1191,4.1191,4.1191,4.1191,4.1191,4.1191,4.119,4.1122,4.1113,4.1075,4.1051,4.1042,4.1087,4.1148,4.1169,4.119,4.1191,4.1191,4.1191,4.1191,4.1191,4.1191,4.1191,4.1191,4.1191,4.1191,4.1191,4.1191,4.1191,4.1191,4.1191,4.1191,4.1191,4.1191,4.1191,4.1191,4.1191,4.1191,4.1191,4.1191,4.115,4.111,4.1106,4.1099,4.1114,4.1111,4.1109,4.1108,4.1108,4.1108,4.1108,4.1108,4.1108,4.1108,4.1108,4.1108,4.1108,4.1108,4.1108,4.1108,4.1108,4.1108,4.1108,4.1108,4.1108,4.1108,4.1108,4.1108,4.1108,4.1108,4.1108,4.1108,4.1108,4.1108,4.1108,4.1076,4.1011,4.0989,4.0948,4.0824,4.0757,4.0678,4.0588,4.0523,4.05,4.0492,4.0492,4.0492,4.0492,4.0492,4.0492,4.0492,4.0492,4.0492,4.0492,4.0492,4.0512,4.0492,4.1412,4.2062,4.1191,4.1191,4.1191,4.1191,4.1191,4.1191,4.1191,4.1191,4.1191,4.1191,4.1191,4.1191,4.1191,4.1191,4.1191,4.1191,4.1191,4.1191,4.1191,4.1191,4.1191,4.117,4.1182,4.1368,4.131,4.1087,4.1059,4.1109,4.1168,4.1169,4.1171,4.1191,4.1191,4.1191,4.1191,4.1191,4.1191,4.1191,4.1191,4.1191,4.1191,4.1191,4.1191,4.1191,4.1191,4.1191,4.1191,4.1191,4.1191,4.1191,4.1191,4.1191,4.1191,4.1172,4.1151,4.1109,4.1106,4.1102,4.1114,4.111,4.1108,4.1108,4.1108,4.1108,4.1108,4.1108,4.1108,4.1108,4.1108,4.1108,4.1108,4.1108,4.1108,4.1108,4.1108,4.1108,4.1108,4.1108,4.1108,4.1108,4.1108,4.1108,4.1108,4.1108,4.1108,4.1108,4.1108,4.1108,4.1108,4.1108,4.1056,4.1007,4.0992,4.0922,4.0813,4.0736,4.0694,4.0615,4.0523,4.05,4.0492,4.0492,4.0492,4.0492,4.0492,4.0492,4.0492,4.0492,4.0492,4.0492,4.055,4.0569,4.1012,4.1724,4.247,4.1191,4.1191,4.1191,4.1191,4.1191,4.1191,4.1191,4.1191,4.1191,4.1191,4.1191,4.1191,4.1191,4.1211,4.1289,4.1269,4.1328,4.1445,4.1406,4.1328,4.123,4.125,4.1327,4.1881,4.191,4.1376,4.1163,4.117,4.135,4.1393,4.138,4.1269,4.1328,4.1308,4.1211,4.1191,4.1191,4.1191,4.1191,4.1191,4.1191,4.1191,4.1191,4.1191,4.1191,4.1191,4.1191,4.1191,4.1191,4.1191,4.1191,4.1191,4.1191,4.1152,4.1111,4.1208,4.1163,4.1158,4.1214,4.1249,4.1265,4.1382,4.1226,4.1285,4.144,4.1323,4.1245,4.1265,4.1147,4.1108,4.1108,4.1206,4.1187,4.1108,4.1108,4.1108,4.1108,4.1108,4.1108,4.1108,4.1108,4.1108,4.1108,4.1108,4.1108,4.1108,4.1108,4.1108,4.1108,4.1104,4.1048,4.101,4.094,4.0865,4.0773,4.0713,4.0687,4.0662,4.0568,4.0492,4.0492,4.0492,4.0492,4.0492,4.0492,4.0492,4.0492,4.0492,4.0492,4.0512,4.0569,4.0819,4.145,4.2162,4.3124,4.1191,4.1191,4.1191,4.1191,4.1191,4.1191,4.1191,4.1191,4.1191,4.1191,4.1191,4.1191,4.1191,4.1348,4.1758,4.2012,4.207,4.2598,4.2598,4.2051,4.1504,4.1502,4.1924,4.2189,4.2496,4.2768,4.2799,4.281,4.2847,4.2832,4.2636,4.2129,4.2031,4.1719,4.1289,4.1191,4.1191,4.1191,4.1191,4.1191,4.1191,4.1191,4.1191,4.1191,4.1191,4.1191,4.1191,4.1191,4.1191,4.1191,4.1191,4.1191,4.1191,4.1132,4.1403,4.1928,4.2001,4.2307,4.2713,4.2359,4.226,4.2592,4.2337,4.2357,4.269,4.2319,4.2025,4.1908,4.1479,4.1108,4.1187,4.1675,4.1752,4.1187,4.1108,4.1207,4.1265,4.1206,4.1108,4.1108,4.1108,4.1108,4.1128,4.1167,4.1265,4.1246,4.1226,4.1226,4.1164,4.1201,4.1021,4.0992,4.0898,4.1005,4.1119,4.1163,4.1112,4.1058,4.0931,4.0589,4.055,4.0685,4.0646,4.0492,4.0492,4.0492,4.0492,4.0492,4.0492,4.0685,4.0877,4.1296,4.1816,4.2585,4.3489,4.0703,4.0723,4.0723,4.0723,4.0762,4.1035,4.1191,4.1191,4.1191,4.1191,4.1191,4.1191,4.1191,4.1367,4.2031,4.2383,4.25,4.332,4.3594,4.3242,4.2519,4.2266,4.2453,4.2706,4.3272,4.3878,4.378,4.3649,4.3711,4.3691,4.3418,4.2949,4.2891,4.2676,4.2168,4.2129,4.2031,4.1719,4.1641,4.1523,4.1269,4.1191,4.1191,4.1191,4.1191,4.1191,4.1191,4.1191,4.1191,4.1191,4.1191,4.1191,4.1172,4.1424,4.1831,4.2295,4.272,4.3143,4.3588,4.3158,4.3079,4.349,4.3197,4.3099,4.349,4.3118,4.2903,4.2767,4.2436,4.2065,4.2182,4.2513,4.2591,4.2163,4.2143,4.2065,4.2065,4.2065,4.2104,4.2162,4.2144,4.2065,4.2065,4.2065,4.2066,4.2066,4.2066,4.2035,4.1947,4.174,4.1645,4.1526,4.1496,4.1602,4.1668,4.1651,4.1566,4.1489,4.1408,4.0935,4.0627,4.1008,4.1143,4.0666,4.0492,4.0492,4.0492,4.0492,4.0512,4.0839,4.1147,4.1527,4.1989,4.2797,4.3701,3.9961,3.9922,3.998,4.0117,4.0195,4.0879,4.1191,4.1191,4.1191,4.1191,4.1191,4.1191,4.1191,4.1367,4.2051,4.2461,4.2656,4.3476,4.4238,4.4492,4.4121,4.3555,4.2988,4.3476,4.4219,4.4844,4.4355,4.4004,4.416,4.4141,4.3808,4.3789,4.3769,4.3691,4.3476,4.3633,4.3164,4.2558,4.248,4.2109,4.1406,4.1328,4.125,4.123,4.1191,4.1191,4.1191,4.1191,4.1191,4.1191,4.1191,4.1211,4.1346,4.1968,4.2354,4.2721,4.3377,4.3784,4.3861,4.3861,4.388,4.4056,4.3939,4.3841,4.4017,4.3958,4.3783,4.3744,4.3587,4.3529,4.3509,4.3705,4.3744,4.3841,4.3568,4.3451,4.3626,4.3548,4.3373,4.347,4.3666,4.3646,4.3431,4.347,4.347,4.3469,4.3408,4.3266,4.3115,4.2741,4.2684,4.2496,4.2212,4.2228,4.2314,4.2337,4.2277,4.2258,4.2162,4.1797,4.1108,4.1335,4.1754,4.1239,4.0858,4.0762,4.0743,4.0935,4.0896,4.1008,4.1316,4.1623,4.2412,4.3412,4.4085,4.0488,3.998,4.0605,4.0859,4.0879,4.1133,4.1191,4.1191,4.1191,4.1191,4.1211,4.1191,4.125,4.1308,4.209,4.2734,4.3437,4.4258,4.4707,4.5039,4.5488,4.5098,4.4473,4.4531,4.5098,4.5762,4.5586,4.5605,4.5605,4.5488,4.5234,4.4668,4.4648,4.4336,4.3828,4.3808,4.3613,4.3379,4.3359,4.293,4.2226,4.209,4.1777,4.123,4.123,4.1211,4.1211,4.1191,4.1191,4.1191,4.1191,4.1504,4.201,4.2358,4.3017,4.4047,4.447,4.4953,4.5305,4.4972,4.4972,4.5481,4.4953,4.4952,4.5539,4.5012,4.4738,4.4543,4.4154,4.3763,4.3841,4.4309,4.4855,4.5324,4.4583,4.3861,4.3822,4.3705,4.3705,4.3705,4.3783,4.3841,4.388,4.3861,4.3861,4.3837,4.3797,4.3742,4.3739,4.3404,4.3199,4.3092,4.2913,4.2934,4.2967,4.3001,4.3028,4.3047,4.3028,4.2989,4.2239,4.1754,4.2177,4.2297,4.2066,4.1935,4.1912,4.1985,4.1754,4.1489,4.2239,4.2931,4.3647,4.4494,4.484,4.0039,3.9941,4.043,4.0664,4.0703,4.1055,4.1191,4.1191,4.1191,4.1191,4.1269,4.1582,4.1699,4.1836,4.2969,4.373,4.4316,4.5156,4.5547,4.5605,4.6016,4.5937,4.5605,4.5566,4.582,4.623,4.6289,4.6269,4.625,4.6289,4.5996,4.5644,4.5547,4.5273,4.4922,4.4785,4.457,4.4316,4.4219,4.3808,4.3027,4.2949,4.248,4.1894,4.168,4.1601,4.1289,4.1191,4.1328,4.1601,4.1738,4.2069,4.2885,4.3331,4.397,4.4999,4.5306,4.5813,4.6086,4.5792,4.5813,4.6105,4.5753,4.5852,4.6066,4.5792,4.5539,4.548,4.5031,4.4837,4.4856,4.5265,4.5734,4.6008,4.5383,4.4798,4.4798,4.4856,4.4798,4.4798,4.4798,4.4778,4.4778,4.4778,4.4778,4.483,4.4855,4.4752,4.4612,4.4114,4.3824,4.3878,4.3802,4.3819,4.406,4.4167,4.4109,4.409,4.3797,4.3816,4.3355,4.2562,4.2658,4.3008,4.3066,4.3066,4.2889,4.2735,4.2581,4.272,4.3528,4.3951,4.4417,4.4859,4.5263,3.918,3.9922,4.0,4.0039,4.0234,4.0879,4.1191,4.1191,4.1191,4.1289,4.1504,4.209,4.2383,4.2637,4.3828,4.4805,4.4961,4.5566,4.6035,4.6152,4.6289,4.6211,4.6172,4.6133,4.6191,4.6289,4.6289,4.6289,4.6289,4.6289,4.6289,4.6172,4.6211,4.6269,4.5976,4.6113,4.584,4.5254,4.5137,4.4687,4.4004,4.3789,4.3301,4.2363,4.2031,4.1855,4.1523,4.1445,4.1718,4.2498,4.2459,4.2847,4.3678,4.4593,4.5019,4.5248,4.5813,4.6223,4.6301,4.6242,4.6242,4.6262,4.6262,4.6301,4.6262,4.6184,4.6145,4.6125,4.6281,4.6066,4.6066,4.6223,4.6223,4.6262,4.6203,4.6262,4.6301,4.6301,4.6301,4.6301,4.6242,4.6281,4.6301,4.63,4.622,4.553,4.5543,4.5393,4.5209,4.4866,4.4847,4.5083,4.4942,4.4737,4.5056,4.5421,4.5306,4.5186,4.4705,4.4513,4.434,4.3797,4.3489,4.3528,4.3974,4.3874,4.3412,4.3316,4.3393,4.3489,4.4008,4.4167,4.4359,4.4801,4.5229,3.9726,3.9961,4.0625,4.0918,4.0957,4.1113,4.1191,4.1191,4.1191,4.1523,4.207,4.2344,4.2832,4.3457,4.4004,4.4336,4.5039,4.5391,4.5605,4.6269,4.6289,4.6289,4.6328,4.6367,4.6348,4.6308,4.6289,4.6289,4.6289,4.6289,4.6289,4.6289,4.6289,4.6289,4.6289,4.6289,4.625,4.6035,4.5996,4.5527,4.4902,4.4668,4.4023,4.2695,4.1953,4.1836,4.209,4.2148,4.2558,4.3024,4.2945,4.3218,4.4459,4.4944,4.5332,4.5834,4.6086,4.6301,4.6301,4.6301,4.6301,4.6301,4.6301,4.6301,4.6301,4.6301,4.6301,4.6301,4.6301,4.6301,4.6301,4.6301,4.6301,4.6301,4.6301,4.6301,4.6301,4.6301,4.6301,4.6301,4.6301,4.6301,4.6301,4.6278,4.6244,4.6167,4.6056,4.5916,4.5706,4.5475,4.5494,4.5594,4.546,4.5171,4.5306,4.5594,4.5594,4.5594,4.5282,4.5071,4.4898,4.4763,4.4359,4.4571,4.5114,4.4763,4.4147,4.4474,4.4686,4.459,4.447,4.4744,4.4975,4.5171,4.5359,4.0137,4.0547,4.1016,4.1191,4.1191,4.1191,4.1191,4.1191,4.1191,4.166,4.2383,4.2773,4.3496,4.4336,4.4746,4.5254,4.5508,4.5625,4.584,4.6367,4.6641,4.6699,4.6601,4.6992,4.7207,4.6484,4.6289,4.6289,4.6289,4.6289,4.6289,4.6289,4.6289,4.6289,4.6289,4.6289,4.6289,4.6269,4.6289,4.6055,4.5683,4.5586,4.5078,4.375,4.2851,4.2617,4.2969,4.3027,4.3496,4.3922,4.3785,4.4056,4.5295,4.5604,4.5875,4.6166,4.6301,4.6301,4.6301,4.6301,4.6301,4.6301,4.6301,4.6301,4.6301,4.6301,4.6301,4.6301,4.6301,4.6301,4.6301,4.6301,4.6301,4.6301,4.6301,4.6301,4.6301,4.6301,4.6301,4.6301,4.6301,4.6301,4.6279,4.6251,4.6187,4.6123,4.5966,4.5848,4.5806,4.56,4.5547,4.5594,4.5594,4.5537,4.5537,4.5594,4.5594,4.5594,4.5518,4.5398,4.534,4.5225,4.5071,4.5321,4.5498,4.5441,4.5051,4.5475,4.5552,4.5282,4.5167,4.5479,4.5575,4.5494,4.5802,4.041,4.1191,4.1191,4.1269,4.1348,4.1269,4.1289,4.1406,4.1387,4.1953,4.2656,4.3516,4.4375,4.5215,4.5859,4.625,4.6269,4.625,4.6269,4.6367,4.6855,4.6758,4.6719,4.7441,4.7637,4.6445,4.6543,4.6543,4.6348,4.6328,4.6426,4.6445,4.6308,4.6465,4.6484,4.6328,4.6289,4.6289,4.6289,4.6289,4.6211,4.6191,4.5762,4.5137,4.3984,4.3652,4.3808,4.3945,4.4237,4.4916,4.4898,4.54,4.5995,4.6301,4.6301,4.6301,4.6301,4.6301,4.6301,4.6301,4.6301,4.6301,4.6301,4.6301,4.6301,4.6301,4.6301,4.6301,4.6301,4.6301,4.6301,4.6301,4.6301,4.6301,4.6301,4.6301,4.6301,4.6301,4.6301,4.6301,4.6301,4.6301,4.6248,4.6212,4.6139,4.6062,4.5922,4.5821,4.5796,4.5881,4.5907,4.5859,4.5898,4.571,4.5671,4.5652,4.5652,4.5686,4.5667,4.5633,4.5614,4.5479,4.5359,4.546,4.5556,4.5498,4.5498,4.5537,4.5575,4.5594,4.5652,4.5706,4.5744,4.5782,4.6297,4.041,4.1191,4.1191,4.1582,4.2031,4.1504,4.1641,4.2148,4.2207,4.2676,4.3535,4.4394,4.5215,4.5918,4.6172,4.6289,4.6289,4.6387,4.6426,4.6426,4.6738,4.6641,4.6894,4.7715,4.748,4.6797,4.6992,4.7168,4.6426,4.6308,4.6562,4.7012,4.6699,4.6641,4.6855,4.6719,4.6367,4.6348,4.6387,4.6426,4.6308,4.6269,4.623,4.582,4.4668,4.4336,4.4668,4.4785,4.4863,4.5052,4.5657,4.6022,4.6228,4.6301,4.6301,4.6301,4.6301,4.6301,4.6301,4.6301,4.6301,4.6301,4.6301,4.6301,4.6301,4.6359,4.6457,4.6398,4.6359,4.6301,4.6301,4.6301,4.6301,4.6301,4.6301,4.6301,4.6301,4.6301,4.6301,4.6301,4.6301,4.6279,4.6245,4.6174,4.6076,4.6078,4.608,4.5997,4.5968,4.6209,4.6473,4.6394,4.6297,4.6013,4.5748,4.5729,4.5729,4.5821,4.5802,4.571,4.5671,4.5614,4.5594,4.5614,4.5614,4.5575,4.5575,4.5594,4.5594,4.5594,4.5706,4.5879,4.6163,4.6471,4.7086,4.0391,4.123,4.1641,4.2031,4.2383,4.25,4.2715,4.3047,4.3086,4.3555,4.4297,4.4863,4.5469,4.6113,4.6289,4.6289,4.6387,4.6836,4.6953,4.7012,4.7402,4.7637,4.7676,4.8476,4.832,4.8125,4.8437,4.793,4.6465,4.6308,4.668,4.6816,4.6855,4.6992,4.6992,4.6973,4.666,4.6543,4.6699,4.6738,4.6367,4.6328,4.6308,4.6016,4.5586,4.5332,4.5527,4.5664,4.5683,4.5776,4.6067,4.6256,4.6306,4.6301,4.6301,4.6301,4.6301,4.6301,4.6301,4.6301,4.6301,4.6301,4.632,4.6301,4.6437,4.6671,4.6943,4.6866,4.6437,4.6301,4.6301,4.6301,4.6301,4.6301,4.632,4.634,4.634,4.634,4.6418,4.6457,4.6437,4.6414,4.6249,4.6147,4.6018,4.6055,4.622,4.6248,4.6253,4.6759,4.7278,4.7163,4.7048,4.6624,4.6379,4.6321,4.6263,4.6263,4.622,4.6109,4.6033,4.6109,4.5859,4.5648,4.5629,4.5898,4.5629,4.5648,4.5633,4.5725,4.6129,4.6509,4.6831,4.7255,4.787,4.0391,4.125,4.1894,4.2344,4.2734,4.3379,4.3769,4.3945,4.3965,4.4316,4.4941,4.5234,4.5683,4.6152,4.6289,4.6308,4.6406,4.7168,4.748,4.7676,4.834,4.8808,4.9101,4.959,4.959,4.8808,4.9492,4.9023,4.7441,4.7051,4.6992,4.7461,4.7871,4.7715,4.75,4.7793,4.7344,4.709,4.7383,4.7402,4.6777,4.6562,4.6445,4.6308,4.6289,4.6211,4.6191,4.6191,4.6191,4.6206,4.6262,4.6296,4.6304,4.6301,4.6301,4.6301,4.6301,4.6301,4.6301,4.6301,4.6398,4.6651,4.6593,4.6652,4.6984,4.751,4.7763,4.7529,4.7081,4.6476,4.6359,4.6301,4.6418,4.6632,4.6651,4.6671,4.6944,4.7081,4.716,4.7081,4.6807,4.6736,4.6776,4.7007,4.705,4.6962,4.7113,4.7103,4.7201,4.7855,4.824,4.8067,4.7836,4.7375,4.7163,4.7163,4.7124,4.7105,4.7086,4.7009,4.6874,4.6802,4.6533,4.6394,4.6451,4.6624,4.6186,4.5956,4.6263,4.6567,4.6855,4.7274,4.7832,4.8221,4.8702,4.0391,4.1211,4.1308,4.2187,4.3476,4.373,4.4199,4.4824,4.4844,4.4883,4.5156,4.5762,4.6152,4.6289,4.6289,4.6289,4.6562,4.7168,4.7676,4.7891,4.8535,4.8945,4.9062,4.9785,4.9687,4.9258,4.9844,4.959,4.8711,4.8496,4.8808,4.916,4.8828,4.8906,4.9004,4.8828,4.8301,4.7754,4.8242,4.8242,4.7558,4.7363,4.6914,4.6484,4.6289,4.6289,4.6289,4.6289,4.6306,4.6302,4.6301,4.6296,4.6304,4.6301,4.6301,4.6301,4.6301,4.6301,4.6301,4.6301,4.6651,4.7099,4.7333,4.7803,4.8213,4.833,4.829,4.7645,4.747,4.7197,4.6729,4.6436,4.6729,4.7138,4.7431,4.7803,4.8115,4.7822,4.79,4.8108,4.797,4.7723,4.7609,4.7932,4.819,4.8069,4.7984,4.7972,4.8163,4.8798,4.8971,4.874,4.8548,4.8125,4.799,4.799,4.799,4.7971,4.7947,4.7851,4.762,4.7509,4.7721,4.7625,4.7605,4.7471,4.7201,4.7105,4.7197,4.7432,4.7759,4.8375,4.9048,4.9356,4.9529,4.0234,4.1855,4.1875,4.2851,4.4414,4.4941,4.5371,4.5683,4.5742,4.5742,4.5781,4.6094,4.6289,4.6289,4.6289,4.6289,4.6484,4.7207,4.791,4.8242,4.8711,4.9141,4.9492,4.9551,4.9297,4.9785,5.0019,5.043,4.9941,4.9375,4.916,4.9473,4.959,4.9394,4.9844,4.9629,4.9101,4.8555,4.8281,4.8242,4.8047,4.7441,4.6719,4.6348,4.6328,4.6328,4.6289,4.6288,4.6304,4.63,4.63,4.6296,4.6306,4.6301,4.6301,4.6339,4.6807,4.6788,4.6397,4.6359,4.6885,4.7392,4.7742,4.8153,4.9032,4.913,4.9052,4.9071,4.8544,4.8076,4.7764,4.7725,4.79,4.8174,4.827,4.8505,4.8818,4.874,4.866,4.8905,4.9124,4.8883,4.8611,4.861,4.8732,4.8593,4.8677,4.8859,4.9125,4.9649,4.9591,4.9279,4.9086,4.8856,4.8856,4.8856,4.8856,4.8856,4.8836,4.8678,4.8274,4.8216,4.8529,4.8606,4.8471,4.8336,4.8197,4.8024,4.7908,4.8259,4.8706,4.9163,4.9606,5.0014,5.0188,3.9648,4.1758,4.2012,4.3086,4.4746,4.584,4.6269,4.6289,4.6269,4.6269,4.6289,4.6289,4.6289,4.6289,4.6289,4.6308,4.6367,4.7207,4.791,4.8437,4.8867,4.9238,4.9394,4.9219,4.9394,5.0176,5.0156,5.0547,5.0723,5.0332,4.9726,4.9551,5.0273,5.0195,4.9922,5.0117,5.0156,4.9668,4.8887,4.8808,4.8906,4.8086,4.7285,4.6836,4.6621,4.6523,4.6327,4.6306,4.6302,4.6297,4.6295,4.6291,4.6302,4.6301,4.6496,4.671,4.7255,4.7431,4.7198,4.7217,4.7411,4.7958,4.8544,4.9363,5.0066,4.9794,4.9403,4.991,4.95,4.9071,4.8818,4.8701,4.8837,4.8935,4.9129,4.9247,4.9384,4.954,4.9732,4.9999,5.0146,5.0105,4.9805,4.9443,4.9255,4.9092,4.9273,4.9629,4.9957,5.0303,5.0168,4.9841,4.9803,4.9668,4.9687,4.9707,4.9702,4.9663,4.9644,4.9586,4.924,4.924,4.9495,4.9476,4.9322,4.9437,4.9433,4.899,4.8625,4.9202,4.9668,4.9687,4.9995,5.0418,5.064,3.8437,4.0137,4.0937,4.2207,4.3867,4.5605,4.6269,4.6074,4.623,4.6289,4.6289,4.6289,4.6289,4.6289,4.6289,4.6289,4.6348,4.7207,4.7617,4.7988,4.8437,4.8789,4.8887,4.8945,4.918,4.9863,4.998,5.0488,5.1191,5.1094,5.0976,5.123,5.1035,5.1172,5.1094,5.0957,5.1094,5.0664,5.0039,4.9746,4.9902,4.9473,4.8808,4.7676,4.7402,4.7148,4.6365,4.6304,4.63,4.6292,4.6288,4.6306,4.6302,4.6613,4.6944,4.7256,4.7782,4.8114,4.8309,4.8369,4.8973,4.9773,5.0398,5.0692,5.0983,5.1199,5.0905,5.0319,5.0105,4.9734,4.9246,4.8896,4.95,4.9793,5.0066,5.0223,5.0418,5.0711,5.0903,5.1112,5.1029,5.0755,5.0605,5.0151,4.9981,4.9845,4.9867,5.0207,5.0284,5.0553,5.0592,5.0476,5.0515,5.0476,5.0495,5.0457,5.0245,5.0207,5.0226,5.0322,5.0322,5.0399,5.0207,5.0245,5.0111,5.0399,5.0495,4.9861,4.9625,5.0265,5.0553,5.0322,5.0265,5.0534,5.0639,3.8008,3.9141,3.9473,4.0586,4.2324,4.4551,4.5195,4.4961,4.582,4.6289,4.6289,4.6289,4.6289,4.6289,4.6289,4.6289,4.6328,4.6582,4.709,4.7539,4.7969,4.8086,4.8105,4.8125,4.8281,4.873,4.9141,4.9844,5.0566,5.1133,5.1367,5.1387,5.1387,5.1387,5.1387,5.1387,5.1387,5.1191,5.0683,5.0234,5.0098,4.959,4.8828,4.7754,4.7617,4.7147,4.6441,4.6319,4.6294,4.6346,4.6361,4.6418,4.6672,4.7276,4.7686,4.7899,4.8465,4.9148,4.9344,4.9228,4.9227,5.0047,5.0827,5.1394,5.1394,5.1394,5.1297,5.1003,5.0847,5.0495,5.0516,5.0418,5.0653,5.0827,5.0944,5.1081,5.118,5.1355,5.1346,5.1258,5.1148,5.0953,5.0875,5.0763,5.0694,5.0616,5.0678,5.0688,5.0688,5.0688,5.0688,5.0688,5.0688,5.0688,5.0688,5.0688,5.0688,5.0688,5.0688,5.0688,5.0688,5.0668,5.0534,5.0668,5.0688,5.0649,5.0553,5.0399,5.0438,5.063,5.0688,5.063,5.0649,5.0707,5.0788,3.75,3.7851,3.8125,3.9375,4.1367,4.3379,4.4199,4.4336,4.5351,4.6113,4.6289,4.6289,4.6289,4.6289,4.6289,4.6289,4.6289,4.6406,4.6699,4.6992,4.7168,4.7207,4.7207,4.7285,4.7402,4.7676,4.8476,4.9394,5.0293,5.1035,5.1308,5.1387,5.1387,5.1387,5.1387,5.1387,5.1387,5.123,5.0937,5.0566,5.0469,5.0058,4.9394,4.8633,4.8555,4.8102,4.7531,4.731,4.7247,4.7163,4.7061,4.6963,4.7471,4.8077,4.8642,4.8934,4.9323,5.0163,5.0222,5.0105,4.9871,5.0613,5.1003,5.1355,5.1394,5.1394,5.1336,5.1355,5.1336,5.1394,5.1394,5.1199,5.1121,5.118,5.1199,5.1297,5.1297,5.1393,5.134,5.1284,5.115,5.1019,5.0907,5.083,5.0766,5.0717,5.0693,5.0688,5.0688,5.0688,5.0688,5.0688,5.0688,5.0688,5.0688,5.0688,5.0688,5.0688,5.0688,5.0688,5.0688,5.0688,5.0688,5.0688,5.0688,5.0688,5.063,5.0515,5.0572,5.0668,5.0688,5.0688,5.0842,5.0914,5.1134,3.6816,3.6211,3.6992,3.8769,4.0937,4.209,4.3281,4.4238,4.4863,4.5508,4.6211,4.625,4.6269,4.625,4.6191,4.6172,4.625,4.6211,4.6308,4.6445,4.6582,4.6426,4.6445,4.6562,4.6953,4.7676,4.8496,4.9355,5.0215,5.1016,5.1328,5.1387,5.1387,5.1387,5.1387,5.1387,5.1387,5.1387,5.1328,5.125,5.1172,5.1016,5.0488,4.9881,4.9665,4.9173,4.8483,4.8264,4.822,4.8195,4.8076,4.8096,4.8447,4.9248,4.9716,4.985,5.0007,5.0554,5.118,5.1258,5.118,5.112,5.1336,5.1375,5.1394,5.1394,5.1394,5.1394,5.1394,5.1394,5.1394,5.1394,5.1394,5.1394,5.1394,5.1394,5.1394,5.1339,5.1298,5.1248,5.1111,5.0972,5.0886,5.0801,5.073,5.0688,5.0688,5.0688,5.0688,5.0688,5.0688,5.0688,5.0688,5.0688,5.0688,5.0688,5.0688,5.0688,5.0688,5.0688,5.0688,5.0688,5.0688,5.0688,5.0688,5.0688,5.0688,5.0668,5.0803,5.0914,5.0726,5.0726,5.0919,5.1178,5.147,3.6289,3.6035,3.6309,3.7266,3.8828,4.0781,4.168,4.1914,4.3359,4.4941,4.5957,4.5742,4.582,4.5996,4.5762,4.5742,4.6094,4.5586,4.5566,4.625,4.6269,4.6308,4.6289,4.6387,4.6777,4.7617,4.8496,4.9355,5.0215,5.1016,5.1328,5.1387,5.1387,5.1387,5.1387,5.1387,5.1387,5.1387,5.1387,5.1387,5.1386,5.1347,5.1014,5.0229,5.0207,4.9812,4.9103,4.904,4.9036,4.9072,4.8954,4.9111,4.9286,4.9931,5.0535,5.0456,5.0476,5.1042,5.1355,5.1355,5.1375,5.1394,5.1394,5.1394,5.1394,5.1394,5.1394,5.1394,5.1394,5.1394,5.1394,5.1394,5.1394,5.1394,5.1394,5.1394,5.1369,5.1295,5.1218,5.1152,5.1059,5.0912,5.0801,5.0776,5.0717,5.0688,5.0688,5.0688,5.0688,5.0688,5.0688,5.0688,5.0688,5.0688,5.0688,5.0688,5.0688,5.0688,5.0688,5.0688,5.0688,5.0688,5.0688,5.0688,5.0688,5.0688,5.0842,5.0976,5.1144,5.1183,5.1202,5.1298,5.1587,5.1798,5.1964,3.6269,3.6016,3.6016,3.6309,3.7129,3.9023,3.9785,4.0254,4.2285,4.4101,4.5098,4.5058,4.5254,4.5547,4.5371,4.4902,4.541,4.5254,4.5137,4.5898,4.6211,4.6269,4.6289,4.6387,4.6836,4.7637,4.8496,4.9336,5.0215,5.1016,5.1348,5.1387,5.1387,5.1387,5.1387,5.1387,5.1387,5.1387,5.1387,5.1386,5.1385,5.1325,5.1147,5.0752,5.0533,5.0314,4.988,4.968,4.9677,4.9794,4.9931,5.0087,5.0184,5.0496,5.1101,5.0925,5.0964,5.1375,5.1394,5.1394,5.1394,5.1394,5.1394,5.1394,5.1394,5.1394,5.1394,5.1394,5.1394,5.1394,5.1394,5.1394,5.1393,5.1392,5.139,5.139,5.1298,5.1213,5.1149,5.1092,5.1001,5.0851,5.074,5.0721,5.0693,5.0688,5.0688,5.0688,5.0688,5.0688,5.0688,5.0688,5.0688,5.0688,5.0688,5.0688,5.0688,5.0688,5.0688,5.0688,5.0688,5.0688,5.0688,5.0707,5.0765,5.088,5.1106,5.1298,5.164,5.1909,5.2049,5.2178,5.2308,5.2532,5.2775,3.6758,3.6055,3.6016,3.6016,3.6211,3.7109,3.834,3.9961,4.1523,4.2734,4.3711,4.4433,4.4668,4.4902,4.4922,4.4648,4.4375,4.4785,4.5117,4.543,4.6055,4.6211,4.6348,4.6465,4.7129,4.7793,4.8652,4.9668,5.0293,5.1016,5.1387,5.1387,5.1387,5.1387,5.1387,5.1387,5.1387,5.1387,5.1386,5.1385,5.1402,5.1381,5.1318,5.1156,5.1114,5.111,5.0949,5.0984,5.1063,5.1141,5.1238,5.1277,5.1336,5.1375,5.1394,5.1394,5.1375,5.1375,5.1394,5.1394,5.1394,5.1394,5.1394,5.1394,5.1394,5.1394,5.1394,5.1394,5.1394,5.1394,5.1394,5.1392,5.139,5.1387,5.1363,5.13,5.1209,5.1125,5.1061,5.0998,5.0917,5.0795,5.0736,5.0688,5.0688,5.0688,5.0688,5.0688,5.0688,5.0688,5.0688,5.0688,5.0688,5.0688,5.0688,5.0688,5.0688,5.0688,5.0688,5.0688,5.0688,5.0765,5.0861,5.0919,5.0919,5.1149,5.1741,5.2106,5.2351,5.2601,5.2962,5.3061,5.3205,5.3587,5.3906,3.6211,3.6016,3.6016,3.6016,3.6035,3.6289,3.7715,3.9766,3.9902,4.0762,4.2754,4.2422,4.3105,4.4023,4.4082,4.4258,4.4531,4.4941,4.543,4.5801,4.6055,4.623,4.6484,4.6836,4.7656,4.8476,4.9297,5.0039,5.084,5.1367,5.1387,5.1387,5.1387,5.1387,5.1387,5.1386,5.1386,5.1386,5.1385,5.1402,5.1398,5.1394,5.1388,5.1383,5.14,5.1397,5.1395,5.1394,5.1394,5.1394,5.1394,5.1394,5.1394,5.1394,5.1394,5.1394,5.1394,5.1394,5.1394,5.1394,5.1392,5.139,5.1392,5.1394,5.1394,5.1392,5.1392,5.1394,5.1394,5.1394,5.1394,5.1392,5.1358,5.1301,5.1289,5.1211,5.112,5.1022,5.0961,5.0902,5.0829,5.0775,5.0697,5.0688,5.0688,5.0688,5.0688,5.0688,5.0688,5.0688,5.0688,5.0688,5.0688,5.0688,5.0688,5.0688,5.0688,5.0688,5.0688,5.0745,5.0842,5.0938,5.1068,5.1337,5.1702,5.2183,5.2722,5.2981,5.3105,5.3657,5.4017,5.4035,5.4134,5.4408,5.4662,3.6309,3.6113,3.6758,3.6836,3.6484,3.6152,3.6992,3.8184,3.8144,3.9394,4.1269,4.1328,4.1933,4.3027,4.3183,4.3262,4.334,4.4101,4.4668,4.5,4.6035,4.623,4.6562,4.6894,4.7441,4.8418,4.9277,4.9902,5.082,5.1308,5.1387,5.1387,5.1387,5.1387,5.1386,5.1386,5.1384,5.1402,5.1399,5.1396,5.1392,5.1387,5.14,5.1396,5.1394,5.1394,5.1394,5.1394,5.1394,5.1394,5.1394,5.1394,5.1394,5.1394,5.1394,5.1394,5.1394,5.1394,5.1394,5.1394,5.1385,5.1357,5.1363,5.1361,5.1361,5.1339,5.1368,5.1394,5.1394,5.1394,5.1394,5.1371,5.1297,5.1214,5.1183,5.1123,5.1024,5.093,5.0875,5.0812,5.0757,5.0712,5.0688,5.0688,5.0688,5.0688,5.0688,5.0688,5.0688,5.0688,5.0688,5.0688,5.0688,5.0688,5.0688,5.0688,5.0688,5.0688,5.0688,5.0765,5.0938,5.1337,5.1702,5.2217,5.2736,5.3197,5.3606,5.371,5.3886,5.4419,5.4781,5.4756,5.4741,5.4865,5.5098,3.6758,3.6269,3.7891,3.7988,3.7246,3.6465,3.6191,3.6094,3.6914,3.8125,3.9648,4.0566,4.1289,4.1973,4.2383,4.2383,4.2871,4.3652,4.4473,4.4023,4.5644,4.6289,4.6328,4.6484,4.7266,4.7812,4.8574,4.9609,5.0293,5.0937,5.1387,5.1387,5.1387,5.1386,5.1386,5.1384,5.14,5.1395,5.1392,5.1389,5.1386,5.14,5.1394,5.1394,5.1394,5.1394,5.1394,5.1394,5.1394,5.1394,5.1394,5.1394,5.1394,5.1394,5.1394,5.1394,5.1394,5.1365,5.1361,5.1336,5.1298,5.1291,5.13,5.1325,5.1329,5.136,5.1391,5.1394,5.1394,5.1361,5.1336,5.1325,5.1252,5.1156,5.1084,5.1001,5.0909,5.0841,5.0819,5.0763,5.0726,5.0688,5.0688,5.0688,5.0688,5.0688,5.0688,5.0688,5.0688,5.0688,5.0688,5.0688,5.0688,5.0688,5.0688,5.0688,5.0688,5.0688,5.0688,5.1048,5.139,5.189,5.2428,5.3063,5.3703,5.4049,5.4371,5.4484,5.4669,5.5025,5.5313,5.5377,5.5393,5.5292,5.53,3.6582,3.707,3.8144,3.8086,3.7324,3.709,3.6601,3.6035,3.6191,3.6953,3.7949,3.8867,3.9785,4.0703,4.1797,4.2226,4.3144,4.3711,4.4941,4.5234,4.6035,4.5976,4.6308,4.6445,4.7109,4.7773,4.8476,4.9355,5.0195,5.0918,5.1387,5.1387,5.1386,5.1386,5.1385,5.1401,5.1394,5.1388,5.1384,5.14,5.1399,5.1397,5.1394,5.1394,5.1394,5.1394,5.1394,5.1394,5.1394,5.1394,5.1394,5.1394,5.1394,5.1393,5.1393,5.1394,5.1369,5.1327,5.1292,5.126,5.1241,5.1214,5.1225,5.1292,5.1351,5.1368,5.1392,5.1391,5.1367,5.1327,5.1283,5.1243,5.1208,5.1084,5.0985,5.0887,5.079,5.0758,5.075,5.0726,5.0693,5.0688,5.0688,5.0688,5.0688,5.0688,5.0688,5.0688,5.0688,5.0688,5.0688,5.0688,5.0688,5.0688,5.0688,5.0688,5.0688,5.0688,5.0688,5.1183,5.1827,5.2851,5.3741,5.4164,5.467,5.4846,5.5058,5.5294,5.5511,5.5579,5.5516,5.5457,5.5421,5.5339,5.5365,3.6621,3.6855,3.7656,3.7969,3.7891,3.7891,3.7383,3.668,3.6582,3.6601,3.6836,3.7676,3.8691,3.9726,4.0937,4.2148,4.3144,4.3984,4.4355,4.4961,4.5605,4.5312,4.5605,4.5898,4.5937,4.6562,4.8242,4.9355,5.0137,5.0937,5.1387,5.1387,5.1386,5.1384,5.1402,5.1395,5.1387,5.1384,5.1397,5.1394,5.1394,5.1394,5.1394,5.1394,5.1394,5.1394,5.1394,5.1394,5.1394,5.1394,5.1394,5.1394,5.1368,5.133,5.1336,5.1333,5.1295,5.1213,5.1201,5.1191,5.1157,5.1144,5.1172,5.1247,5.1172,5.1193,5.1225,5.1227,5.1268,5.125,5.115,5.1111,5.107,5.0978,5.0931,5.087,5.0785,5.0726,5.0712,5.0707,5.0688,5.0688,5.0688,5.0688,5.0688,5.0688,5.0688,5.0765,5.0745,5.1034,5.0938,5.0899,5.1015,5.0822,5.0688,5.0688,5.0688,5.0688,5.0822,5.1548,5.2428,5.3953,5.5074,5.5107,5.5192,5.5371,5.5583,5.5654,5.5579,5.5492,5.5457,5.5427,5.5396,5.5416,5.5454,3.6621,3.6309,3.7266,3.7988,3.8535,3.8594,3.8066,3.7324,3.7148,3.666,3.6191,3.6836,3.8144,3.9258,4.0137,4.123,4.2246,4.3164,4.3574,4.4297,4.4844,4.5117,4.4805,4.4336,4.4883,4.6055,4.7734,4.8926,4.9883,5.0781,5.1387,5.1387,5.1385,5.1402,5.1397,5.1391,5.1384,5.1398,5.1394,5.1394,5.1394,5.1394,5.1394,5.1394,5.1394,5.1394,5.1394,5.1394,5.1394,5.1388,5.1364,5.1356,5.13,5.1247,5.1247,5.1239,5.1148,5.1123,5.1128,5.1142,5.1091,5.1058,5.1132,5.1118,5.1042,5.1034,5.1081,5.1108,5.1139,5.1169,5.1092,5.1024,5.0983,5.1034,5.1001,5.1041,5.0955,5.088,5.088,5.0861,5.0745,5.0745,5.0765,5.0765,5.0745,5.0745,5.0822,5.0842,5.1015,5.1534,5.1784,5.1702,5.1722,5.1438,5.088,5.1188,5.1356,5.1221,5.1491,5.2164,5.3049,5.4453,5.5357,5.5544,5.5662,5.5624,5.5579,5.5556,5.548,5.542,5.5408,5.5402,5.5409,5.5428,5.5536,3.5937,3.7168,3.873,3.9101,3.8633,3.8613,3.8105,3.7266,3.6621,3.6133,3.623,3.6269,3.7207,3.8945,4.0449,4.1543,4.2266,4.2812,4.3789,4.4726,4.4844,4.5234,4.5234,4.457,4.4824,4.5937,4.7402,4.8769,4.9804,5.082,5.1386,5.1385,5.1398,5.1393,5.1391,5.1385,5.1398,5.1394,5.1394,5.1394,5.1394,5.1394,5.1394,5.1394,5.1394,5.1394,5.1394,5.1394,5.1394,5.1364,5.1318,5.1276,5.1197,5.1128,5.1108,5.1106,5.1033,5.1022,5.103,5.1023,5.0969,5.1004,5.1036,5.1014,5.0976,5.0988,5.0991,5.0965,5.103,5.1128,5.1096,5.1079,5.1064,5.1264,5.1337,5.1525,5.1582,5.1543,5.1524,5.126,5.0976,5.0996,5.1034,5.1034,5.1053,5.1169,5.1543,5.1606,5.1741,5.2145,5.2587,5.2529,5.2472,5.1707,5.1072,5.2125,5.2414,5.2197,5.2236,5.2972,5.3837,5.4857,5.5549,5.5648,5.5635,5.5596,5.5551,5.5486,5.547,5.5421,5.5408,5.5383,5.539,5.5473,5.5606]}]]